[[{"header":{"parameterUnit":"m.s-1","parameterCategory":1,"la1":31.0,"la2":29.5877,"lo1":-88.7671,"lo2":-86.6584,"dy":0.0162,"dx":0.0185,"nx":115,"ny":88,"refTime":"2024-04-21T12:00:00:Z","depth":0,"parameterNumber":2,"parameterNumberName":"U-component_of_WINDS"},"data":[0.0,0.0,0.0,0.0,0.0,0.0,0.0,0.0,0.0,0.0,0.0,0.0,0.0,0.0,0.0,0.0,0.0,0.0,0.0,0.0,0.0,0.0,0.0,0.0,0.0,0.0,0.0,0.0,0.0,0.0,0.0,0.0,0.0,0.0,0.0,0.0,0.0,0.0,0.0,0.0,0.0,0.0,0.0,0.0,0.0,0.0,0.0,0.0,0.0,0.0,0.0,0.0,0.0,0.0,0.0,0.0,0.0,0.0,0.0,0.0,0.0,0.0,0.0,0.0,0.0,0.0,0.0,0.0,0.0,0.0,0.0,0.0,0.0,0.0,0.0,0.0,0.0,0.0,0.0,0.0,0.0,0.0,0.0,0.0,0.0,0.0,0.0,0.0,0.0,0.0,0.0,0.0,0.0,0.0,0.0,0.0,0.0,0.0,0.0,0.0,0.0,0.0,0.0,0.0,0.0,0.0,0.0,0.0,0.0,0.0,0.0,0.0,0.0,0.0,0.0,0.0,0.0,0.0,0.0,0.0,0.0,0.0,0.0,0.0,0.0,0.0,0.0,0.0,0.0,0.0,0.0,0.0,0.0,0.0,0.0,0.0,0.0,0.0,0.0,0.0,0.0,0.0,0.0,0.0,0.0,0.0,0.0,0.0,0.0,0.0,0.0,0.0,0.0,0.0,0.0,0.0,0.0,0.0,0.0,0.0,0.0,0.0,0.0,0.0,0.0,0.0,0.0,0.0,0.0,0.0,0.0,0.0,0.0,0.0,0.0,0.0,0.0,0.0,0.0,0.0,0.0,0.0,0.0,0.0,0.0,0.0,0.0,0.0,0.0,0.0,0.0,0.0,0.0,0.0,0.0,0.0,0.0,0.0,0.0,0.0,0.0,0.0,0.0,0.0,0.0,0.0,0.0,0.0,0.0,0.0,0.0,0.0,0.0,0.0,0.0,0.0,0.0,0.0,0.0,0.0,0.0,0.0,0.0,0.0,0.0,0.0,0.0,0.0,0.0,0.0,0.0,0.0,0.0,0.0,0.0,0.0,0.0,0.0,0.0,0.0,0.0,0.0,0.0,0.0,0.0,0.0,0.0,0.0,0.0,0.0,0.0,0.0,0.0,0.0,0.0,0.0,0.0,0.0,0.0,0.0,0.0,0.0,0.0,0.0,0.0,0.0,0.0,0.0,0.0,0.0,0.0,0.0,0.0,0.0,0.0,0.0,0.0,0.0,0.0,0.0,0.0,0.0,0.0,0.0,0.0,0.0,0.0,0.0,0.0,0.0,0.0,0.0,0.0,0.0,0.0,0.0,0.0,0.0,0.0,0.0,0.0,0.0,0.0,0.0,0.0,0.0,0.0,0.0,0.0,0.0,0.0,0.0,0.0,0.0,0.0,0.0,0.0,0.0,0.0,0.0,0.0,0.0,0.0,0.0,0.0,0.0,0.0,0.0,0.0,0.0,0.0,0.0,0.0,0.0,0.0,0.0,0.0,0.0,0.0,0.0,0.0,0.0,0.0,0.0,0.0,0.0,0.0,0.0,0.0,0.0,0.0,0.0,0.0,0.0,0.0,0.0,0.0,0.0,0.0,0.0,0.0,0.0,0.0,0.0,0.0,0.0,0.0,0.0,0.0,0.0,0.0,0.0,0.0,0.0,0.0,0.0,0.0,0.0,0.0,0.0,0.0,0.0,0.0,0.0,0.0,0.0,0.0,0.0,0.0,0.0,0.0,0.0,0.0,0.0,0.0,0.0,0.0,0.0,0.0,0.0,0.0,0.0,0.0,0.0,0.0,0.0,0.0,0.0,0.0,0.0,0.0,0.0,0.0,0.0,0.0,0.0,0.0,0.0,0.0,0.0,0.0,0.0,0.0,0.0,0.0,0.0,0.0,0.0,0.0,0.0,0.0,0.0,0.0,0.0,0.0,0.0,0.0,0.0,0.0,0.0,0.0,0.0,0.0,0.0,0.0,0.0,0.0,0.0,0.0,0.0,0.0,0.0,0.0,0.0,0.0,0.0,0.0,0.0,0.0,0.0,0.0,0.0,0.0,0.0,0.0,0.0,0.0,0.0,0.0,0.0,0.0,0.0,0.0,0.0,0.0,0.0,0.0,0.0,0.0,0.0,0.0,0.0,0.0,0.0,0.0,0.0,0.0,0.0,0.0,0.0,0.0,0.0,0.0,0.0,0.0,0.0,0.0,0.0,0.0,0.0,0.0,0.0,0.0,0.0,0.0,0.0,0.0,0.0,0.0,0.0,0.0,0.0,0.0,0.0,0.0,0.0,0.0,0.0,0.0,0.0,0.0,0.0,0.0,0.0,0.0,0.0,0.0,0.0,0.0,0.0,0.0,0.0,0.0,0.0,0.0,0.0,0.0,0.0,0.0,0.0,0.0,0.0,0.0,0.0,0.0,0.0,0.0,0.0,0.0,0.0,0.0,0.0,0.0,0.0,0.0,0.0,0.0,0.0,0.0,0.0,0.0,0.0,0.0,0.0,0.0,0.0,0.0,0.0,0.0,0.0,0.0,0.0,0.0,0.0,0.0,0.0,0.0,0.0,0.0,0.0,0.0,0.0,0.0,0.0,0.0,0.0,0.0,0.0,0.0,0.0,0.0,0.0,0.0,0.0,0.0,0.0,0.0,0.0,0.0,0.0,0.0,0.0,0.0,0.0,0.0,0.0,0.0,0.0,0.0,0.0,0.0,0.0,0.0,0.0,0.0,0.0,0.0,0.0,0.0,0.0,0.0,0.0,0.0,0.0,0.0,0.0,0.0,0.0,0.0,0.0,0.0,0.0,0.0,0.0,0.0,0.0,0.0,0.0,0.0,0.0,0.0,0.0,0.0,0.0,0.0,0.0,0.0,0.0,0.0,0.0,0.0,0.0,0.0,0.0,0.0,0.0,0.0,0.0,0.0,0.0,0.0,0.0,0.0,0.0,0.0,0.0,0.0,0.0,0.0,0.0,0.0,0.0,0.0,0.0,0.0,0.0,0.0,0.0,0.0,0.0,0.0,0.0,0.0,0.0,0.0,0.0,0.0,0.0,0.0,0.0,0.0,0.0,0.0,0.0,0.0,0.0,0.0,0.0,0.0,0.0,0.0,0.0,0.0,0.0,0.0,0.0,0.0,0.0,0.0,0.0,0.0,0.0,0.0,0.0,0.0,0.0,0.0,0.0,0.0,0.0,0.0,0.0,0.0,0.0,0.0,0.0,0.0,0.0,0.0,0.0,0.0,0.0,0.0,0.0,0.0,0.0,0.0,0.0,0.0,0.0,0.0,0.0,0.0,0.0,0.0,0.0,0.0,0.0,0.0,0.0,0.0,0.0,0.0,0.0,0.0,0.0,0.0,0.0,0.0,0.0,0.0,0.0,0.0,0.0,0.0,0.0,0.0,0.0,0.0,0.0,0.0,0.0,0.0,0.0,0.0,0.0,0.0,0.0,0.0,0.0,0.0,0.0,0.0,0.0,0.0,0.0,0.0,0.0,0.0,0.0,0.0,0.0,0.0,0.0,0.0,0.0,0.0,0.0,0.0,0.0,0.0,0.0,0.0,0.0,0.0,0.0,0.0,0.0,0.0,0.0,0.0,0.0,0.0,0.0,0.0,0.0,0.0,0.0,0.0,0.0,0.0,0.0,0.0,0.0,0.0,0.0,0.0,0.0,0.0,0.0,0.0,0.0,0.0,0.0,0.0,0.0,0.0,0.0,0.0,0.0,0.0,0.0,0.0,0.0,0.0,0.0,0.0,0.0,0.0,0.0,0.0,0.0,0.0,0.0,0.0,0.0,0.0,0.0,0.0,0.0,0.0,0.0,0.0,0.0,0.0,0.0,0.0,0.0,0.0,0.0,0.0,0.0,0.0,0.0,0.0,0.0,0.0,0.0,0.0,0.0,0.0,0.0,0.0,0.0,0.0,0.0,0.0,0.0,0.0,0.0,0.0,0.0,0.0,0.0,0.0,0.0,0.0,0.0,0.0,0.0,0.0,0.0,0.0,0.0,0.0,0.0,0.0,0.0,0.0,0.0,0.0,0.0,0.0,0.0,0.0,0.0,0.0,0.0,0.0,0.0,0.0,0.0,0.0,0.0,0.0,0.0,0.0,0.0,0.0,0.0,0.0,0.0,0.0,0.0,0.0,0.0,0.0,0.0,0.0,0.0,0.0,0.0,0.0,0.0,0.0,0.0,0.0,0.0,0.0,0.0,0.0,0.0,0.0,0.0,0.0,0.0,0.0,0.0,0.0,0.0,0.0,0.0,0.0,0.0,0.0,0.0,-5.3518,0.0,0.0,0.0,0.0,0.0,0.0,0.0,0.0,0.0,0.0,0.0,0.0,0.0,0.0,0.0,0.0,0.0,0.0,0.0,0.0,0.0,0.0,0.0,0.0,0.0,0.0,0.0,0.0,0.0,0.0,0.0,0.0,0.0,0.0,0.0,0.0,0.0,0.0,0.0,0.0,0.0,0.0,0.0,0.0,0.0,0.0,0.0,0.0,0.0,0.0,0.0,0.0,0.0,0.0,0.0,0.0,0.0,0.0,0.0,0.0,0.0,0.0,0.0,0.0,0.0,0.0,0.0,0.0,0.0,0.0,0.0,0.0,0.0,0.0,0.0,0.0,0.0,0.0,0.0,0.0,0.0,0.0,0.0,0.0,0.0,0.0,0.0,0.0,0.0,0.0,0.0,0.0,0.0,0.0,0.0,0.0,0.0,0.0,0.0,0.0,0.0,0.0,0.0,0.0,0.0,0.0,0.0,0.0,0.0,0.0,-5.389,-5.3518,-5.3518,-5.3518,-5.3518,0.0,0.0,0.0,0.0,0.0,0.0,0.0,0.0,0.0,0.0,0.0,0.0,0.0,0.0,0.0,0.0,0.0,0.0,0.0,0.0,0.0,0.0,0.0,0.0,0.0,0.0,0.0,0.0,0.0,0.0,0.0,0.0,0.0,0.0,0.0,0.0,0.0,0.0,0.0,0.0,0.0,0.0,0.0,0.0,0.0,0.0,0.0,0.0,0.0,0.0,0.0,0.0,0.0,0.0,0.0,0.0,0.0,0.0,0.0,0.0,0.0,0.0,0.0,0.0,0.0,0.0,0.0,0.0,0.0,0.0,0.0,0.0,0.0,0.0,0.0,0.0,0.0,0.0,0.0,0.0,0.0,0.0,0.0,0.0,0.0,0.0,0.0,0.0,0.0,0.0,0.0,0.0,0.0,0.0,0.0,0.0,0.0,0.0,0.0,0.0,0.0,0.0,0.0,0.0,0.0,0.0,0.0,0.0,0.0,0.0,0.0,0.0,-5.3822,-5.3687,-5.3518,0.0,0.0,0.0,0.0,0.0,0.0,0.0,0.0,0.0,0.0,0.0,0.0,0.0,0.0,0.0,0.0,0.0,0.0,0.0,0.0,0.0,0.0,0.0,0.0,0.0,0.0,0.0,0.0,0.0,0.0,0.0,0.0,0.0,0.0,0.0,0.0,0.0,0.0,0.0,0.0,0.0,0.0,0.0,0.0,0.0,0.0,0.0,0.0,0.0,0.0,0.0,0.0,0.0,0.0,0.0,0.0,0.0,0.0,0.0,0.0,0.0,0.0,0.0,0.0,0.0,0.0,0.0,0.0,0.0,0.0,0.0,0.0,0.0,0.0,0.0,0.0,0.0,0.0,0.0,0.0,0.0,0.0,0.0,0.0,0.0,0.0,0.0,0.0,0.0,0.0,0.0,0.0,0.0,0.0,0.0,0.0,0.0,0.0,0.0,0.0,0.0,0.0,0.0,0.0,0.0,0.0,0.0,0.0,0.0,0.0,-5.5581,-5.5513,-5.4837,0.0,-5.3551,0.0,0.0,0.0,0.0,0.0,0.0,0.0,0.0,0.0,0.0,0.0,0.0,0.0,0.0,0.0,0.0,0.0,0.0,0.0,0.0,0.0,0.0,0.0,0.0,0.0,0.0,0.0,0.0,0.0,0.0,0.0,0.0,0.0,0.0,0.0,0.0,0.0,0.0,0.0,0.0,0.0,0.0,0.0,0.0,0.0,0.0,0.0,0.0,0.0,0.0,0.0,0.0,0.0,0.0,0.0,0.0,0.0,0.0,0.0,0.0,0.0,0.0,0.0,0.0,0.0,0.0,0.0,0.0,0.0,0.0,0.0,0.0,0.0,0.0,0.0,0.0,0.0,0.0,0.0,0.0,0.0,0.0,0.0,0.0,0.0,0.0,0.0,0.0,0.0,0.0,0.0,0.0,0.0,0.0,0.0,0.0,0.0,0.0,0.0,0.0,0.0,0.0,0.0,0.0,0.0,0.0,0.0,0.0,0.0,0.0,-5.6156,-5.5681,-5.5412,-5.5108,0.0,0.0,0.0,0.0,0.0,0.0,0.0,0.0,0.0,0.0,0.0,0.0,0.0,0.0,0.0,0.0,0.0,0.0,0.0,0.0,0.0,0.0,0.0,0.0,0.0,0.0,0.0,0.0,0.0,0.0,0.0,0.0,0.0,0.0,0.0,0.0,0.0,0.0,0.0,0.0,0.0,0.0,0.0,0.0,0.0,0.0,0.0,0.0,0.0,0.0,0.0,0.0,0.0,0.0,0.0,0.0,0.0,0.0,0.0,0.0,0.0,0.0,0.0,0.0,0.0,0.0,0.0,0.0,0.0,0.0,0.0,0.0,0.0,0.0,0.0,0.0,0.0,0.0,0.0,0.0,0.0,0.0,0.0,0.0,0.0,0.0,0.0,0.0,0.0,0.0,0.0,0.0,0.0,0.0,0.0,0.0,0.0,0.0,0.0,0.0,0.0,0.0,0.0,0.0,0.0,0.0,0.0,0.0,0.0,0.0,-5.7103,-5.6731,-5.6089,-5.6021,-5.5919,-5.5716,0.0,0.0,0.0,0.0,0.0,0.0,0.0,0.0,0.0,0.0,0.0,0.0,0.0,0.0,0.0,0.0,0.0,0.0,0.0,0.0,0.0,0.0,0.0,0.0,0.0,0.0,0.0,0.0,0.0,0.0,0.0,0.0,0.0,0.0,0.0,0.0,0.0,0.0,0.0,0.0,0.0,0.0,0.0,0.0,0.0,0.0,0.0,0.0,0.0,0.0,0.0,0.0,0.0,0.0,0.0,0.0,0.0,0.0,0.0,0.0,0.0,0.0,0.0,0.0,0.0,0.0,0.0,0.0,0.0,0.0,0.0,0.0,0.0,0.0,0.0,0.0,0.0,0.0,0.0,0.0,0.0,0.0,0.0,0.0,0.0,0.0,0.0,0.0,0.0,0.0,0.0,0.0,0.0,0.0,0.0,0.0,0.0,0.0,0.0,0.0,0.0,0.0,0.0,0.0,0.0,0.0,0.0,0.0,-5.7814,-5.7814,-5.7476,-5.6765,-5.6765,-5.6427,0.0,0.0,0.0,0.0,0.0,0.0,0.0,0.0,0.0,0.0,0.0,0.0,0.0,0.0,0.0,0.0,0.0,0.0,0.0,0.0,0.0,0.0,0.0,0.0,0.0,0.0,0.0,0.0,0.0,0.0,0.0,0.0,0.0,0.0,0.0,0.0,0.0,0.0,0.0,0.0,0.0,0.0,0.0,0.0,0.0,0.0,0.0,0.0,0.0,0.0,0.0,0.0,0.0,0.0,0.0,0.0,0.0,0.0,0.0,0.0,0.0,0.0,0.0,0.0,0.0,0.0,0.0,0.0,0.0,0.0,0.0,0.0,0.0,0.0,0.0,0.0,0.0,0.0,0.0,0.0,0.0,0.0,0.0,0.0,0.0,0.0,0.0,0.0,0.0,0.0,0.0,0.0,0.0,0.0,0.0,0.0,0.0,0.0,0.0,0.0,0.0,0.0,0.0,0.0,0.0,0.0,0.0,0.0,0.0,-5.7881,-5.7881,-5.7746,-5.7509,-5.7509,-5.7374,0.0,0.0,0.0,0.0,0.0,0.0,0.0,0.0,0.0,0.0,0.0,0.0,0.0,0.0,0.0,0.0,0.0,0.0,0.0,0.0,0.0,0.0,0.0,0.0,0.0,0.0,0.0,0.0,0.0,0.0,0.0,0.0,0.0,0.0,0.0,0.0,0.0,0.0,0.0,0.0,0.0,0.0,0.0,0.0,0.0,0.0,0.0,0.0,0.0,0.0,0.0,0.0,0.0,0.0,0.0,0.0,0.0,0.0,0.0,0.0,0.0,0.0,0.0,0.0,0.0,0.0,0.0,0.0,0.0,0.0,0.0,0.0,0.0,0.0,0.0,0.0,0.0,0.0,0.0,0.0,0.0,0.0,0.0,0.0,0.0,0.0,0.0,0.0,0.0,0.0,0.0,0.0,0.0,0.0,0.0,0.0,0.0,0.0,0.0,0.0,0.0,0.0,0.0,0.0,0.0,0.0,0.0,0.0,0.0,-5.7881,0.0,-5.7881,-5.7881,-5.7881,-5.7881,0.0,0.0,0.0,0.0,0.0,0.0,0.0,0.0,0.0,0.0,0.0,0.0,0.0,0.0,0.0,0.0,0.0,0.0,0.0,0.0,0.0,0.0,0.0,0.0,0.0,0.0,0.0,0.0,0.0,0.0,0.0,0.0,0.0,0.0,0.0,0.0,0.0,0.0,0.0,0.0,0.0,0.0,0.0,0.0,0.0,0.0,0.0,0.0,0.0,0.0,0.0,0.0,0.0,0.0,0.0,0.0,0.0,0.0,0.0,0.0,0.0,0.0,0.0,0.0,0.0,0.0,0.0,0.0,0.0,0.0,0.0,0.0,0.0,0.0,0.0,0.0,0.0,0.0,0.0,0.0,0.0,0.0,0.0,0.0,0.0,0.0,0.0,0.0,0.0,0.0,0.0,0.0,0.0,0.0,0.0,0.0,0.0,0.0,0.0,0.0,0.0,0.0,0.0,0.0,0.0,0.0,0.0,0.0,-5.7881,-5.7881,-5.7881,-5.7881,-5.7881,-5.7881,-5.7881,0.0,0.0,0.0,0.0,0.0,0.0,0.0,0.0,0.0,0.0,0.0,0.0,0.0,0.0,0.0,0.0,0.0,0.0,0.0,0.0,0.0,0.0,0.0,0.0,0.0,0.0,0.0,0.0,0.0,0.0,0.0,0.0,0.0,0.0,0.0,0.0,0.0,0.0,0.0,0.0,0.0,0.0,0.0,0.0,0.0,0.0,0.0,0.0,0.0,0.0,0.0,0.0,0.0,0.0,0.0,0.0,0.0,0.0,0.0,0.0,0.0,0.0,0.0,0.0,0.0,0.0,0.0,0.0,0.0,0.0,0.0,0.0,0.0,0.0,0.0,0.0,0.0,0.0,0.0,0.0,0.0,0.0,0.0,0.0,0.0,0.0,0.0,0.0,0.0,0.0,0.0,0.0,0.0,0.0,0.0,0.0,0.0,0.0,0.0,0.0,0.0,0.0,0.0,0.0,0.0,0.0,0.0,0.0,0.0,-5.7881,-5.7881,-5.7881,-5.7881,-5.7881,-5.7881,0.0,0.0,0.0,0.0,0.0,0.0,0.0,0.0,0.0,0.0,0.0,0.0,0.0,0.0,0.0,0.0,0.0,0.0,0.0,0.0,0.0,0.0,0.0,0.0,0.0,0.0,0.0,0.0,0.0,0.0,0.0,0.0,0.0,0.0,0.0,0.0,0.0,0.0,0.0,0.0,0.0,0.0,0.0,0.0,0.0,0.0,0.0,0.0,0.0,0.0,0.0,0.0,0.0,0.0,0.0,0.0,0.0,0.0,0.0,0.0,0.0,0.0,0.0,0.0,0.0,0.0,0.0,0.0,0.0,0.0,0.0,0.0,0.0,0.0,0.0,0.0,0.0,0.0,0.0,0.0,0.0,0.0,0.0,0.0,0.0,0.0,0.0,0.0,0.0,0.0,0.0,0.0,0.0,0.0,0.0,0.0,0.0,0.0,0.0,0.0,0.0,0.0,0.0,0.0,0.0,0.0,0.0,0.0,0.0,-5.7881,-5.7881,-5.7881,-5.7881,-5.7881,-5.7845,-5.7772,0.0,0.0,0.0,0.0,0.0,0.0,0.0,0.0,0.0,0.0,0.0,0.0,0.0,0.0,0.0,0.0,0.0,0.0,0.0,0.0,0.0,0.0,0.0,0.0,0.0,0.0,0.0,0.0,0.0,0.0,0.0,0.0,0.0,0.0,0.0,0.0,0.0,0.0,0.0,0.0,0.0,0.0,0.0,0.0,0.0,0.0,0.0,0.0,0.0,0.0,0.0,0.0,0.0,0.0,0.0,0.0,0.0,0.0,0.0,0.0,0.0,0.0,0.0,0.0,0.0,0.0,0.0,0.0,0.0,0.0,0.0,0.0,0.0,0.0,0.0,0.0,0.0,0.0,0.0,0.0,0.0,0.0,0.0,0.0,0.0,0.0,0.0,0.0,0.0,0.0,0.0,0.0,0.0,0.0,0.0,0.0,0.0,0.0,0.0,0.0,0.0,0.0,0.0,0.0,0.0,0.0,0.0,0.0,-5.7881,-5.7881,-5.7881,-5.7881,-5.7881,-5.7772,0.0,0.0,0.0,0.0,0.0,0.0,0.0,0.0,0.0,0.0,0.0,0.0,0.0,0.0,0.0,0.0,0.0,0.0,0.0,0.0,0.0,0.0,0.0,0.0,0.0,0.0,0.0,0.0,0.0,0.0,0.0,0.0,0.0,0.0,0.0,0.0,0.0,0.0,0.0,0.0,0.0,0.0,0.0,0.0,0.0,0.0,0.0,0.0,0.0,0.0,0.0,0.0,0.0,0.0,0.0,0.0,0.0,0.0,0.0,0.0,0.0,0.0,0.0,0.0,0.0,0.0,0.0,0.0,0.0,0.0,0.0,0.0,0.0,0.0,0.0,0.0,0.0,0.0,0.0,0.0,0.0,0.0,0.0,0.0,0.0,0.0,0.0,0.0,0.0,0.0,0.0,0.0,0.0,0.0,0.0,0.0,0.0,0.0,0.0,0.0,0.0,0.0,0.0,0.0,0.0,0.0,0.0,0.0,0.0,-5.7881,-5.7881,-5.7881,-5.7881,-5.7735,-5.7662,0.0,0.0,0.0,0.0,0.0,0.0,0.0,0.0,0.0,0.0,0.0,0.0,0.0,0.0,0.0,0.0,0.0,0.0,0.0,0.0,0.0,0.0,0.0,0.0,0.0,0.0,0.0,0.0,0.0,0.0,0.0,0.0,0.0,0.0,0.0,0.0,0.0,0.0,0.0,0.0,0.0,0.0,0.0,0.0,0.0,0.0,0.0,0.0,0.0,0.0,0.0,0.0,0.0,0.0,0.0,0.0,0.0,0.0,0.0,0.0,0.0,0.0,0.0,0.0,0.0,0.0,0.0,0.0,0.0,0.0,0.0,0.0,0.0,0.0,0.0,0.0,0.0,0.0,0.0,0.0,0.0,0.0,0.0,0.0,0.0,0.0,0.0,0.0,0.0,0.0,0.0,0.0,0.0,0.0,0.0,0.0,0.0,0.0,0.0,0.0,0.0,0.0,0.0,0.0,0.0,0.0,0.0,0.0,-5.7881,-5.7881,-5.7881,-5.7845,-5.7772,-5.7662,-5.7476,0.0,0.0,0.0,0.0,0.0,0.0,0.0,0.0,0.0,0.0,0.0,0.0,0.0,0.0,0.0,0.0,0.0,0.0,0.0,0.0,0.0,0.0,0.0,0.0,0.0,0.0,0.0,0.0,0.0,0.0,0.0,0.0,0.0,0.0,0.0,0.0,0.0,0.0,0.0,0.0,0.0,0.0,0.0,0.0,0.0,0.0,0.0,0.0,0.0,0.0,0.0,0.0,0.0,0.0,0.0,0.0,0.0,0.0,0.0,0.0,0.0,0.0,0.0,0.0,0.0,0.0,0.0,0.0,0.0,0.0,0.0,0.0,0.0,0.0,0.0,0.0,0.0,0.0,0.0,0.0,0.0,0.0,0.0,0.0,0.0,0.0,0.0,0.0,0.0,0.0,0.0,0.0,0.0,0.0,0.0,0.0,0.0,0.0,0.0,0.0,0.0,0.0,0.0,0.0,0.0,0.0,0.0,0.0,-5.7881,-5.7881,-5.7881,-5.7772,-5.7588,-5.7551,-5.7289,0.0,0.0,0.0,0.0,0.0,0.0,0.0,0.0,0.0,0.0,0.0,0.0,0.0,0.0,0.0,0.0,0.0,0.0,0.0,0.0,0.0,0.0,0.0,0.0,0.0,0.0,0.0,0.0,0.0,0.0,0.0,0.0,0.0,0.0,0.0,0.0,0.0,0.0,0.0,0.0,0.0,0.0,0.0,0.0,0.0,0.0,0.0,0.0,0.0,0.0,0.0,0.0,0.0,0.0,0.0,0.0,0.0,0.0,0.0,0.0,0.0,0.0,0.0,0.0,0.0,0.0,0.0,0.0,0.0,0.0,0.0,0.0,0.0,0.0,0.0,0.0,0.0,0.0,0.0,0.0,0.0,0.0,0.0,0.0,0.0,0.0,0.0,0.0,0.0,0.0,0.0,0.0,0.0,0.0,0.0,0.0,0.0,0.0,0.0,0.0,0.0,0.0,0.0,0.0,0.0,0.0,0.0,0.0,-5.7881,-5.7881,-5.7881,-5.7735,-5.7364,-5.7364,-5.7139,0.0,0.0,0.0,0.0,0.0,0.0,0.0,0.0,0.0,0.0,0.0,0.0,0.0,0.0,0.0,0.0,0.0,0.0,0.0,0.0,0.0,0.0,0.0,0.0,0.0,0.0,0.0,0.0,0.0,0.0,0.0,0.0,0.0,0.0,0.0,0.0,0.0,0.0,0.0,0.0,0.0,0.0,0.0,0.0,0.0,0.0,0.0,0.0,-4.9018,0.0,0.0,0.0,0.0,0.0,0.0,0.0,0.0,0.0,0.0,0.0,0.0,0.0,0.0,0.0,0.0,0.0,0.0,0.0,0.0,0.0,0.0,0.0,0.0,0.0,0.0,0.0,0.0,0.0,0.0,0.0,0.0,0.0,0.0,0.0,0.0,0.0,0.0,0.0,0.0,0.0,0.0,0.0,0.0,0.0,0.0,0.0,0.0,0.0,0.0,0.0,0.0,0.0,0.0,0.0,0.0,0.0,0.0,0.0,-5.7881,-5.7881,-5.7808,-5.7625,-5.7327,-5.7101,-5.6834,0.0,0.0,0.0,0.0,0.0,0.0,0.0,0.0,0.0,0.0,0.0,0.0,0.0,0.0,0.0,0.0,0.0,0.0,0.0,0.0,0.0,0.0,0.0,0.0,0.0,0.0,0.0,0.0,0.0,0.0,0.0,0.0,0.0,0.0,0.0,0.0,0.0,0.0,0.0,0.0,0.0,0.0,0.0,0.0,0.0,0.0,0.0,0.0,0.0,0.0,0.0,0.0,0.0,0.0,0.0,0.0,0.0,0.0,0.0,0.0,0.0,0.0,0.0,0.0,0.0,0.0,0.0,0.0,0.0,0.0,0.0,0.0,0.0,0.0,0.0,0.0,0.0,0.0,0.0,0.0,0.0,0.0,0.0,0.0,0.0,0.0,0.0,0.0,0.0,0.0,0.0,0.0,0.0,0.0,0.0,0.0,0.0,0.0,0.0,0.0,0.0,0.0,0.0,0.0,0.0,0.0,0.0,-5.7881,-5.7881,-5.7881,-5.7698,-5.7514,-5.7252,-5.6872,-5.6447,-5.6006,0.0,0.0,0.0,0.0,0.0,0.0,0.0,0.0,0.0,0.0,0.0,0.0,0.0,0.0,0.0,0.0,0.0,0.0,0.0,0.0,0.0,0.0,0.0,0.0,0.0,0.0,0.0,0.0,0.0,0.0,0.0,0.0,0.0,0.0,0.0,0.0,0.0,0.0,-4.8483,-4.842,0.0,0.0,0.0,0.0,0.0,0.0,0.0,0.0,-4.8483,0.0,0.0,0.0,0.0,0.0,0.0,0.0,0.0,0.0,0.0,0.0,0.0,0.0,0.0,0.0,0.0,0.0,0.0,0.0,0.0,0.0,0.0,0.0,0.0,0.0,0.0,0.0,0.0,0.0,0.0,0.0,0.0,0.0,0.0,0.0,0.0,0.0,0.0,0.0,0.0,0.0,0.0,0.0,0.0,0.0,0.0,0.0,0.0,0.0,0.0,0.0,0.0,0.0,0.0,0.0,0.0,-5.7881,-5.7881,-5.7881,-5.7881,-5.7698,-5.7402,-5.7063,-5.6641,-5.6132,-5.5531,0.0,0.0,0.0,0.0,0.0,0.0,0.0,0.0,0.0,0.0,0.0,0.0,0.0,0.0,0.0,0.0,0.0,0.0,0.0,0.0,0.0,0.0,0.0,0.0,0.0,0.0,0.0,0.0,0.0,0.0,0.0,0.0,0.0,0.0,0.0,0.0,0.0,0.0,0.0,-4.813,-4.7935,0.0,0.0,0.0,0.0,0.0,0.0,0.0,0.0,-4.8515,0.0,0.0,0.0,0.0,0.0,0.0,0.0,0.0,0.0,0.0,0.0,0.0,0.0,0.0,0.0,0.0,0.0,0.0,0.0,0.0,0.0,0.0,0.0,0.0,0.0,0.0,0.0,0.0,0.0,0.0,0.0,0.0,0.0,0.0,0.0,0.0,0.0,0.0,0.0,0.0,0.0,0.0,0.0,0.0,0.0,0.0,0.0,0.0,0.0,0.0,0.0,0.0,0.0,0.0,0.0,-5.7735,-5.7735,-5.7698,-5.7588,-5.7289,-5.7025,-5.6834,-5.6211,-5.5653,0.0,0.0,0.0,0.0,0.0,0.0,0.0,0.0,0.0,0.0,0.0,0.0,0.0,0.0,0.0,0.0,0.0,0.0,0.0,0.0,0.0,0.0,0.0,0.0,0.0,0.0,0.0,0.0,0.0,0.0,0.0,0.0,0.0,0.0,0.0,0.0,0.0,0.0,0.0,0.0,-4.7737,-4.7671,-4.7836,0.0,0.0,0.0,0.0,0.0,0.0,-4.7968,-4.8,0.0,0.0,0.0,0.0,0.0,0.0,0.0,0.0,0.0,0.0,0.0,0.0,0.0,0.0,0.0,0.0,0.0,0.0,0.0,0.0,0.0,0.0,0.0,0.0,0.0,0.0,0.0,0.0,0.0,0.0,0.0,0.0,0.0,0.0,0.0,0.0,0.0,0.0,0.0,0.0,0.0,0.0,0.0,0.0,0.0,0.0,0.0,0.0,0.0,0.0,0.0,0.0,0.0,0.0,0.0,-5.7588,-5.7551,-5.7439,-5.7252,-5.6872,-5.6641,-5.6486,-5.5774,-5.5246,0.0,0.0,0.0,0.0,0.0,0.0,0.0,0.0,0.0,0.0,0.0,0.0,0.0,0.0,0.0,0.0,0.0,0.0,0.0,0.0,0.0,0.0,0.0,0.0,0.0,0.0,0.0,0.0,0.0,0.0,0.0,0.0,0.0,0.0,0.0,0.0,0.0,0.0,0.0,0.0,0.0,-4.7301,-4.7335,-4.7267,0.0,0.0,0.0,0.0,-4.7369,-4.7369,0.0,0.0,0.0,0.0,0.0,0.0,0.0,0.0,0.0,0.0,0.0,0.0,0.0,0.0,0.0,0.0,0.0,0.0,0.0,0.0,0.0,0.0,0.0,0.0,0.0,0.0,0.0,0.0,0.0,0.0,0.0,0.0,0.0,0.0,0.0,0.0,0.0,0.0,0.0,0.0,0.0,0.0,0.0,0.0,0.0,0.0,0.0,0.0,0.0,0.0,0.0,0.0,0.0,0.0,0.0,0.0,-5.7588,-5.7439,-5.7214,-5.7025,-5.6834,-5.6408,-5.5821,-5.5531,-5.5122,0.0,0.0,0.0,0.0,0.0,0.0,0.0,0.0,0.0,0.0,0.0,0.0,0.0,0.0,0.0,0.0,0.0,0.0,0.0,0.0,0.0,0.0,0.0,0.0,0.0,0.0,0.0,0.0,0.0,0.0,0.0,0.0,0.0,0.0,0.0,0.0,0.0,0.0,0.0,0.0,0.0,-4.6509,-4.6652,-4.6545,-4.6509,0.0,0.0,-4.6756,-4.6961,-4.6961,0.0,0.0,0.0,0.0,0.0,0.0,0.0,0.0,0.0,0.0,0.0,0.0,0.0,0.0,0.0,0.0,0.0,0.0,0.0,0.0,0.0,0.0,0.0,0.0,0.0,0.0,0.0,0.0,0.0,0.0,0.0,0.0,0.0,0.0,0.0,0.0,0.0,0.0,0.0,0.0,0.0,0.0,0.0,0.0,0.0,0.0,0.0,0.0,0.0,0.0,0.0,0.0,0.0,0.0,0.0,-5.7327,-5.7101,-5.6987,-5.6757,-5.6257,-5.6093,-5.5774,-5.5369,-5.504,-5.4665,0.0,0.0,0.0,0.0,0.0,0.0,0.0,0.0,0.0,0.0,0.0,0.0,0.0,0.0,0.0,0.0,0.0,0.0,0.0,0.0,0.0,0.0,0.0,0.0,0.0,0.0,0.0,0.0,0.0,0.0,0.0,0.0,0.0,0.0,0.0,0.0,0.0,0.0,0.0,0.0,0.0,0.0,-4.6439,-4.6369,0.0,0.0,0.0,-4.6474,-4.6545,0.0,0.0,0.0,0.0,0.0,0.0,0.0,0.0,0.0,0.0,0.0,0.0,0.0,0.0,0.0,0.0,0.0,0.0,0.0,0.0,0.0,0.0,0.0,0.0,0.0,0.0,0.0,0.0,0.0,0.0,0.0,0.0,0.0,0.0,0.0,0.0,0.0,0.0,0.0,0.0,0.0,0.0,0.0,0.0,0.0,0.0,0.0,0.0,0.0,0.0,0.0,0.0,0.0,0.0,0.0,0.0,0.0,-5.6674,-5.6525,-5.6211,-5.5653,-5.5409,-5.5164,-5.4864,-5.4497,0.0,0.0,0.0,0.0,0.0,0.0,0.0,0.0,0.0,0.0,0.0,0.0,0.0,0.0,0.0,0.0,0.0,0.0,0.0,0.0,0.0,0.0,0.0,0.0,0.0,0.0,0.0,-4.5495,0.0,0.0,0.0,0.0,0.0,0.0,0.0,0.0,0.0,0.0,0.0,0.0,0.0,0.0,-4.6379,-4.6187,-4.6187,-4.6156,0.0,0.0,-4.6187,-4.6156,-4.612,-4.6116,0.0,0.0,0.0,0.0,0.0,0.0,0.0,0.0,0.0,0.0,0.0,0.0,0.0,0.0,0.0,0.0,0.0,0.0,0.0,0.0,0.0,0.0,0.0,0.0,0.0,0.0,0.0,0.0,0.0,0.0,0.0,0.0,0.0,0.0,0.0,0.0,0.0,0.0,0.0,0.0,0.0,0.0,0.0,0.0,0.0,0.0,0.0,0.0,0.0,0.0,0.0,0.0,0.0,0.0,0.0,-5.6441,-5.5974,-5.5653,-5.5409,-5.5237,-5.4822,-5.4189,-5.4146,-5.3899,0.0,0.0,0.0,0.0,0.0,0.0,0.0,0.0,0.0,0.0,0.0,0.0,0.0,0.0,0.0,0.0,0.0,0.0,0.0,0.0,0.0,0.0,0.0,0.0,0.0,0.0,0.0,0.0,0.0,0.0,0.0,0.0,0.0,0.0,0.0,0.0,0.0,0.0,0.0,0.0,0.0,-4.6524,-4.5923,-4.5828,-4.5859,0.0,0.0,-4.5859,-4.5859,-4.5677,-4.5568,-4.5536,0.0,0.0,0.0,0.0,0.0,0.0,0.0,0.0,0.0,0.0,0.0,0.0,0.0,0.0,0.0,0.0,0.0,0.0,0.0,0.0,0.0,0.0,0.0,0.0,0.0,0.0,0.0,0.0,0.0,0.0,0.0,0.0,0.0,0.0,0.0,0.0,0.0,0.0,0.0,0.0,0.0,0.0,0.0,0.0,0.0,0.0,0.0,0.0,0.0,0.0,0.0,0.0,0.0,-5.6013,-5.5774,-5.5336,-5.4925,-5.4581,-5.437,-5.4071,-5.3683,-5.364,-5.354,0.0,0.0,0.0,0.0,0.0,0.0,0.0,0.0,0.0,0.0,0.0,0.0,0.0,0.0,0.0,0.0,0.0,0.0,0.0,0.0,0.0,0.0,0.0,0.0,0.0,0.0,0.0,0.0,-4.461,-4.461,-4.461,0.0,0.0,0.0,0.0,0.0,0.0,0.0,0.0,0.0,0.0,-4.7076,-4.6711,-4.6755,0.0,0.0,-4.635,-4.6266,-4.5886,-4.5641,-4.5499,-4.5499,-4.5389,0.0,0.0,0.0,0.0,0.0,0.0,0.0,0.0,0.0,0.0,0.0,0.0,0.0,0.0,0.0,0.0,0.0,0.0,0.0,0.0,0.0,0.0,0.0,0.0,0.0,0.0,0.0,0.0,0.0,0.0,0.0,0.0,0.0,0.0,0.0,0.0,0.0,0.0,0.0,0.0,0.0,0.0,0.0,0.0,0.0,0.0,0.0,0.0,0.0,0.0,0.0,0.0,-5.5409,-5.5237,-5.479,-5.438,-5.4103,-5.377,-5.3509,-5.3321,-5.3321,-5.3233,0.0,0.0,0.0,0.0,0.0,0.0,0.0,0.0,0.0,0.0,0.0,0.0,0.0,0.0,0.0,0.0,0.0,0.0,0.0,0.0,0.0,0.0,0.0,0.0,0.0,0.0,0.0,0.0,-4.4756,-4.488,-4.488,0.0,0.0,0.0,0.0,0.0,0.0,0.0,0.0,0.0,0.0,-4.7606,-4.7232,-4.7317,-4.7237,-4.6767,-4.6856,-4.668,-4.6019,-4.5739,-4.5565,-4.5346,0.0,0.0,0.0,0.0,0.0,0.0,0.0,0.0,0.0,0.0,0.0,0.0,0.0,0.0,0.0,0.0,0.0,0.0,0.0,0.0,0.0,0.0,0.0,0.0,0.0,0.0,0.0,0.0,0.0,0.0,-5.3421,0.0,0.0,0.0,0.0,0.0,0.0,0.0,0.0,0.0,0.0,0.0,0.0,0.0,0.0,0.0,0.0,0.0,0.0,0.0,0.0,0.0,0.0,-5.4989,-5.4813,-5.4359,-5.4103,-5.406,-5.364,-5.329,-5.3131,-5.3131,-5.2997,-5.2729,0.0,0.0,0.0,0.0,0.0,0.0,0.0,0.0,0.0,0.0,0.0,0.0,0.0,0.0,0.0,0.0,0.0,0.0,0.0,0.0,0.0,0.0,0.0,0.0,0.0,0.0,-4.4664,-4.5157,-4.5557,0.0,0.0,0.0,0.0,0.0,0.0,0.0,0.0,0.0,0.0,-4.8292,-4.8012,-4.7318,-4.7232,-4.7263,-4.72,-4.72,-4.6951,-4.6334,-4.6019,-4.5687,0.0,0.0,0.0,0.0,0.0,0.0,0.0,0.0,0.0,0.0,0.0,0.0,0.0,0.0,0.0,0.0,0.0,0.0,0.0,0.0,0.0,0.0,0.0,0.0,0.0,0.0,0.0,-5.4487,-5.3992,0.0,0.0,0.0,0.0,0.0,0.0,0.0,0.0,0.0,0.0,0.0,-5.3726,-5.3726,0.0,0.0,0.0,0.0,0.0,0.0,0.0,0.0,0.0,0.0,0.0,0.0,-5.4401,-5.4316,-5.3714,-5.3409,-5.3409,-5.31,-5.2877,-5.2833,-5.2833,-5.2819,-5.2698,0.0,0.0,0.0,0.0,0.0,0.0,0.0,0.0,0.0,0.0,0.0,0.0,0.0,0.0,0.0,0.0,0.0,0.0,0.0,0.0,0.0,0.0,0.0,0.0,0.0,-4.5495,0.0,0.0,0.0,0.0,0.0,0.0,0.0,0.0,0.0,0.0,0.0,-4.9157,-4.8808,-4.8777,-4.8602,-4.8161,-4.8283,-4.8208,0.0,0.0,0.0,0.0,0.0,0.0,0.0,0.0,0.0,0.0,0.0,0.0,0.0,0.0,-4.6304,-4.615,-4.6383,-4.6421,-4.5928,0.0,0.0,0.0,0.0,0.0,0.0,0.0,0.0,0.0,0.0,0.0,0.0,0.0,0.0,0.0,0.0,-5.4175,0.0,0.0,0.0,0.0,0.0,0.0,0.0,0.0,-5.405,-5.4095,-5.4095,-5.4095,-5.4095,0.0,-5.4006,-5.4184,0.0,0.0,0.0,0.0,0.0,0.0,0.0,0.0,-5.3982,-5.419,-5.3694,-5.352,-5.3768,-5.3542,-5.3314,-5.3067,-5.2821,-5.2729,-5.2729,-5.2729,-5.2729,0.0,0.0,0.0,0.0,0.0,0.0,0.0,0.0,0.0,0.0,0.0,0.0,0.0,0.0,0.0,0.0,0.0,0.0,0.0,0.0,0.0,0.0,0.0,-4.5588,0.0,0.0,0.0,0.0,0.0,0.0,0.0,0.0,0.0,-4.8841,-4.8965,-4.9006,-4.8883,-4.8841,-4.88,-4.8604,0.0,0.0,0.0,0.0,0.0,0.0,0.0,-4.7079,-4.6832,-4.6352,-4.5926,-4.5957,-4.5935,-4.5821,-4.5609,0.0,0.0,-4.6255,-4.6401,-4.6484,-4.6223,-4.6157,-4.5978,-4.5496,-4.5484,-4.5466,0.0,0.0,0.0,0.0,0.0,0.0,0.0,0.0,-5.5317,-5.5178,0.0,-5.4854,0.0,0.0,0.0,0.0,0.0,-5.4931,0.0,0.0,-5.5268,-5.5391,-5.536,-5.536,-5.5391,-5.536,-5.5162,-5.5162,-5.5297,-5.405,0.0,0.0,0.0,0.0,0.0,0.0,-5.3752,-5.4407,-5.4245,-5.4419,-5.5024,-5.4792,-5.4345,-5.3714,-5.3098,-5.276,-5.2729,-5.2729,-5.2698,-5.2698,-5.2667,0.0,0.0,0.0,0.0,0.0,0.0,0.0,0.0,0.0,0.0,0.0,0.0,0.0,0.0,0.0,0.0,0.0,0.0,0.0,0.0,-4.5557,0.0,0.0,0.0,0.0,0.0,0.0,0.0,0.0,0.0,0.0,-4.8604,-4.8604,-4.8604,-4.8604,0.0,0.0,0.0,0.0,-4.8604,-4.8604,-4.8604,-4.8389,-4.7742,-4.7619,-4.7434,-4.6788,0.0,0.0,-4.6603,-4.6928,-4.6982,-4.6358,-4.6723,-4.6939,-4.6298,-4.6574,-4.6666,-4.6016,-4.619,-4.6257,-4.592,-4.5849,-4.5941,-5.9849,0.0,0.0,0.0,0.0,-5.8421,-5.7921,-5.7126,-5.703,-5.6426,-5.5501,-5.5454,0.0,0.0,0.0,0.0,0.0,0.0,-5.4823,-5.4823,-5.4869,-5.4916,-5.4885,-5.4885,-5.4916,-5.4916,-5.4823,-5.4962,-5.5162,-5.4606,-5.4309,-5.4215,0.0,0.0,0.0,0.0,-5.42,-5.4851,-5.4684,-5.4638,-5.4823,-5.473,-5.4375,-5.3745,-5.3529,-5.3221,-5.2729,-5.2729,-5.2483,-5.2021,-5.199,0.0,0.0,0.0,0.0,0.0,0.0,0.0,0.0,0.0,0.0,0.0,0.0,0.0,0.0,0.0,0.0,0.0,0.0,0.0,-4.501,-4.5311,-4.5772,0.0,0.0,0.0,0.0,0.0,0.0,0.0,0.0,0.0,-4.8604,-4.8604,-4.8604,0.0,0.0,-4.8604,-4.8604,-4.8604,-4.8604,-4.8604,0.0,0.0,0.0,-4.8327,-4.8266,-4.805,-4.765,-4.7157,-4.6665,-4.6959,-4.7169,-4.6951,-4.7334,-4.7605,-4.7421,-4.6969,-4.6652,-4.6429,-4.6703,-4.678,-4.6323,-4.6353,-4.6475,-6.1257,-6.073,-5.9644,-5.916,-5.9043,-5.9043,-5.8696,-5.8177,-5.8177,-5.7685,-5.6915,-5.6915,-5.6546,-5.593,-5.5653,0.0,0.0,0.0,-5.553,-5.553,-5.553,-5.553,-5.553,-5.553,-5.553,-5.553,-5.553,-5.5625,-5.5766,-5.53,-5.5054,-5.4868,0.0,0.0,-5.4495,-5.439,-5.4684,-5.5302,-5.5146,-5.5253,-5.553,-5.5253,-5.4914,-5.4514,-5.4022,-5.3529,-5.3129,-5.2852,-5.2513,-5.2113,-5.2113,-5.2113,0.0,0.0,0.0,0.0,0.0,0.0,0.0,0.0,0.0,0.0,0.0,-5.1251,-5.0174,0.0,0.0,0.0,-4.7004,-4.6265,-4.5464,-4.5988,0.0,0.0,0.0,0.0,0.0,0.0,0.0,-4.9004,-4.9035,-4.9158,-4.9404,-4.9435,-4.9343,-4.9066,-4.9035,-4.9127,-4.9404,0.0,-4.9435,-4.9435,-4.9435,-4.9435,-4.9435,-4.9435,-4.9435,-4.9435,-4.8881,-4.8327,-4.7927,-4.7902,-4.7822,-4.7582,-4.7793,-4.7956,-4.7642,-4.7231,-4.6929,-4.6817,-4.6808,-4.673,-4.6547,-4.6716,-4.6815,-6.2887,-6.2671,-6.0178,-5.9131,-5.9101,-5.9101,-5.9039,-5.8947,-5.8947,-5.8885,-5.8793,-5.8793,-5.8423,-5.7857,-5.7241,0.0,-5.6964,-5.6964,-5.6964,-5.6964,-5.6994,-5.6964,-5.6964,-5.6964,-5.6964,-5.6964,-5.6964,-5.6964,-5.6933,-5.6207,-5.5869,-5.5838,-5.5222,-5.4806,-5.4775,-5.4775,-5.513,-5.5776,-5.5776,-5.6163,-5.6779,-5.6115,-5.5745,-5.5653,-5.4514,-5.3837,-5.3714,-5.3129,-5.276,-5.2637,-5.2637,-5.2637,-5.2637,0.0,0.0,0.0,0.0,0.0,0.0,0.0,0.0,0.0,0.0,0.0,0.0,0.0,0.0,0.0,-4.7065,0.0,-4.6603,-4.7188,0.0,0.0,0.0,-4.8696,-4.8696,-4.8758,-4.9035,-4.9712,0.0,0.0,0.0,0.0,-5.0482,-4.9928,-4.9805,-4.9989,-5.0605,-5.0636,-5.0697,-5.0605,-5.0667,-5.0667,-5.0543,-5.0574,-5.0574,-5.0543,-5.0174,-4.9743,-4.9662,-4.9367,-4.8841,-4.8252,-4.8258,-4.8199,-4.7512,-4.755,-4.7491,-4.7268,-4.6793,-4.65,-4.6784,-4.6892,-4.6932,-6.3595,-6.3472,-6.2333,-6.1871,-6.1871,-6.184,-6.1255,-6.0332,-6.0301,-5.9747,-5.8793,-5.8793,-5.8751,-5.8566,-5.8412,-5.835,-5.83,-5.83,-5.835,-5.83,-5.83,-5.83,-5.83,-5.83,-5.83,-5.83,-5.835,-5.835,-5.827,-5.7641,-5.7333,-5.7254,-5.6607,-5.5992,-5.5468,-5.5468,-5.5807,-5.6563,-5.6563,-5.6656,-5.6779,-5.6625,-5.6238,-5.5684,-5.5407,-5.476,-5.3775,-5.3514,-5.3006,-5.2021,-5.1959,-5.1929,-5.1959,-5.1959,0.0,0.0,0.0,0.0,0.0,0.0,0.0,0.0,0.0,-5.1405,-5.0759,0.0,-4.9312,0.0,-4.7742,-4.7157,-4.6665,-4.7219,0.0,0.0,-4.8696,-4.9435,-4.9435,-4.9897,-5.0266,-5.0451,-5.0451,-5.0513,-5.0667,-5.0697,-5.082,-5.1128,-5.079,-5.0513,-5.0697,-5.0697,-5.0697,-5.0728,-5.0759,-5.0697,-5.0728,-5.0697,-5.0728,-5.0697,-5.0574,-5.0451,-5.0451,-5.0067,-4.9708,-4.9522,-4.9221,-4.901,-4.8792,-4.8426,-4.8122,-4.7997,-4.7435,-4.6916,-4.7025,-4.6859,-4.6719,-6.5195,-6.5134,-6.4487,-6.418,-6.4149,-6.3195,-6.2394,-6.1717,-6.1686,-6.1286,-6.0547,-5.9932,-5.9501,-5.9224,-5.8916,-5.8793,-5.8793,-5.8793,-5.8793,-5.8793,-5.8793,-5.8793,-5.8793,-5.8793,-5.8793,-5.8793,-5.8793,-5.8793,-5.8762,-5.8393,-5.8239,-5.8258,-5.7919,-5.7469,-5.7069,-5.6484,-5.6409,-5.681,-5.681,-5.681,-5.681,-5.681,-5.6625,-5.6176,-5.5838,-5.5222,-5.416,-5.3822,-5.3207,-5.2236,-5.2144,-5.2144,-5.2144,-5.2144,-5.2329,0.0,0.0,0.0,0.0,0.0,0.0,0.0,0.0,0.0,0.0,0.0,-4.9835,-4.9158,-4.9004,-4.882,-4.845,-4.8758,-4.8974,-4.8974,-4.9682,-5.0112,-5.0143,-5.0482,-5.082,-5.1128,-5.1128,-5.1251,-5.1559,-5.159,-5.1713,-5.2113,-5.1836,-5.159,-5.159,-5.159,-5.159,-5.159,-5.159,-5.159,-5.159,-5.159,-5.159,-5.1559,-5.1344,-5.1159,-5.1128,-5.066,-5.0221,-4.9954,-4.9636,-4.9347,-4.9037,-4.8808,-4.86,-4.8555,-4.8083,-4.7606,-4.734,-4.6892,-4.6602,-6.6919,-6.6858,-6.6273,-6.6027,-6.5903,-6.4026,-6.3102,-6.2948,-6.2948,-6.2887,-6.2733,-6.1563,-6.0732,-6.0147,-5.947,-5.9162,-5.9162,-5.907,-5.9039,-5.9039,-5.9039,-5.9039,-5.9039,-5.9039,-5.9039,-5.9039,-5.9039,-5.9039,-5.9039,-5.8947,-5.8916,-5.8916,-5.8824,-5.8793,-5.8731,-5.7672,-5.7025,-5.6933,-5.6933,-5.6902,-5.681,-5.681,-5.681,-5.6779,-5.6146,-5.5499,-5.4884,-5.416,-5.3514,-5.2883,-5.276,-5.2729,-5.2729,-5.2729,-5.2729,0.0,-5.2729,0.0,0.0,0.0,0.0,0.0,0.0,0.0,0.0,-5.1067,-5.0451,-4.9866,-5.0359,-5.0697,-5.0697,-5.0697,-5.0697,-5.0697,-5.0759,-5.082,-5.082,-5.0882,-5.119,-5.1775,-5.1836,-5.2052,-5.2575,-5.2729,-5.2698,-5.2667,-5.2637,-5.2575,-5.2667,-5.2637,-5.2606,-5.2729,-5.2729,-5.2544,-5.2575,-5.2637,-5.2637,-5.2606,-5.2206,-5.1836,-5.1836,-5.1282,-5.0667,-5.0112,-4.9847,-4.9508,-4.885,-4.8893,-4.8924,-4.8893,-4.8559,-4.8168,-4.7676,-4.7063,-4.6736,-6.6919,-6.6919,-6.6796,-6.6704,-6.6642,-6.5719,-6.4672,-6.3626,-6.3626,-6.3318,-6.2794,-6.2548,-6.2364,-6.2179,-6.1532,-6.1255,-6.1194,-6.0671,-6.0424,-6.0424,-6.0424,-6.0424,-6.0424,-6.0424,-6.0424,-6.0424,-6.0424,-6.0424,-6.0393,-5.987,-5.9593,-5.9593,-5.907,-5.8793,-5.8762,0.0,0.0,0.0,-5.7611,-5.7364,-5.684,-5.681,-5.681,-5.681,-5.6686,0.0,-5.553,-5.4884,-5.4191,-5.356,-5.3006,0.0,0.0,0.0,0.0,0.0,0.0,0.0,0.0,0.0,0.0,0.0,-5.2729,-5.2421,-5.1775,-5.1097,-5.0636,-5.0513,-5.0636,-5.0697,-5.0697,-5.0697,-5.0697,-5.0728,-5.119,-5.1528,-5.1528,-5.199,-5.239,-5.2483,-5.2513,-5.2544,-5.2667,-5.2729,-5.2729,-5.2729,-5.2729,-5.2729,-5.2729,-5.2729,-5.2729,-5.2729,-5.2729,-5.2729,-5.2729,-5.2729,-5.2729,-5.2698,-5.2637,-5.2513,-5.2452,-5.1959,-5.1528,-5.1251,-5.042,-4.9682,-4.9466,-4.9077,-4.8707,-4.8646,-4.8594,-4.848,-4.819,-4.7551,-4.716,-6.7873,0.0,-6.7566,-6.7412,0.0,-6.6673,-6.5996,-6.5319,-6.4641,-6.3964,-6.3318,-6.3264,-6.3133,-6.2794,-6.2456,-6.2302,-6.2302,-6.1933,-6.1779,-6.1809,-6.1779,-6.1779,-6.1779,-6.144,-6.1286,-6.1286,-6.0948,-6.0794,-6.0763,-6.0455,-6.0301,-6.027,-5.9932,-5.9778,-5.9778,-5.9778,-5.9285,-5.8319,-5.8319,-5.798,-5.7333,-5.7303,-5.7148,-5.684,0.0,0.0,0.0,0.0,0.0,0.0,0.0,0.0,0.0,0.0,0.0,-5.2729,-5.2729,-5.2729,-5.2729,-5.2729,-5.2729,-5.2729,-5.2729,-5.2421,-5.1744,-5.1682,-5.1559,-5.1251,-5.1498,-5.1682,-5.1682,-5.1682,-5.1682,-5.1713,-5.199,-5.2206,-5.2236,-5.2483,-5.2698,-5.2729,-5.2729,-5.2729,-5.2729,-5.2729,-5.2729,-5.2729,-5.2729,-5.2729,-5.2729,-5.2729,-5.2729,-5.2729,-5.2729,-5.2729,-5.2729,-5.2729,-5.2729,-5.2729,-5.2729,-5.2729,-5.2729,-5.2421,-5.2113,-5.1744,-5.1097,-5.0513,-4.9805,-4.9374,-4.9035,-4.8727,-4.8604,-4.8584,-4.8459,-4.7911,-4.7494,-6.8889,-6.8828,-6.8304,-6.8089,-6.8058,-6.7381,-6.7012,-6.6827,0.0,0.0,0.0,-6.3995,-6.3718,-6.3164,-6.3071,-6.301,-6.2979,-6.2856,-6.2825,-6.2825,-6.2825,-6.2825,-6.2794,-6.224,-6.1994,-6.1963,-6.1286,-6.0978,-6.0978,-6.0855,-6.0794,-6.0794,-6.0794,-6.0794,-6.0794,-6.0794,-6.024,-5.9193,-5.9008,-5.8639,-5.8011,-5.7839,-5.7549,-5.6994,-5.6871,-5.6484,-5.5899,-5.5745,-5.5438,-5.4914,-5.4237,-5.3899,-5.3868,-5.3252,-5.2883,-5.2883,-5.276,-5.2729,-5.2729,-5.2729,-5.2729,-5.2729,-5.2729,-5.2483,-5.1929,-5.239,-5.2483,-5.1929,-5.239,-5.2698,-5.2729,-5.2729,-5.2729,-5.2729,-5.2729,-5.2698,-5.2698,-5.2729,-5.2729,-5.2729,-5.2729,-5.2729,-5.2729,-5.2729,-5.2729,-5.2729,-5.2729,-5.2729,-5.2729,-5.2729,-5.2729,-5.2729,-5.2729,-5.2729,-5.2729,-5.2729,-5.2729,-5.2729,-5.2729,-5.2729,-5.2729,-5.2729,-5.2483,-5.2021,-5.1805,-5.1221,-5.0297,-4.9866,-4.9497,-4.8912,-4.8696,-4.8604,-4.8573,-4.8173,-4.7926,-6.8889,-6.8889,-6.8797,-6.8766,-6.8705,-6.8058,-6.7442,-6.6858,-6.6088,-6.538,-6.4734,-6.4734,-6.4703,-6.458,-6.3964,-6.3633,-6.3656,-6.3071,-6.2825,0.0,-6.2825,-6.2825,-6.2825,-6.2733,-6.2671,-6.261,-6.1994,-6.1656,-6.1594,-6.1101,-6.0794,-6.0794,-6.0794,-6.0794,-6.0794,-6.0794,-6.0701,-6.0517,-5.9932,-5.9316,-5.8689,-5.8085,-5.7765,-5.7672,-5.7118,-5.6779,-5.6607,-5.6023,-5.5653,-5.5561,-5.4945,-5.4529,-5.4529,-5.396,-5.3591,-5.356,-5.3037,-5.2729,-5.2729,-5.2729,-5.2729,-5.2729,-5.2729,-5.2667,-5.2575,-5.2667,-5.2667,-5.2575,-5.2667,-5.2729,-5.2729,-5.2729,-5.2729,-5.2729,-5.2729,-5.2729,-5.2729,-5.2729,-5.2729,-5.2729,-5.2729,-5.2729,-5.2729,-5.2729,-5.2729,-5.2729,-5.2729,-5.2729,-5.2729,-5.2729,-5.2729,-5.2729,-5.2729,-5.2729,-5.2729,-5.2729,-5.2729,-5.2729,-5.2729,-5.2729,-5.2729,-5.2729,-5.2637,-5.2575,-5.2113,-5.1682,-5.1313,-5.042,-4.9805,-4.9466,-4.9035,-4.8635,-4.8604,-4.8481,-4.8533,-6.8889,-6.8889,-6.8889,-6.8889,-6.8858,-6.8551,-6.8058,-6.7442,-6.7135,-6.6396,-6.5442,-6.5072,-6.4888,-6.4888,-6.4549,-6.4426,-6.4395,-6.4087,-6.3933,-6.3933,-6.3933,-6.3964,-6.3933,-6.351,-6.3379,-6.3318,-6.2671,-6.2364,-6.2302,-6.1686,-6.1348,-6.1317,-6.0978,-6.0794,-6.0794,-6.0794,-6.0794,-6.0794,-6.0486,-5.9993,-5.9347,-5.9039,-5.8516,-5.7857,-5.7469,-5.7179,-5.681,-5.6502,-5.6317,-5.6317,-5.5622,-5.5253,-5.5222,-5.4637,-5.4222,-5.4222,-5.3945,-5.3806,-5.3806,-5.376,-5.376,-5.376,-5.376,-5.376,-5.376,-5.3129,-5.2729,-5.2729,-5.2729,-5.2729,-5.2729,-5.2729,-5.2729,-5.2729,-5.2729,-5.2729,-5.2729,-5.2729,-5.2729,-5.2729,-5.2729,-5.2729,-5.2729,-5.2729,-5.2729,-5.2729,-5.2729,-5.2729,-5.2729,-5.2729,-5.2729,-5.2729,-5.2729,-5.2729,-5.2729,-5.2729,-5.2729,-5.2729,-5.2729,-5.2729,-5.2729,-5.2729,-5.2729,-5.2698,-5.2421,-5.2113,-5.1805,-5.0913,-5.0236,-4.9651,-4.9127,-4.8666,-4.8604,-4.8604,-4.8687,-6.8889,-6.8889,-6.8889,-6.8889,-6.8889,-6.8889,-6.8612,-6.815,-6.7997,-6.735,-6.6334,-6.5503,-6.5042,-6.4918,-6.4888,-6.4888,-6.4888,-6.4888,-6.4888,-6.4888,-6.4888,-6.4888,-6.4857,-6.4303,-6.4057,-6.3995,-6.3379,-6.3041,-6.2979,-6.2364,-6.1963,-6.1779,-6.1286,-6.0948,-6.0794,-6.0794,-6.0794,-6.0794,-6.0794,-6.0547,-6.0055,-5.987,-5.9285,-5.8381,-5.7949,-5.758,-5.7087,-5.6902,-5.681,-5.6779,-5.6286,-5.593,-5.5899,-5.5315,-5.4945,-5.4898,-5.4745,-5.4683,-5.4683,-5.4683,-5.4683,-5.4683,-5.4683,-5.4683,-5.4591,-5.3775,-5.3114,-5.316,-5.3067,-5.2975,-5.2944,-5.279,-5.2729,-5.2729,-5.2729,-5.2729,-5.2729,-5.2729,-5.2729,-5.2729,-5.2729,-5.2729,-5.2729,-5.2729,-5.2729,-5.2729,-5.2729,-5.2729,-5.2729,-5.2729,-5.2729,-5.2729,-5.2729,-5.2729,-5.2729,-5.2729,-5.2729,-5.2729,-5.2729,-5.2729,-5.2729,-5.2729,-5.2729,-5.2698,-5.2698,-5.2483,-5.199,-5.1221,-5.0574,-5.002,-4.9281,-4.8635,-4.8604,-4.8604,-4.8646,-6.8889,-6.8889,-6.8889,-6.8889,-6.8889,-6.8889,-6.8828,-6.8705,-6.8181,-6.7873,-6.7535,-6.6365,-6.5503,-6.4949,-6.4918,-6.4888,-6.4888,-6.4888,-6.4888,-6.4888,-6.4888,-6.4888,-6.4888,-6.4826,-6.4795,-6.4703,-6.4057,-6.3749,-6.3718,-6.3041,-6.2425,-6.1871,-6.1748,-6.1409,-6.0886,-6.0824,-6.0794,-6.0794,-6.0794,-6.0763,-6.0671,-6.0116,-5.9716,-5.9593,-5.8423,-5.7795,-5.7734,-5.7148,-5.681,-5.681,-5.6748,-5.6717,-5.6625,-5.5992,-5.5592,-5.5592,-5.5068,-5.4683,-5.4683,-5.4683,-5.4745,-5.4683,-5.4745,-5.4745,-5.4745,-5.4591,-5.4498,-5.4406,-5.3945,-5.3652,-5.3545,-5.3129,-5.2852,-5.2914,-5.2852,-5.2729,-5.2821,-5.2729,-5.2729,-5.2729,-5.2821,-5.2729,-5.279,-5.276,-5.2729,-5.2729,-5.2729,-5.2729,-5.2729,-5.2729,-5.2729,-5.2729,-5.2729,-5.2729,-5.2729,-5.2729,-5.2729,-5.2729,-5.2729,-5.2729,-5.2729,-5.2729,-5.2729,-5.2729,-5.2729,-5.2637,-5.2359,-5.1652,-5.0759,-5.0389,-4.9558,-4.8604,-4.8604,-4.8604,-4.8604,-6.9259,-6.8889,-6.8889,-6.8889,-6.8889,-6.8889,-6.8889,-6.8858,-6.8612,-6.8274,-6.7873,-6.7319,-6.6519,-6.5472,-6.5072,-6.4888,-6.4888,-6.4888,-6.4888,-6.4888,-6.4888,-6.4888,-6.4888,-6.4888,-6.4888,-6.4888,-6.458,-6.4457,-6.4334,-6.3749,-6.3071,-6.2456,-6.2394,-6.2056,-6.144,-6.1379,-6.1194,-6.0794,-6.0794,-6.0794,-6.0763,-6.0517,-6.0209,-5.9778,-5.9255,-5.8762,-5.8362,-5.7765,-5.7426,-5.7395,-5.7025,-5.681,-5.681,-5.6532,-5.6378,-5.63,-5.6084,-5.593,-5.593,-5.593,-5.593,-5.593,-5.593,-5.593,-5.593,-5.593,-5.593,-5.5807,-5.4976,-5.4252,-5.4299,-5.4006,-5.3853,-5.3853,-5.3853,-5.3853,-5.3899,-5.3899,-5.3899,-5.3853,-5.356,-5.3314,-5.3252,-5.2944,-5.2729,-5.2729,-5.2729,-5.2729,-5.2729,-5.2729,-5.2729,-5.2729,-5.2729,-5.2729,-5.2729,-5.2729,-5.2729,-5.2729,-5.2729,-5.2729,-5.2729,-5.2729,-5.2729,-5.2729,-5.2729,-5.2729,-5.2698,-5.2021,-5.119,-5.0667,-4.9651,-4.8604,-4.8604,-4.8604,-4.8604,-6.9597,-6.9166,-6.8982,-6.8889,-6.8889,-6.8889,-6.8889,-6.8889,-6.8889,-6.8612,-6.8181,-6.7997,-6.7412,-6.6427,-6.5565,-6.5072,-6.4918,-6.4888,-6.4888,-6.4888,-6.4888,-6.4888,-6.4888,-6.4888,-6.4888,-6.4888,-6.4888,-6.4888,-6.4857,-6.4395,-6.3779,-6.3195,-6.3102,-6.2733,-6.2148,-6.1933,-6.1563,-6.1101,-6.0886,-6.0794,-6.0794,-6.0794,-6.0547,-6.0116,-5.9901,-5.9562,-5.907,-5.8393,-5.8011,-5.7795,-5.7333,-5.6994,-5.684,-5.681,-5.681,-5.681,-5.681,-5.681,-5.681,-5.681,-5.681,-5.681,-5.681,-5.681,-5.681,-5.681,-5.681,-5.6717,-5.5869,-5.5253,-5.5007,-5.4775,-5.4683,-5.4683,-5.4683,-5.4683,-5.4652,-5.4683,-5.4621,-5.4621,-5.4191,-5.3976,-5.3899,-5.3391,-5.3037,-5.3037,-5.2852,-5.2729,-5.2729,-5.2729,-5.2729,-5.2729,-5.2729,-5.2729,-5.2729,-5.2729,-5.2729,-5.2729,-5.2729,-5.2729,-5.2729,-5.2729,-5.2729,-5.2729,-5.2729,-5.2698,-5.2637,-5.2144,-5.1344,-5.0482,-4.9497,-4.8635,-4.8604,-4.8604,-4.8604,-6.9874,-6.972,-6.9166,-6.8889,-6.8889,-6.8889,-6.8889,-6.8889,-6.8889,-6.8858,-6.8735,-6.8212,-6.7904,-6.7658,-6.6457,-6.5534,-6.498,-6.4949,-6.4918,-6.4918,-6.4888,-6.4888,-6.4888,-6.4888,-6.4888,-6.4888,-6.4888,-6.4888,-6.4888,-6.4857,-6.4487,-6.3841,-6.3779,-6.3441,-6.2794,-6.221,-6.1809,-6.1656,-6.1163,-6.0824,-6.0794,-6.0794,-6.0763,-6.064,-6.0147,-5.9809,-5.9686,-5.9101,-5.8454,-5.7857,-5.7826,-5.7518,-5.6933,-5.684,-5.681,-5.681,-5.681,-5.681,-5.681,-5.681,-5.681,-5.681,-5.681,-5.681,-5.681,-5.681,-5.681,-5.681,-5.6656,-5.6269,-5.5715,-5.5253,-5.4868,-5.4884,-5.4775,-5.4775,-5.4775,-5.4945,-5.4714,-5.4775,-5.4714,-5.4591,-5.4591,-5.4068,-5.3714,-5.3529,-5.3129,-5.2729,-5.2729,-5.2729,-5.2729,-5.2729,-5.2729,-5.2729,-5.2729,-5.2729,-5.2729,-5.2729,-5.2729,-5.2729,-5.2729,-5.2729,-5.2729,-5.2729,-5.2729,-5.2667,-5.2575,-5.2052,-5.1159,-5.0266,-4.9343,-4.8727,-4.8604,-4.8604,-4.8604,-7.0028,-6.9228,-6.8982,-6.8889,-6.8889,-6.8889,-6.8889,-6.8889,-6.8889,-6.8889,-6.8858,-6.8643,-6.8304,-6.7873,-6.7412,-6.6581,-6.5596,-6.5534,-6.5319,-6.4949,-6.4888,-6.4888,-6.4888,-6.4888,-6.4888,-6.4888,-6.4888,-6.4888,-6.4888,-6.4888,-6.4764,-6.458,-6.4518,-6.418,-6.3533,-6.3225,-6.2702,-6.1871,-6.1563,-6.1255,-6.0855,-6.0794,-6.0794,-6.0794,-6.0578,-6.0455,-6.0424,-5.9778,-5.9316,-5.907,-5.867,-5.8165,-5.7518,-5.7056,-5.681,-5.681,-5.681,-5.681,-5.681,-5.681,-5.681,-5.681,-5.681,-5.681,-5.681,-5.681,-5.681,-5.681,-5.681,-5.6656,-5.6502,-5.6146,-5.6023,-5.6023,-5.6023,-5.5992,-5.6053,-5.6023,-5.6023,-5.5961,-5.5653,-5.5222,-5.4806,-5.4468,-5.416,-5.3806,-5.3498,-5.3191,-5.2821,-5.2729,-5.276,-5.2729,-5.2729,-5.2729,-5.2729,-5.2729,-5.2729,-5.2729,-5.2729,-5.2729,-5.2729,-5.2729,-5.2729,-5.2729,-5.2729,-5.2698,-5.2606,-5.1867,-5.1005,-5.0482,-4.9528,-4.882,-4.8604,-4.8604,-4.8604,-7.0459,-6.9289,-6.9197,-6.9074,-6.8889,-6.8889,-6.8889,-6.8889,-6.8889,-6.8889,-6.8889,-6.8889,-6.8643,-6.8274,-6.8243,-6.7658,-6.6581,-6.6119,-6.5657,-6.5226,-6.5011,-6.4888,-6.4888,-6.4888,-6.4888,-6.4888,-6.4888,-6.4888,-6.4888,-6.4888,-6.4888,-6.4888,-6.4888,-6.4672,-6.421,-6.3964,-6.3264,-6.2548,-6.2056,-6.1563,-6.1163,-6.0917,-6.0794,-6.0794,-6.0794,-6.0794,-6.0794,-6.0363,-5.9993,-5.9778,-5.9347,-5.8793,-5.8196,-5.7654,-5.7457,-5.7457,-5.7223,-5.7118,-5.7087,-5.6933,-5.681,-5.681,-5.681,-5.681,-5.681,-5.681,-5.681,-5.681,-5.681,-5.681,-5.681,-5.681,-5.681,-5.681,-5.681,-5.681,-5.681,-5.6779,-5.6779,-5.6686,-5.633,-5.5869,-5.5468,-5.5191,-5.4884,-5.4422,-5.416,-5.373,-5.3221,-5.3037,-5.2914,-5.276,-5.2729,-5.2729,-5.2729,-5.2729,-5.2729,-5.2729,-5.2729,-5.2729,-5.2729,-5.2729,-5.2729,-5.2729,-5.2729,-5.2729,-5.2359,-5.1652,-5.1128,-5.0728,-4.9928,-4.9127,-4.8881,-4.8604,-4.8604,-7.1136,-6.9967,-6.9905,-6.9505,-6.9012,-6.892,-6.8889,-6.8889,-6.8889,-6.8889,-6.8889,-6.8889,-6.8858,-6.8828,-6.8766,-6.8458,-6.772,-6.6642,-6.6057,-6.5873,-6.5319,-6.5072,-6.5072,-6.5042,-6.4949,-6.4918,-6.4888,-6.4888,-6.4888,-6.4888,-6.4888,-6.4888,-6.4888,-6.4857,-6.4857,-6.4241,-6.3787,-6.3418,-6.2548,-6.1902,-6.1717,-6.1194,-6.0855,-6.0794,-6.0794,-6.0794,-6.0794,-6.0763,-6.0455,-5.9932,-5.9839,-5.947,-5.8885,-5.8639,-5.8701,-5.8516,-5.8116,-5.7857,-5.7765,-5.7303,-5.7056,-5.7025,-5.6902,-5.6933,-5.6964,-5.6871,-5.681,-5.681,-5.681,-5.681,-5.681,-5.681,-5.681,-5.681,-5.681,-5.681,-5.681,-5.681,-5.681,-5.681,-5.6717,-5.6779,-5.6577,-5.6115,-5.5653,-5.5407,-5.5037,-5.4437,-5.3868,-5.3622,-5.3375,-5.2975,-5.276,-5.2729,-5.2729,-5.2729,-5.2729,-5.2729,-5.2729,-5.2729,-5.2729,-5.2729,-5.2729,-5.2729,-5.2729,-5.2698,-5.2606,-5.1929,-5.1313,-5.079,-5.002,-4.9343,-4.8881,-4.8604,-4.8604,-7.1413,-7.0551,-7.009,-6.9782,-6.9536,-6.9074,-6.8889,-6.8889,-6.8889,-6.8889,-6.8889,-6.8889,-6.8889,-6.8889,-6.8889,-6.8766,-6.852,-6.7689,-6.7042,-6.6642,-6.6365,-6.6242,-6.618,-6.5811,-6.5349,-6.498,-6.4888,-6.4888,-6.4888,-6.4888,-6.4888,-6.4888,-6.4888,-6.4888,-6.4888,-6.4672,-6.4364,-6.3756,-6.341,-6.2794,-6.1933,-6.1625,-6.1286,-6.0855,-6.0794,-6.0794,-6.0794,-6.0794,-6.0701,-6.0486,-6.0486,-6.0178,-5.9562,-5.9039,-5.8793,-5.8812,-5.8608,-5.8485,-5.8504,-5.8319,-5.8134,-5.8054,-5.7765,-5.7549,-5.7457,-5.7087,-5.6871,-5.684,-5.681,-5.681,-5.681,-5.681,-5.681,-5.681,-5.681,-5.681,-5.681,-5.681,-5.681,-5.681,-5.681,-5.681,-5.6779,-5.6502,-5.6255,-5.5807,-5.553,-5.5161,-5.4545,-5.3976,-5.3668,-5.3406,-5.3129,-5.2729,-5.2729,-5.2729,-5.2729,-5.2729,-5.2729,-5.2729,-5.2729,-5.2729,-5.2729,-5.2729,-5.2729,-5.2667,-5.2575,-5.2236,-5.1621,-5.0944,-5.0236,-4.9558,-4.885,-4.8666,-4.8789,-7.1937,-7.1259,-7.0828,-7.0336,-6.9874,-6.9413,-6.9105,-6.892,-6.8889,-6.8889,-6.8889,-6.8889,-6.8889,-6.8889,-6.8889,-6.8889,-6.8858,-6.8458,-6.8058,-6.7566,-6.7042,-6.6919,-6.6858,-6.6488,-6.5934,-6.538,-6.5257,-6.5134,-6.4888,-6.4888,-6.4888,-6.4888,-6.4888,-6.4888,-6.4888,-6.4888,-6.4641,-6.4241,-6.3933,-6.341,-6.2671,-6.2302,-6.184,-6.1286,-6.1163,-6.104,-6.0824,-6.0794,-6.0794,-6.0794,-6.0794,-6.0578,-6.0147,-5.9778,-5.9532,-5.9501,-5.9316,-5.9162,-5.9131,-5.8885,-5.8793,-5.8701,-5.8362,-5.8196,-5.8073,-5.758,-5.721,-5.7179,-5.6964,-5.681,-5.681,-5.681,-5.681,-5.681,-5.681,-5.681,-5.681,-5.681,-5.681,-5.681,-5.681,-5.681,-5.681,-5.681,-5.6656,-5.6176,-5.6084,-5.5838,-5.5191,-5.4468,-5.4129,-5.3714,-5.3129,-5.2852,-5.2729,-5.2729,-5.2729,-5.2729,-5.2729,-5.2729,-5.2729,-5.2729,-5.2729,-5.2729,-5.2729,-5.2729,-5.2637,-5.2483,-5.2021,-5.1251,-5.0574,-5.0143,-4.9651,-4.9189,-4.9127,-7.2614,-7.206,-7.1967,-7.1198,-7.0151,-6.9936,-6.9505,-6.9043,-6.8889,-6.8889,-6.8889,-6.8889,-6.8889,-6.8889,-6.8889,-6.8889,-6.8889,-6.8858,-6.8766,-6.8427,-6.775,-6.7196,-6.7073,-6.7012,-6.6611,-6.6027,-6.5873,-6.5565,-6.5103,-6.4949,-6.4888,-6.4888,-6.4888,-6.4888,-6.4888,-6.4888,-6.4888,-6.4734,-6.421,-6.3903,-6.3687,-6.3195,-6.2548,-6.1902,-6.1871,-6.1594,-6.104,-6.0855,-6.0794,-6.0794,-6.0794,-6.0763,-6.0763,-6.0794,-6.064,-6.0609,-6.0147,-5.9901,-5.9716,-5.9408,-5.9101,-5.9101,-5.8947,-5.8824,-5.8731,-5.8239,-5.7746,-5.7654,-5.7272,-5.6902,-5.6871,-5.681,-5.681,-5.681,-5.681,-5.681,-5.681,-5.681,-5.681,-5.681,-5.681,-5.681,-5.681,-5.681,-5.6779,-5.6748,-5.6686,-5.6347,-5.5869,-5.5191,-5.4545,-5.396,-5.3406,-5.2944,-5.2852,-5.2729,-5.2729,-5.2729,-5.2729,-5.2729,-5.2729,-5.2729,-5.2729,-5.2729,-5.2729,-5.2729,-5.2667,-5.2544,-5.2236,-5.1621,-5.1128,-5.0882,-5.042,-4.9835,-4.9404,-7.2891,-7.2675,-7.2183,-7.1752,-7.129,-7.0367,-6.9813,-6.9566,-6.9074,-6.892,-6.8889,-6.8889,-6.8889,-6.8889,-6.8889,-6.8889,-6.8889,-6.8889,-6.8889,-6.8828,-6.8581,-6.8089,-6.775,-6.7658,-6.7319,-6.6673,-6.6242,-6.5811,-6.5596,-6.5165,-6.4918,-6.4888,-6.4888,-6.4888,-6.4888,-6.4888,-6.4888,-6.4888,-6.4734,-6.4303,-6.3872,-6.3687,-6.3225,-6.2641,-6.2548,-6.221,-6.1563,-6.104,-6.0794,-6.0794,-6.0794,-6.0794,-6.0794,-6.0794,-6.0794,-6.0732,-6.064,-6.0517,-6.0455,-6.0332,-6.024,-6.0209,-5.9747,-5.9532,-5.9501,-5.8916,-5.8331,-5.7931,-5.7611,-5.7364,-5.6964,-5.681,-5.681,-5.681,-5.681,-5.681,-5.681,-5.681,-5.681,-5.681,-5.681,-5.681,-5.681,-5.681,-5.681,-5.681,-5.6779,-5.6748,-5.6317,-5.5776,-5.5068,-5.4514,-5.396,-5.3345,-5.2944,-5.279,-5.2729,-5.2729,-5.2729,-5.2729,-5.2729,-5.2729,-5.2729,-5.2729,-5.2729,-5.2729,-5.2729,-5.2637,-5.2236,-5.1898,-5.1713,-5.1405,-5.0728,-5.0112,-4.9774,-7.2983,-7.2952,-7.2552,-7.2244,-7.1906,-7.1105,-7.0459,-6.9905,-6.9505,-6.9135,-6.8951,-6.8889,-6.8889,-6.8889,-6.8889,-6.8889,-6.8889,-6.8889,-6.8889,-6.8889,-6.8858,-6.8643,-6.8397,-6.8335,-6.7966,-6.7381,-6.695,-6.6457,-6.5934,-6.5503,-6.5195,-6.4949,-6.4888,-6.4888,-6.4888,-6.4888,-6.4888,-6.4888,-6.4888,-6.4672,-6.4303,-6.4272,-6.3903,-6.3379,-6.3225,-6.2918,-6.2271,-6.1594,-6.1101,-6.0886,-6.0794,-6.0794,-6.0794,-6.0794,-6.0794,-6.0794,-6.0794,-6.0794,-6.0794,-6.0794,-6.0794,-6.0732,-6.0393,-6.027,-6.0086,-5.9593,-5.8947,-5.8731,-5.8393,-5.7919,-5.7364,-5.6994,-5.684,-5.681,-5.681,-5.681,-5.681,-5.681,-5.681,-5.681,-5.681,-5.681,-5.681,-5.681,-5.681,-5.681,-5.681,-5.681,-5.6686,-5.6115,-5.5592,-5.5037,-5.4391,-5.3714,-5.3221,-5.3006,-5.276,-5.2729,-5.2729,-5.2729,-5.2729,-5.2729,-5.2729,-5.2729,-5.2729,-5.2729,-5.2729,-5.2698,-5.2544,-5.2298,-5.2175,-5.1836,-5.1221,-5.0697,-5.0328,-7.2983,-7.2983,-7.2983,-7.2645,-7.2152,-7.1998,-7.1167,-7.0151,-6.9874,-6.9474,-6.9012,-6.8889,-6.8889,-6.8889,-6.8889,-6.8889,-6.8889,-6.8889,-6.8889,-6.8889,-6.8889,-6.8828,-6.8797,-6.8766,-6.8489,-6.7969,-6.7939,-6.702,-6.619,-6.5852,-6.5391,-6.4931,-6.4832,-6.4888,-6.4888,-6.4888,-6.4888,-6.4888,-6.4888,-6.4888,-6.4764,-6.4764,-6.4402,-6.3916,-6.35,-6.3255,-6.2672,-6.2112,-6.1467,-6.0896,-6.0855,-6.0794,-6.0794,-6.0794,-6.0794,-6.0794,-6.0794,-6.0794,-6.0794,-6.0794,-6.0794,-6.0763,-6.0763,-6.0794,-6.0609,-6.0178,-5.9809,-5.9562,-5.9224,-5.8608,-5.798,-5.7364,-5.7056,-5.6994,-5.6933,-5.681,-5.681,-5.681,-5.681,-5.681,-5.681,-5.681,-5.681,-5.681,-5.681,-5.681,-5.681,-5.681,-5.6748,-5.6392,-5.5961,-5.5561,-5.4822,-5.4022,-5.3591,-5.3207,-5.2975,-5.276,-5.2729,-5.2729,-5.2729,-5.2729,-5.2729,-5.2729,-5.2729,-5.2729,-5.2729,-5.2698,-5.2667,-5.2637,-5.2452,-5.2236,-5.1929,-5.1467,-5.1067,-7.2983,-7.2983,-7.2983,-7.2891,-7.2675,-7.2183,-7.1506,-7.0675,-7.012,-6.9566,-6.9012,-6.8889,-6.8889,-6.8889,-6.8889,-6.8889,-6.8889,-6.8889,-6.8889,-6.8889,-6.8889,-6.8889,-6.8889,-6.8889,-6.8797,-6.8492,-6.7887,-6.7096,-6.6334,-6.5609,-6.4941,-6.4646,-6.4554,-6.4635,-6.4832,-6.4832,-6.4888,-6.4888,-6.4888,-6.4888,-6.4888,-6.4888,-6.4685,-6.4187,-6.3568,-6.3066,-6.2823,-6.2245,-6.1713,-6.1317,-6.0976,-6.0803,-6.0742,-6.0794,-6.0794,-6.0742,-6.0794,-6.0794,-6.0794,-6.0794,-6.0794,-6.0794,-6.0794,-6.0794,-6.0794,-6.0671,-6.0301,-5.9963,-5.9624,-5.9285,-5.8589,-5.7962,-5.7543,-5.7359,-5.7051,-5.6792,-5.681,-5.681,-5.681,-5.681,-5.681,-5.681,-5.681,-5.681,-5.681,-5.681,-5.681,-5.681,-5.6717,-5.6594,-5.63,-5.593,-5.5407,-5.4668,-5.4145,-5.3683,-5.3129,-5.2852,-5.2729,-5.2729,-5.2729,-5.2729,-5.2729,-5.2729,-5.2729,-5.2729,-5.2729,-5.2729,-5.2698,-5.2698,-5.2729,-5.2544,-5.2298,-5.199,-5.1652,-7.2983,-7.2983,-7.2983,-7.2983,-7.2922,-7.2614,-7.206,-7.1352,-7.0675,-6.9997,-6.9382,-6.9043,-6.8889,-6.8889,-6.8889,-6.8889,-6.8889,-6.8889,-6.883,-6.8713,-6.8654,-6.8595,-6.8476,-6.8476,-6.8535,-6.8533,-6.8022,-6.7354,-6.6567,-6.5839,-6.5231,-6.4614,-6.434,-6.4356,-6.4635,-6.4635,-6.4746,-6.4888,-6.4888,-6.4832,-6.4691,-6.4635,-6.4524,-6.4214,-6.3685,-6.3416,-6.3386,-6.2779,-6.2348,-6.1964,-6.1279,-6.0788,-6.0647,-6.0586,-6.0586,-6.0586,-6.0586,-6.069,-6.0742,-6.0794,-6.0794,-6.0794,-6.0794,-6.0794,-6.0794,-6.0794,-6.0619,-6.0208,-6.0003,-5.9788,-5.8961,-5.8237,-5.7809,-5.737,-5.7094,-5.6807,-5.6708,-5.6713,-5.681,-5.681,-5.681,-5.681,-5.681,-5.6713,-5.6761,-5.6761,-5.6761,-5.6761,-5.681,-5.6717,-5.6656,-5.63,-5.5899,-5.5345,-5.4791,-5.4145,-5.3375,-5.3006,-5.2729,-5.2729,-5.2729,-5.2729,-5.2729,-5.2729,-5.2729,-5.2729,-5.2729,-5.2729,-5.2729,-5.2729,-5.2729,-5.2729,-5.2637,-5.239,-5.2021,-7.2983,-7.2983,-7.2983,-7.2983,-7.2983,-7.2952,-7.2552,-7.1906,-7.1352,-7.0582,-6.9905,-6.9259,-6.9074,-6.892,-6.8889,-6.8889,-6.8889,-6.883,-6.8654,-6.8476,-6.8417,-6.8238,-6.815,-6.7999,-6.8059,-6.8238,-6.7939,-6.7455,-6.6818,-6.6243,-6.5488,-6.4849,-6.4391,-6.4258,-6.4361,-6.4356,-6.4412,-6.4666,-6.4666,-6.461,-6.4412,-6.4356,-6.4188,-6.3963,-6.3762,-6.3645,-6.3555,-6.3161,-6.2824,-6.2789,-6.1759,-6.0981,-6.0502,-6.0355,-6.0324,-6.0324,-6.0324,-6.0429,-6.0638,-6.069,-6.0742,-6.0794,-6.0794,-6.0794,-6.0794,-6.0742,-6.0607,-6.0451,-6.0255,-5.9945,-5.9136,-5.855,-5.7891,-5.7405,-5.7132,-5.6746,-5.6598,-5.6659,-5.6616,-5.6713,-5.6664,-5.6616,-5.6616,-5.6519,-5.6616,-5.6713,-5.6713,-5.6713,-5.6713,-5.6761,-5.67,-5.6638,-5.6221,-5.5838,-5.5284,-5.4314,-5.3545,-5.3207,-5.2838,-5.2729,-5.2729,-5.2729,-5.2729,-5.2729,-5.2729,-5.2729,-5.2729,-5.2729,-5.2729,-5.2729,-5.2729,-5.2729,-5.2729,-5.2729,-5.239,-7.2983,-7.2983,-7.2983,-7.2983,-7.2983,-7.2983,-7.2614,-7.2029,-7.1844,-7.1044,-6.9997,-6.9782,-6.9351,-6.9012,-6.8889,-6.8889,-6.883,-6.8623,-6.8446,-6.8268,-6.8179,-6.797,-6.791,-6.7669,-6.7608,-6.7669,-6.7578,-6.7246,-6.6673,-6.6132,-6.556,-6.4744,-6.441,-6.4311,-6.4145,-6.4106,-6.4106,-6.4244,-6.4275,-6.4218,-6.4106,-6.4019,-6.3936,-6.3595,-6.3481,-6.3367,-6.3309,-6.3189,-6.2946,-6.2574,-6.2359,-6.1574,-6.0778,-6.0327,-6.013,-6.0039,-6.0039,-6.0197,-6.0429,-6.0481,-6.0586,-6.0742,-6.0794,-6.0794,-6.0742,-6.0586,-6.0429,-6.0324,-6.0144,-5.9925,-5.9834,-5.9062,-5.875,-5.8295,-5.7577,-5.693,-5.6788,-5.6553,-5.6347,-5.6525,-5.6513,-5.6421,-5.6372,-5.6323,-5.6323,-5.6372,-5.6421,-5.6372,-5.6323,-5.647,-5.6585,-5.6634,-5.6603,-5.6159,-5.5715,-5.4591,-5.373,-5.3407,-5.3145,-5.2821,-5.279,-5.2729,-5.2729,-5.2729,-5.2729,-5.2729,-5.2729,-5.2729,-5.2729,-5.2729,-5.2729,-5.2729,-5.2729,-5.2729,-5.2729,-7.2983,-7.2983,-7.2983,-7.2983,-7.2983,-7.2983,-7.2798,-7.2491,-7.2121,-7.1383,-7.0551,-7.0028,-6.9505,-6.9043,-6.8889,-6.883,-6.8654,-6.8505,-6.8208,-6.7999,-6.7759,-6.7608,-6.7548,-6.7304,-6.7243,-6.7243,-6.7213,-6.7093,-6.6733,-6.6252,-6.5712,-6.5262,-6.4691,-6.4206,-6.4193,-6.3948,-6.394,-6.3936,-6.3993,-6.388,-6.3766,-6.3652,-6.3424,-6.3309,-6.3194,-6.3137,-6.3137,-6.3137,-6.3044,-6.2772,-6.2498,-6.1988,-6.1322,-6.0566,-5.9975,-5.9811,-5.9773,-5.988,-6.0197,-6.0302,-6.0481,-6.0586,-6.069,-6.069,-6.0638,-6.0481,-6.0272,-5.9955,-5.969,-5.956,-5.9476,-5.9198,-5.8874,-5.8452,-5.7902,-5.7471,-5.7181,-5.6658,-5.6486,-5.6453,-5.629,-5.6218,-5.6127,-5.6077,-5.6028,-5.6077,-5.6127,-5.6077,-5.5979,-5.6176,-5.6421,-5.6421,-5.639,-5.6084,-5.5722,-5.4955,-5.4067,-5.3729,-5.3331,-5.3038,-5.2807,-5.2745,-5.2729,-5.2729,-5.2729,-5.2729,-5.2729,-5.2729,-5.2729,-5.2729,-5.2729,-5.2729,-5.2729,-5.2729,-5.2729,-7.2983,-7.2983,-7.2983,-7.2983,-7.2983,-7.2983,-7.2983,-7.286,-7.2429,-7.1721,-7.089,-7.0336,-6.9659,-6.9043,-6.8772,-6.8654,-6.8327,-6.8268,-6.7939,-6.7638,-6.7426,-6.7243,-6.706,-6.6999,-6.6999,-6.706,-6.706,-6.6999,-6.691,-6.652,-6.6191,-6.5682,-6.4784,-6.4303,-6.4327,-6.3905,-6.3807,-6.3709,-6.3823,-6.3652,-6.3424,-6.3252,-6.3137,-6.3137,-6.3137,-6.3137,-6.3137,-6.3137,-6.3137,-6.2957,-6.2657,-6.2241,-6.1942,-6.1074,-6.0256,-5.9699,-5.9513,-5.9613,-5.988,-6.0039,-6.0167,-6.0302,-6.0512,-6.0512,-6.0407,-6.0167,-5.9955,-5.9529,-5.9261,-5.9153,-5.9207,-5.9153,-5.883,-5.8501,-5.8255,-5.7955,-5.7543,-5.7106,-5.6645,-5.6445,-5.6184,-5.5992,-5.5871,-5.5731,-5.5631,-5.5731,-5.578,-5.578,-5.5731,-5.5979,-5.6127,-5.6127,-5.6017,-5.5834,-5.5548,-5.531,-5.4579,-5.4168,-5.3667,-5.3254,-5.2962,-5.2762,-5.2745,-5.2684,-5.2729,-5.2729,-5.2729,-5.2729,-5.2729,-5.2729,-5.2729,-5.2729,-5.2729,-5.2729,-5.2729,-7.2983,-7.2983,-7.2983,-7.2983,-7.2983,-7.2983,-7.2983,-7.2952,-7.286,-7.2091,-7.089,-7.0736,-7.0028,-6.8987,-6.8564,-6.8298,-6.809,-6.785,-6.7608,-6.7426,-6.7243,-6.7121,-6.6999,-6.6999,-6.6999,-6.6999,-6.6999,-6.6999,-6.6969,-6.6849,-6.655,-6.6071,-6.5742,-6.5233,-6.4453,-6.4034,-6.3646,-6.3314,-6.3252,-6.3194,-6.3194,-6.3137,-6.3137,-6.3137,-6.3137,-6.3137,-6.3137,-6.3137,-6.3137,-6.3107,-6.3077,-6.266,-6.2211,-6.2002,-6.1134,-6.0261,-5.9597,-5.9261,-5.956,-5.969,-5.9796,-5.9986,-6.0144,-6.0122,-5.9986,-5.9827,-5.9529,-5.9207,-5.9099,-5.9099,-5.9099,-5.9099,-5.9039,-5.883,-5.8501,-5.8291,-5.7955,-5.7611,-5.7071,-5.665,-5.6444,-5.5942,-5.5591,-5.545,-5.531,-5.5381,-5.5431,-5.5431,-5.5481,-5.5681,-5.583,-5.578,-5.578,-5.5629,-5.5558,-5.5292,-5.4947,-5.4461,-5.4074,-5.3498,-5.3117,-5.2902,-5.2731,-5.2715,-5.2684,-5.2653,-5.2608,-5.2608,-5.2653,-5.2729,-5.2729,-5.2729,-5.2729,-5.2729,-5.2729,-7.2983,-7.2983,-7.2983,-7.2983,-7.2983,-7.2983,-7.2983,-7.2983,-7.2983,-7.2214,-7.1045,-7.0739,-6.9822,-6.8541,-6.8238,-6.7999,-6.7729,-6.7548,-6.7365,-6.7243,-6.706,-6.6999,-6.6999,-6.6999,-6.6999,-6.6999,-6.6999,-6.6999,-6.6999,-6.6969,-6.6789,-6.658,-6.6191,-6.5772,-6.4934,-6.4336,-6.3917,-6.3616,-6.3346,-6.3137,-6.3137,-6.3137,-6.3137,-6.3137,-6.3137,-6.3137,-6.3137,-6.3137,-6.3137,-6.3137,-6.3137,-6.2989,-6.263,-6.2301,-6.1732,-6.1373,-6.0625,-5.9992,-5.9441,-5.9482,-5.956,-5.972,-5.9827,-5.9933,-5.972,-5.9476,-5.9261,-5.9099,-5.9099,-5.9099,-5.9099,-5.9099,-5.9099,-5.8979,-5.877,-5.874,-5.8471,-5.8022,-5.7543,-5.7094,-5.6675,-5.6226,-5.5777,-5.5529,-5.5379,-5.528,-5.533,-5.533,-5.533,-5.5381,-5.5431,-5.5481,-5.5481,-5.5451,-5.5441,-5.531,-5.5096,-5.4752,-5.4704,-5.4087,-5.3312,-5.2978,-5.2856,-5.2595,-5.2473,-5.2473,-5.2473,-5.2563,-5.2653,-5.2653,-5.2729,-5.2729,-5.2729,-5.2729,-5.2729,-7.2983,-7.2983,-7.2983,-7.2983,-7.2983,-7.2983,-7.2983,-7.2983,-7.2983,-7.2152,-7.0923,-7.0128,-6.9093,-6.8182,-6.785,-6.7638,-6.7365,-6.7365,-6.7243,-6.706,-6.6999,-6.6999,-6.6999,-6.6999,-6.6999,-6.6999,-6.6999,-6.6999,-6.6999,-6.6999,-6.6969,-6.6969,-6.655,-6.6161,-6.5772,-6.5114,-6.4485,-6.3917,-6.3558,-6.3288,-6.3109,-6.3137,-6.3137,-6.3137,-6.3137,-6.3137,-6.3137,-6.3137,-6.3137,-6.3137,-6.3137,-6.3107,-6.2929,-6.263,-6.2271,-6.1942,-6.1433,-6.0835,-6.0111,-5.9771,-5.9579,-5.9536,-5.956,-5.9613,-5.9422,-5.9207,-5.9099,-5.9099,-5.9099,-5.9099,-5.9099,-5.9099,-5.9099,-5.9099,-5.9069,-5.9099,-5.9039,-5.856,-5.8112,-5.7693,-5.7244,-5.6855,-5.6346,-5.5807,-5.5478,-5.5269,-5.5179,-5.5209,-5.5179,-5.5229,-5.5229,-5.536,-5.533,-5.533,-5.533,-5.526,-5.506,-5.4978,-5.4884,-5.4589,-5.3867,-5.328,-5.2963,-5.2704,-5.2398,-5.2246,-5.2246,-5.2427,-5.2608,-5.2563,-5.2563,-5.2653,-5.2729,-5.2729,-5.2729,-7.2983,-7.2983,-7.2983,-7.2983,-7.2983,-7.2983,-7.2983,-7.2983,-7.2983,-7.2029,-7.0404,-6.8971,-6.8092,-6.7638,-6.7548,-6.7365,-6.703,-6.706,-6.706,-6.6999,-6.6999,-6.6999,-6.6999,-6.6999,-6.6999,-6.6999,-6.6999,-6.6999,-6.6999,-6.6999,-6.6999,-6.6939,-6.6819,-6.649,-6.6161,-6.5742,-6.4994,-6.4366,-6.3917,-6.3588,-6.3288,-6.3166,-6.3137,-6.3137,-6.3137,-6.3137,-6.3137,-6.3137,-6.3137,-6.3137,-6.3137,-6.3137,-6.3107,-6.2929,-6.263,-6.2301,-6.2151,-6.1613,-6.101,-6.0351,-5.9782,-5.9393,-5.9207,-5.9291,-5.9207,-5.9153,-5.9099,-5.9099,-5.9099,-5.9099,-5.9099,-5.9099,-5.9099,-5.9099,-5.9099,-5.9099,-5.9099,-5.9069,-5.862,-5.8231,-5.7842,-5.7393,-5.7004,-5.6466,-5.5867,-5.5598,-5.5209,-5.5209,-5.5209,-5.5179,-5.5179,-5.5259,-5.5259,-5.5229,-5.5229,-5.516,-5.512,-5.505,-5.4939,-5.4797,-5.4394,-5.3844,-5.3368,-5.2761,-5.2457,-5.226,-5.2017,-5.2155,-5.2261,-5.2352,-5.2473,-5.2473,-5.2608,-5.2653,-5.2653,-7.2983,-7.2983,-7.2983,-7.2983,-7.2983,-7.2983,-7.2983,-7.2983,-7.2765,-7.1656,-6.982,-6.8364,-6.7548,-6.7304,-6.7152,-6.7121,-6.6999,-6.6999,-6.6999,-6.6999,-6.6999,-6.6999,-6.6999,-6.6999,-6.6999,-6.6999,-6.6999,-6.6999,-6.6999,-6.6999,-6.6999,-6.6999,-6.6999,-6.6879,-6.658,-6.6221,-6.5503,-6.4814,-6.4246,-6.3857,-6.3677,-6.3228,-6.3137,-6.3137,-6.3137,-6.3137,-6.3137,-6.3137,-6.3137,-6.3137,-6.3137,-6.3137,-6.3137,-6.3137,-6.2929,-6.269,-6.263,-6.2331,-6.1732,-6.1074,-6.0446,-5.9787,-5.9398,-5.9129,-5.9189,-5.9129,-5.9099,-5.9099,-5.9099,-5.9099,-5.9099,-5.9099,-5.9099,-5.9099,-5.9099,-5.9099,-5.9099,-5.9099,-5.9039,-5.862,-5.8291,-5.7902,-5.7543,-5.7124,-5.6496,-5.5927,-5.5538,-5.5209,-5.5209,-5.5209,-5.5209,-5.5209,-5.5209,-5.5209,-5.5209,-5.5209,-5.5209,-5.511,-5.504,-5.485,-5.4679,-5.4526,-5.4008,-5.3283,-5.2557,-5.2255,-5.206,-5.1894,-5.1941,-5.2109,-5.22,-5.2246,-5.2382,-5.2563,-5.2653,-7.2983,-7.2983,-7.2983,-7.2983,-7.2983,-7.2983,-7.2983,-7.2796,-7.2608,-7.1406,-6.9448,-6.8028,-6.7213,-6.706,-6.6999,-6.6999,-6.6999,-6.6999,-6.6999,-6.6999,-6.6999,-6.6999,-6.6999,-6.6999,-6.6999,-6.6999,-6.6999,-6.6999,-6.6999,-6.6999,-6.6999,-6.6999,-6.6999,-6.6969,-6.6849,-6.655,-6.5981,-6.5323,-6.4934,-6.4246,-6.4066,-6.3617,-6.3199,-6.3196,-6.3137,-6.3137,-6.3137,-6.3137,-6.3137,-6.3137,-6.3137,-6.3137,-6.3137,-6.3137,-6.3137,-6.3137,-6.3077,-6.2839,-6.2361,-6.1553,-6.0954,-6.0416,-5.9787,-5.9518,-5.9368,-5.9249,-5.9099,-5.9099,-5.9099,-5.9129,-5.9129,-5.9099,-5.9099,-5.9099,-5.9099,-5.9099,-5.9099,-5.9099,-5.9099,-5.8979,-5.868,-5.8471,-5.8201,-5.7782,-5.6944,-5.6256,-5.5538,-5.5239,-5.5209,-5.5209,-5.5209,-5.5209,-5.5209,-5.5209,-5.5209,-5.5209,-5.5209,-5.5179,-5.511,-5.499,-5.483,-5.4709,-5.4458,-5.3687,-5.2996,-5.2365,-5.2021,-5.1797,-5.1786,-5.1834,-5.1972,-5.2109,-5.2261,-5.2442,-5.2608,-7.2983,-7.2983,-7.2983,-7.2983,-7.2921,-7.2983,-7.2796,-7.2484,-7.2237,-7.1222,-6.9356,-6.7753,-6.706,-6.6999,-6.6999,-6.6999,-6.6999,-6.6999,-6.6999,-6.6999,-6.6999,-6.6999,-6.6999,-6.6999,-6.6999,-6.6999,-6.6999,-6.6999,-6.6999,-6.6999,-6.6999,-6.6999,-6.6999,-6.6999,-6.6969,-6.6969,-6.661,-6.6071,-6.5922,-6.5144,-6.4485,-6.4096,-6.3737,-6.3348,-6.3228,-6.3258,-6.3137,-6.3137,-6.3137,-6.3137,-6.3137,-6.3137,-6.3137,-6.3137,-6.3137,-6.3137,-6.3137,-6.3107,-6.2987,-6.1822,-6.1313,-6.1044,-6.0475,-6.0116,-5.9937,-5.9638,-5.9279,-5.9398,-5.9249,-5.9189,-5.9129,-5.9099,-5.9099,-5.9099,-5.9099,-5.9099,-5.9099,-5.9099,-5.9099,-5.9099,-5.9099,-5.9039,-5.88,-5.8381,-5.7453,-5.6615,-5.5688,-5.5329,-5.5329,-5.5209,-5.5209,-5.5209,-5.5209,-5.5209,-5.5209,-5.5209,-5.5209,-5.5209,-5.5149,-5.5059,-5.494,-5.48,-5.447,-5.4031,-5.3313,-5.257,-5.2102,-5.1695,-5.1626,-5.1602,-5.1864,-5.1972,-5.22,-5.2306,-5.2382,-7.2859,-7.2671,-7.2671,-7.2546,-7.2357,-7.2608,-7.2483,-7.2015,-7.1003,-6.9994,-6.9045,-6.7659,-6.6999,-6.6999,-6.6999,-6.6999,-6.6999,-6.6999,-6.6999,-6.6999,-6.6999,-6.6999,-6.6999,-6.6999,-6.6999,-6.6999,-6.6999,-6.6999,-6.6999,-6.6999,-6.6999,-6.6999,-6.6999,-6.6999,-6.6999,-6.6999,-6.6819,-6.661,-6.6251,-6.5742,-6.5323,-6.4874,-6.4366,-6.3707,-6.3647,-6.3468,-6.3166,-6.3137,-6.3137,-6.3137,-6.3137,-6.3137,-6.3137,-6.3137,-6.3137,-6.3137,-6.3137,-6.3137,-6.3107,-6.254,-6.2241,-6.1762,-6.1194,-6.0775,-6.0715,-6.0625,-6.0236,-5.9877,-5.9757,-5.9608,-5.9219,-5.9129,-5.9129,-5.9099,-5.9099,-5.9099,-5.9099,-5.9099,-5.9099,-5.9099,-5.9099,-5.9099,-5.8979,-5.874,-5.7992,-5.7393,-5.6615,-5.5987,-5.5837,-5.5388,-5.5209,-5.5209,-5.5209,-5.5209,-5.5209,-5.5209,-5.5209,-5.5209,-5.5209,-5.5149,-5.5029,-5.488,-5.464,-5.4281,-5.3503,-5.2695,-5.2217,-5.1738,-5.1409,-5.1369,-5.1602,-5.1741,-5.188,-5.2017,-5.2139,-7.2608,-7.2357,-7.2357,-7.2104,-7.1913,-7.2167,-7.2104,-7.1544,-7.0079,-6.9163,-6.8767,-6.7597,-6.6999,-6.6999,-6.6999,-6.6999,-6.6999,-6.6999,-6.6999,-6.6999,-6.6999,-6.6999,-6.6999,-6.6999,-6.6999,-6.6999,-6.6999,-6.6999,-6.6999,-6.6999,-6.6999,-6.6999,-6.6999,-6.6999,-6.6999,-6.6999,-6.6969,-6.6819,-6.655,-6.6251,-6.5892,-6.5473,-6.4904,-6.4246,-6.3887,-6.3707,-6.3258,-6.3137,-6.3137,-6.3137,-6.3137,-6.3137,-6.3137,-6.3137,-6.3137,-6.3137,-6.3137,-6.3137,-6.3107,-6.3107,-6.269,-6.245,-6.1822,-6.1493,-6.1373,-6.1134,-6.0864,-6.0565,-6.0475,-6.0057,-5.9608,-5.9488,-5.9368,-5.9368,-5.9159,-5.9159,-5.9099,-5.9099,-5.9099,-5.9099,-5.9099,-5.9099,-5.9099,-5.886,-5.8471,-5.8022,-5.7573,-5.6944,-5.6316,-5.5807,-5.5359,-5.5299,-5.5239,-5.5209,-5.5209,-5.5209,-5.5209,-5.5209,-5.5209,-5.5209,-5.5179,-5.5059,-5.482,-5.461,-5.3952,-5.3234,-5.2366,-5.1798,-5.1439,-5.1306,-5.1369,-5.1509,-5.1602,-5.1695,-5.1864,-7.2294,-7.2007,-7.2007,-7.1786,-7.15,-7.1786,-7.1722,-7.1221,-6.9669,-6.9004,-6.8914,-6.7567,-6.6999,-6.6999,-6.6999,-6.6999,-6.6999,-6.6999,-6.6999,-6.6999,-6.6999,-6.6999,-6.6999,-6.6999,-6.6999,-6.6999,-6.6999,-6.6999,-6.6999,-6.6999,-6.6999,-6.6999,-6.6999,-6.6999,-6.6999,-6.6999,-6.6999,-6.6939,-6.6879,-6.658,-6.6281,-6.6071,-6.5413,-6.4755,-6.4276,-6.3857,-6.3438,-6.3169,-6.3166,-6.3137,-6.3137,-6.3137,-6.3137,-6.3137,-6.3137,-6.3137,-6.3137,-6.3137,-6.3137,-6.3137,-6.3137,-6.2839,-6.245,-6.2211,-6.2032,-6.1762,-6.1493,-6.1253,-6.1104,-6.0655,-6.0266,-6.0057,-5.9847,-5.9638,-5.9308,-5.9219,-5.9129,-5.9099,-5.9099,-5.9099,-5.9099,-5.9099,-5.9099,-5.8949,-5.88,-5.865,-5.8201,-5.7633,-5.6974,-5.6256,-5.5807,-5.5448,-5.5359,-5.5209,-5.5209,-5.5209,-5.5209,-5.5209,-5.5209,-5.5209,-5.5209,-5.5209,-5.5029,-5.482,-5.4461,-5.3743,-5.2546,-5.1828,-5.1439,-5.1289,-5.1276,-5.1323,-5.1463,-5.1509,-5.1649,-7.1913,-7.1564,-7.1564,-7.1371,-7.1083,-7.1178,-7.1113,-7.0869,-6.9572,-6.9004,-6.8914,-6.7567,-6.6999,-6.6999,-6.6999,-6.6999,-6.6999,-6.6999,-6.6999,-6.6999,-6.6999,-6.6999,-6.6999,-6.6999,-6.6999,-6.6999,-6.6999,-6.6999,-6.6999,-6.6999,-6.6999,-6.6999,-6.6999,-6.6999,-6.6999,-6.6999,-6.6999,-6.6999,-6.6999,-6.6849,-6.67,-6.661,-6.5981,-6.5443,-6.4874,-6.4395,-6.3797,-6.3318,-6.3169,-6.3079,-6.3137,-6.3137,-6.3137,-6.3137,-6.3137,-6.3137,-6.3137,-6.3137,-6.3137,-6.3137,-6.3137,-6.3137,-6.2839,-6.2839,-6.272,-6.251,-6.2181,-6.1972,-6.1792,-6.1433,-6.1014,-6.0745,-6.0446,-6.0057,-5.9787,-5.9638,-5.9518,-5.9279,-5.9279,-5.9099,-5.9099,-5.9099,-5.9099,-5.9099,-5.8979,-5.9009,-5.88,-5.8231,-5.7663,-5.6944,-5.6346,-5.5957,-5.5568,-5.5448,-5.5269,-5.5239,-5.5209,-5.5209,-5.5209,-5.5209,-5.5209,-5.5209,-5.5209,-5.497,-5.4581,-5.3623,-5.2456,-5.1947,-5.1648,-5.1319,-5.1229,-5.1276,-5.1323,-5.1369,-5.1416,-7.1564,-7.1242,-7.1212,-7.1113,-7.0919,-7.0919,-7.0919,-7.0649,-6.9542,-6.9004,-6.8824,-6.7567,-6.6999,-6.6999,-6.6999,-6.6999,-6.6999,-6.6999,-6.6999,-6.6999,-6.6999,-6.6999,-6.6999,-6.6999,-6.6999,-6.6999,-6.6999,-6.6999,-6.6999,-6.6999,-6.6999,-6.6999,-6.6999,-6.6999,-6.6999,-6.6999,-6.6999,-6.6999,-6.6999,-6.6999,-6.6999,-6.6969,-6.658,-6.6101,-6.5562,-6.4964,-6.4156,-6.3588,-6.3378,-6.3139,-6.3137,-6.3137,-6.3137,-6.3137,-6.3137,-6.3137,-6.3137,-6.3137,-6.3137,-6.3137,-6.3137,-6.3137,-6.3137,-6.3049,-6.3049,-6.2899,-6.272,-6.257,-6.245,-6.2271,-6.1852,-6.1433,-6.1014,-6.0595,-6.0386,-6.0176,-5.9907,-5.9578,-5.9368,-5.9159,-5.9099,-5.9099,-5.9099,-5.9099,-5.9099,-5.9099,-5.9039,-5.883,-5.8321,-5.7752,-5.7124,-5.6615,-5.6077,-5.5688,-5.5538,-5.5359,-5.5269,-5.5239,-5.5209,-5.5209,-5.5209,-5.5209,-5.5209,-5.497,-5.461,-5.3683,-5.2815,-5.2306,-5.1947,-5.1618,-5.1259,-5.1229,-5.1229,-5.1276,-5.1276,-7.1178,-7.0919,-7.0919,-7.0889,-7.0919,-7.0919,-7.0919,-7.0769,-6.9662,-6.9064,-6.8764,-6.7657,-6.7089,-6.7029,-6.6999,-6.6999,-6.6999,-6.6999,-6.6999,-6.6999,-6.6999,-6.6999,-6.6999,-6.6999,-6.6999,-6.6999,-6.6999,-6.6999,-6.6999,-6.6999,-6.6999,-6.6999,-6.6999,-6.6999,-6.6999,-6.6999,-6.6999,-6.6999,-6.6999,-6.6999,-6.6999,-6.6909,-6.67,-6.6251,-6.5892,-6.5473,-6.4545,-6.4006,-6.3737,-6.3348,-6.3137,-6.3137,-6.3137,-6.3137,-6.3137,-6.3137,-6.3137,-6.3137,-6.3137,-6.3137,-6.3137,-6.3137,-6.3137,-6.3137,-6.3137,-6.3137,-6.2929,-6.2899,-6.278,-6.266,-6.2301,-6.2151,-6.1822,-6.1403,-6.1104,-6.0805,-6.0386,-6.0057,-5.9697,-5.9458,-5.9189,-5.9189,-5.9099,-5.9099,-5.9099,-5.9099,-5.9099,-5.9039,-5.886,-5.8381,-5.7872,-5.7244,-5.6675,-5.6166,-5.5897,-5.5688,-5.5359,-5.5269,-5.5239,-5.5209,-5.5209,-5.5209,-5.5209,-5.4999,-5.479,-5.4192,-5.3473,-5.2905,-5.2306,-5.1708,-5.1439,-5.1259,-5.1229,-5.1229,-5.1229,-7.0954,-7.0919,-7.0919,-7.0919,-7.0919,-7.0919,-7.0919,-7.0829,-7.0111,-6.9482,-6.8914,-6.8136,-6.7418,-6.7029,-6.6999,-6.6999,-6.6999,-6.6999,-6.6999,-6.6999,-6.6999,-6.6999,-6.6999,-6.6999,-6.6999,-6.6999,-6.6999,-6.6999,-6.6999,-6.6999,-6.6999,-6.6999,-6.6999,-6.6999,-6.6999,-6.6999,-6.6999,-6.6999,-6.6999,-6.6999,-6.6999,-6.6969,-6.6849,-6.658,-6.6311,-6.5981,-6.5173,-6.4485,-6.4156,-6.3767,-6.3288,-6.3109,-6.3137,-6.3137,-6.3137,-6.3137,-6.3137,-6.3137,-6.3137,-6.3137,-6.3137,-6.3137,-6.3137,-6.3137,-6.3137,-6.3137,-6.3137,-6.3137,-6.3107,-6.2929,-6.2839,-6.272,-6.26,-6.2211,-6.1822,-6.1373,-6.0924,-6.0505,-6.0116,-5.9727,-5.9398,-5.9249,-5.9159,-5.9099,-5.9099,-5.9099,-5.9099,-5.9099,-5.9099,-5.88,-5.8501,-5.7902,-5.7274,-5.6795,-5.6466,-5.6068,-5.5739,-5.5388,-5.5269,-5.5239,-5.5209,-5.5209,-5.5179,-5.5179,-5.494,-5.4431,-5.3922,-5.3443,-5.2815,-5.2037,-5.1588,-5.1439,-5.1259,-5.1229,-5.1229,-7.0919,-7.0919,-7.0919,-7.0919,-7.0919,-7.0919,-7.0919,-7.0829,-7.053,-6.9871,-6.8974,-6.8286,-6.7597,-6.7059,-6.6999,-6.6999,-6.6999,-6.6999,-6.6999,-6.6999,-6.6999,-6.6999,-6.6999,-6.6999,-6.6999,-6.6999,-6.6999,-6.6999,-6.6999,-6.6999,-6.6999,-6.6999,-6.6999,-6.6999,-6.6999,-6.6999,-6.6999,-6.6999,-6.6999,-6.6999,-6.6999,-6.6999,-6.6969,-6.6819,-6.667,-6.634,-6.5862,-6.5144,-6.4665,-6.4036,-6.3408,-6.3139,-6.3137,-6.3137,-6.3137,-6.3137,-6.3137,-6.3137,-6.3137,-6.3137,-6.3137,-6.3137,-6.3137,-6.3137,-6.3137,-6.3137,-6.3137,-6.3137,-6.3137,-6.3047,-6.3047,-6.2957,-6.2869,-6.263,-6.245,-6.2211,-6.1613,-6.1044,-6.0505,-5.9937,-5.9668,-5.9488,-5.9338,-5.9099,-5.9099,-5.9099,-5.9099,-5.9099,-5.9099,-5.9099,-5.886,-5.856,-5.7902,-5.7573,-5.7363,-5.6705,-5.6068,-5.5688,-5.5388,-5.5239,-5.5209,-5.5209,-5.5179,-5.5179,-5.5089,-5.479,-5.4281,-5.3832,-5.3084,-5.2276,-5.1887,-5.1618,-5.1439,-5.1229,-5.1229,-7.0919,-7.0919,-7.0919,-7.0919,-7.0919,-7.0919,-7.0919,-7.0889,-7.0889,-7.0171,-6.9034,-6.8405,-6.7717,-6.7178,-6.6999,-6.6999,-6.6999,-6.6999,-6.6999,-6.6999,-6.6999,-6.6999,-6.6999,-6.6999,-6.6999,-6.6999,-6.6999,-6.6999,-6.6999,-6.6999,-6.6999,-6.6999,-6.6999,-6.6999,-6.6999,-6.6999,-6.6999,-6.6999,-6.6999,-6.6999,-6.6999,-6.6999,-6.6999,-6.6999,-6.6939,-6.667,-6.6311,-6.5832,-6.5263,-6.4395,-6.3528,-6.3256,-6.3137,-6.3137,-6.3137,-6.3137,-6.3137,-6.3137,-6.3137,-6.3137,-6.3137,-6.3137,-6.3137,-6.3137,-6.3137,-6.3137,-6.3137,-6.3137,-6.3137,-6.3137,-6.3137,-6.3137,-6.3049,-6.3019,-6.2929,-6.2869,-6.2241,-6.1613,-6.0984,-6.0326,-5.9997,-5.9787,-5.9428,-5.9189,-5.9099,-5.9099,-5.9099,-5.9099,-5.9099,-5.9099,-5.8979,-5.883,-5.8501,-5.8261,-5.8052,-5.7483,-5.6615,-5.6017,-5.5718,-5.5418,-5.5209,-5.5209,-5.5209,-5.5179,-5.5059,-5.491,-5.464,-5.4221,-5.3414,-5.2606,-5.2157,-5.1828,-5.1379,-5.1229,-5.1229,-7.0919,-7.0919,-7.0919,-7.0919,-7.0919,-7.0919,-7.0919,-7.0919,-7.0889,-7.0201,-6.9213,-6.8824,-6.8196,-6.6999,-6.6999,-6.6999,-6.6999,-6.6999,-6.6999,-6.6999,-6.6999,-6.6999,-6.6999,-6.6999,-6.6999,-6.6999,-6.6999,-6.6999,-6.6999,-6.6999,-6.6999,-6.6999,-6.6999,-6.6999,-6.6999,-6.6999,-6.6999,-6.6999,-6.6999,-6.6999,-6.6999,-6.6999,-6.6999,-6.6999,-6.6969,-6.6909,-6.67,-6.6251,-6.5622,-6.4755,-6.3797,-6.3288,-6.3137,-6.3137,-6.3137,-6.3137,-6.3137,-6.3137,-6.3137,-6.3137,-6.3137,-6.3137,-6.3137,-6.3137,-6.3137,-6.3137,-6.3137,-6.3137,-6.3137,-6.3137,-6.3137,-6.3137,-6.3107,-6.3107,-6.3019,-6.2989,-6.269,-6.2181,-6.1642,-6.0984,-6.0446,-5.9967,-5.9368,-5.9189,-5.9099,-5.9099,-5.9099,-5.9099,-5.9099,-5.9099,-5.9099,-5.9009,-5.8919,-5.859,-5.8201,-5.8052,-5.7393,-5.6675,-5.5987,-5.5658,-5.5388,-5.5209,-5.5209,-5.5209,-5.5209,-5.5089,-5.482,-5.4581,-5.3952,-5.3204,-5.2516,-5.2007,-5.1558,-5.1229,-5.1229]},{"header":{"parameterUnit":"m.s-1","parameterCategory":1,"la1":31.0,"la2":29.5877,"lo1":-88.7671,"lo2":-86.6584,"dy":0.0162,"dx":0.0185,"nx":115,"ny":88,"refTime":"2024-04-21T12:00:00:Z","depth":0,"parameterNumber":3,"parameterNumberName":"V-component_of_WINDS"},"data":[0.0,0.0,0.0,0.0,0.0,0.0,0.0,0.0,0.0,0.0,0.0,0.0,0.0,0.0,0.0,0.0,0.0,0.0,0.0,0.0,0.0,0.0,0.0,0.0,0.0,0.0,0.0,0.0,0.0,0.0,0.0,0.0,0.0,0.0,0.0,0.0,0.0,0.0,0.0,0.0,0.0,0.0,0.0,0.0,0.0,0.0,0.0,0.0,0.0,0.0,0.0,0.0,0.0,0.0,0.0,0.0,0.0,0.0,0.0,0.0,0.0,0.0,0.0,0.0,0.0,0.0,0.0,0.0,0.0,0.0,0.0,0.0,0.0,0.0,0.0,0.0,0.0,0.0,0.0,0.0,0.0,0.0,0.0,0.0,0.0,0.0,0.0,0.0,0.0,0.0,0.0,0.0,0.0,0.0,0.0,0.0,0.0,0.0,0.0,0.0,0.0,0.0,0.0,0.0,0.0,0.0,0.0,0.0,0.0,0.0,0.0,0.0,0.0,0.0,0.0,0.0,0.0,0.0,0.0,0.0,0.0,0.0,0.0,0.0,0.0,0.0,0.0,0.0,0.0,0.0,0.0,0.0,0.0,0.0,0.0,0.0,0.0,0.0,0.0,0.0,0.0,0.0,0.0,0.0,0.0,0.0,0.0,0.0,0.0,0.0,0.0,0.0,0.0,0.0,0.0,0.0,0.0,0.0,0.0,0.0,0.0,0.0,0.0,0.0,0.0,0.0,0.0,0.0,0.0,0.0,0.0,0.0,0.0,0.0,0.0,0.0,0.0,0.0,0.0,0.0,0.0,0.0,0.0,0.0,0.0,0.0,0.0,0.0,0.0,0.0,0.0,0.0,0.0,0.0,0.0,0.0,0.0,0.0,0.0,0.0,0.0,0.0,0.0,0.0,0.0,0.0,0.0,0.0,0.0,0.0,0.0,0.0,0.0,0.0,0.0,0.0,0.0,0.0,0.0,0.0,0.0,0.0,0.0,0.0,0.0,0.0,0.0,0.0,0.0,0.0,0.0,0.0,0.0,0.0,0.0,0.0,0.0,0.0,0.0,0.0,0.0,0.0,0.0,0.0,0.0,0.0,0.0,0.0,0.0,0.0,0.0,0.0,0.0,0.0,0.0,0.0,0.0,0.0,0.0,0.0,0.0,0.0,0.0,0.0,0.0,0.0,0.0,0.0,0.0,0.0,0.0,0.0,0.0,0.0,0.0,0.0,0.0,0.0,0.0,0.0,0.0,0.0,0.0,0.0,0.0,0.0,0.0,0.0,0.0,0.0,0.0,0.0,0.0,0.0,0.0,0.0,0.0,0.0,0.0,0.0,0.0,0.0,0.0,0.0,0.0,0.0,0.0,0.0,0.0,0.0,0.0,0.0,0.0,0.0,0.0,0.0,0.0,0.0,0.0,0.0,0.0,0.0,0.0,0.0,0.0,0.0,0.0,0.0,0.0,0.0,0.0,0.0,0.0,0.0,0.0,0.0,0.0,0.0,0.0,0.0,0.0,0.0,0.0,0.0,0.0,0.0,0.0,0.0,0.0,0.0,0.0,0.0,0.0,0.0,0.0,0.0,0.0,0.0,0.0,0.0,0.0,0.0,0.0,0.0,0.0,0.0,0.0,0.0,0.0,0.0,0.0,0.0,0.0,0.0,0.0,0.0,0.0,0.0,0.0,0.0,0.0,0.0,0.0,0.0,0.0,0.0,0.0,0.0,0.0,0.0,0.0,0.0,0.0,0.0,0.0,0.0,0.0,0.0,0.0,0.0,0.0,0.0,0.0,0.0,0.0,0.0,0.0,0.0,0.0,0.0,0.0,0.0,0.0,0.0,0.0,0.0,0.0,0.0,0.0,0.0,0.0,0.0,0.0,0.0,0.0,0.0,0.0,0.0,0.0,0.0,0.0,0.0,0.0,0.0,0.0,0.0,0.0,0.0,0.0,0.0,0.0,0.0,0.0,0.0,0.0,0.0,0.0,0.0,0.0,0.0,0.0,0.0,0.0,0.0,0.0,0.0,0.0,0.0,0.0,0.0,0.0,0.0,0.0,0.0,0.0,0.0,0.0,0.0,0.0,0.0,0.0,0.0,0.0,0.0,0.0,0.0,0.0,0.0,0.0,0.0,0.0,0.0,0.0,0.0,0.0,0.0,0.0,0.0,0.0,0.0,0.0,0.0,0.0,0.0,0.0,0.0,0.0,0.0,0.0,0.0,0.0,0.0,0.0,0.0,0.0,0.0,0.0,0.0,0.0,0.0,0.0,0.0,0.0,0.0,0.0,0.0,0.0,0.0,0.0,0.0,0.0,0.0,0.0,0.0,0.0,0.0,0.0,0.0,0.0,0.0,0.0,0.0,0.0,0.0,0.0,0.0,0.0,0.0,0.0,0.0,0.0,0.0,0.0,0.0,0.0,0.0,0.0,0.0,0.0,0.0,0.0,0.0,0.0,0.0,0.0,0.0,0.0,0.0,0.0,0.0,0.0,0.0,0.0,0.0,0.0,0.0,0.0,0.0,0.0,0.0,0.0,0.0,0.0,0.0,0.0,0.0,0.0,0.0,0.0,0.0,0.0,0.0,0.0,0.0,0.0,0.0,0.0,0.0,0.0,0.0,0.0,0.0,0.0,0.0,0.0,0.0,0.0,0.0,0.0,0.0,0.0,0.0,0.0,0.0,0.0,0.0,0.0,0.0,0.0,0.0,0.0,0.0,0.0,0.0,0.0,0.0,0.0,0.0,0.0,0.0,0.0,0.0,0.0,0.0,0.0,0.0,0.0,0.0,0.0,0.0,0.0,0.0,0.0,0.0,0.0,0.0,0.0,0.0,0.0,0.0,0.0,0.0,0.0,0.0,0.0,0.0,0.0,0.0,0.0,0.0,0.0,0.0,0.0,0.0,0.0,0.0,0.0,0.0,0.0,0.0,0.0,0.0,0.0,0.0,0.0,0.0,0.0,0.0,0.0,0.0,0.0,0.0,0.0,0.0,0.0,0.0,0.0,0.0,0.0,0.0,0.0,0.0,0.0,0.0,0.0,0.0,0.0,0.0,0.0,0.0,0.0,0.0,0.0,0.0,0.0,0.0,0.0,0.0,0.0,0.0,0.0,0.0,0.0,0.0,0.0,0.0,0.0,0.0,0.0,0.0,0.0,0.0,0.0,0.0,0.0,0.0,0.0,0.0,0.0,0.0,0.0,0.0,0.0,0.0,0.0,0.0,0.0,0.0,0.0,0.0,0.0,0.0,0.0,0.0,0.0,0.0,0.0,0.0,0.0,0.0,0.0,0.0,0.0,0.0,0.0,0.0,0.0,0.0,0.0,0.0,0.0,0.0,0.0,0.0,0.0,0.0,0.0,0.0,0.0,0.0,0.0,0.0,0.0,0.0,0.0,0.0,0.0,0.0,0.0,0.0,0.0,0.0,0.0,0.0,0.0,0.0,0.0,0.0,0.0,0.0,0.0,0.0,0.0,0.0,0.0,0.0,0.0,0.0,0.0,0.0,0.0,0.0,0.0,0.0,0.0,0.0,0.0,0.0,0.0,0.0,0.0,0.0,0.0,0.0,0.0,0.0,0.0,0.0,0.0,0.0,0.0,0.0,0.0,0.0,0.0,0.0,0.0,0.0,0.0,0.0,0.0,0.0,0.0,0.0,0.0,0.0,0.0,0.0,0.0,0.0,0.0,0.0,0.0,0.0,0.0,0.0,0.0,0.0,0.0,0.0,0.0,0.0,0.0,0.0,0.0,0.0,0.0,0.0,0.0,0.0,0.0,0.0,0.0,0.0,0.0,0.0,0.0,0.0,0.0,0.0,0.0,0.0,0.0,0.0,0.0,0.0,0.0,0.0,0.0,0.0,0.0,0.0,0.0,0.0,0.0,0.0,0.0,0.0,0.0,0.0,0.0,0.0,0.0,0.0,0.0,0.0,0.0,0.0,0.0,0.0,0.0,0.0,0.0,0.0,0.0,0.0,0.0,0.0,0.0,0.0,0.0,0.0,0.0,0.0,0.0,0.0,0.0,0.0,0.0,0.0,0.0,0.0,0.0,0.0,0.0,0.0,0.0,0.0,0.0,0.0,0.0,0.0,0.0,0.0,0.0,0.0,0.0,0.0,0.0,0.0,0.0,0.0,0.0,0.0,0.0,0.0,0.0,0.0,0.0,0.0,0.0,0.0,0.0,0.0,0.0,0.0,0.0,0.0,0.0,0.0,0.0,0.0,0.0,0.0,0.0,0.0,0.0,0.0,0.0,0.0,0.0,0.0,0.0,0.0,0.0,0.0,3.0898,0.0,0.0,0.0,0.0,0.0,0.0,0.0,0.0,0.0,0.0,0.0,0.0,0.0,0.0,0.0,0.0,0.0,0.0,0.0,0.0,0.0,0.0,0.0,0.0,0.0,0.0,0.0,0.0,0.0,0.0,0.0,0.0,0.0,0.0,0.0,0.0,0.0,0.0,0.0,0.0,0.0,0.0,0.0,0.0,0.0,0.0,0.0,0.0,0.0,0.0,0.0,0.0,0.0,0.0,0.0,0.0,0.0,0.0,0.0,0.0,0.0,0.0,0.0,0.0,0.0,0.0,0.0,0.0,0.0,0.0,0.0,0.0,0.0,0.0,0.0,0.0,0.0,0.0,0.0,0.0,0.0,0.0,0.0,0.0,0.0,0.0,0.0,0.0,0.0,0.0,0.0,0.0,0.0,0.0,0.0,0.0,0.0,0.0,0.0,0.0,0.0,0.0,0.0,0.0,0.0,0.0,0.0,0.0,0.0,0.0,3.1113,3.0898,3.0898,3.0898,3.0898,0.0,0.0,0.0,0.0,0.0,0.0,0.0,0.0,0.0,0.0,0.0,0.0,0.0,0.0,0.0,0.0,0.0,0.0,0.0,0.0,0.0,0.0,0.0,0.0,0.0,0.0,0.0,0.0,0.0,0.0,0.0,0.0,0.0,0.0,0.0,0.0,0.0,0.0,0.0,0.0,0.0,0.0,0.0,0.0,0.0,0.0,0.0,0.0,0.0,0.0,0.0,0.0,0.0,0.0,0.0,0.0,0.0,0.0,0.0,0.0,0.0,0.0,0.0,0.0,0.0,0.0,0.0,0.0,0.0,0.0,0.0,0.0,0.0,0.0,0.0,0.0,0.0,0.0,0.0,0.0,0.0,0.0,0.0,0.0,0.0,0.0,0.0,0.0,0.0,0.0,0.0,0.0,0.0,0.0,0.0,0.0,0.0,0.0,0.0,0.0,0.0,0.0,0.0,0.0,0.0,0.0,0.0,0.0,0.0,0.0,0.0,0.0,3.1074,3.0996,3.0898,0.0,0.0,0.0,0.0,0.0,0.0,0.0,0.0,0.0,0.0,0.0,0.0,0.0,0.0,0.0,0.0,0.0,0.0,0.0,0.0,0.0,0.0,0.0,0.0,0.0,0.0,0.0,0.0,0.0,0.0,0.0,0.0,0.0,0.0,0.0,0.0,0.0,0.0,0.0,0.0,0.0,0.0,0.0,0.0,0.0,0.0,0.0,0.0,0.0,0.0,0.0,0.0,0.0,0.0,0.0,0.0,0.0,0.0,0.0,0.0,0.0,0.0,0.0,0.0,0.0,0.0,0.0,0.0,0.0,0.0,0.0,0.0,0.0,0.0,0.0,0.0,0.0,0.0,0.0,0.0,0.0,0.0,0.0,0.0,0.0,0.0,0.0,0.0,0.0,0.0,0.0,0.0,0.0,0.0,0.0,0.0,0.0,0.0,0.0,0.0,0.0,0.0,0.0,0.0,0.0,0.0,0.0,0.0,0.0,0.0,3.209,3.2051,3.166,0.0,3.0918,0.0,0.0,0.0,0.0,0.0,0.0,0.0,0.0,0.0,0.0,0.0,0.0,0.0,0.0,0.0,0.0,0.0,0.0,0.0,0.0,0.0,0.0,0.0,0.0,0.0,0.0,0.0,0.0,0.0,0.0,0.0,0.0,0.0,0.0,0.0,0.0,0.0,0.0,0.0,0.0,0.0,0.0,0.0,0.0,0.0,0.0,0.0,0.0,0.0,0.0,0.0,0.0,0.0,0.0,0.0,0.0,0.0,0.0,0.0,0.0,0.0,0.0,0.0,0.0,0.0,0.0,0.0,0.0,0.0,0.0,0.0,0.0,0.0,0.0,0.0,0.0,0.0,0.0,0.0,0.0,0.0,0.0,0.0,0.0,0.0,0.0,0.0,0.0,0.0,0.0,0.0,0.0,0.0,0.0,0.0,0.0,0.0,0.0,0.0,0.0,0.0,0.0,0.0,0.0,0.0,0.0,0.0,0.0,0.0,0.0,3.2422,3.2229,3.1992,3.1816,0.0,0.0,0.0,0.0,0.0,0.0,0.0,0.0,0.0,0.0,0.0,0.0,0.0,0.0,0.0,0.0,0.0,0.0,0.0,0.0,0.0,0.0,0.0,0.0,0.0,0.0,0.0,0.0,0.0,0.0,0.0,0.0,0.0,0.0,0.0,0.0,0.0,0.0,0.0,0.0,0.0,0.0,0.0,0.0,0.0,0.0,0.0,0.0,0.0,0.0,0.0,0.0,0.0,0.0,0.0,0.0,0.0,0.0,0.0,0.0,0.0,0.0,0.0,0.0,0.0,0.0,0.0,0.0,0.0,0.0,0.0,0.0,0.0,0.0,0.0,0.0,0.0,0.0,0.0,0.0,0.0,0.0,0.0,0.0,0.0,0.0,0.0,0.0,0.0,0.0,0.0,0.0,0.0,0.0,0.0,0.0,0.0,0.0,0.0,0.0,0.0,0.0,0.0,0.0,0.0,0.0,0.0,0.0,0.0,0.0,3.2969,3.2754,3.2383,3.2344,3.2285,3.2168,0.0,0.0,0.0,0.0,0.0,0.0,0.0,0.0,0.0,0.0,0.0,0.0,0.0,0.0,0.0,0.0,0.0,0.0,0.0,0.0,0.0,0.0,0.0,0.0,0.0,0.0,0.0,0.0,0.0,0.0,0.0,0.0,0.0,0.0,0.0,0.0,0.0,0.0,0.0,0.0,0.0,0.0,0.0,0.0,0.0,0.0,0.0,0.0,0.0,0.0,0.0,0.0,0.0,0.0,0.0,0.0,0.0,0.0,0.0,0.0,0.0,0.0,0.0,0.0,0.0,0.0,0.0,0.0,0.0,0.0,0.0,0.0,0.0,0.0,0.0,0.0,0.0,0.0,0.0,0.0,0.0,0.0,0.0,0.0,0.0,0.0,0.0,0.0,0.0,0.0,0.0,0.0,0.0,0.0,0.0,0.0,0.0,0.0,0.0,0.0,0.0,0.0,0.0,0.0,0.0,0.0,0.0,0.0,3.3379,3.3379,3.3184,3.2773,3.2773,3.2578,0.0,0.0,0.0,0.0,0.0,0.0,0.0,0.0,0.0,0.0,0.0,0.0,0.0,0.0,0.0,0.0,0.0,0.0,0.0,0.0,0.0,0.0,0.0,0.0,0.0,0.0,0.0,0.0,0.0,0.0,0.0,0.0,0.0,0.0,0.0,0.0,0.0,0.0,0.0,0.0,0.0,0.0,0.0,0.0,0.0,0.0,0.0,0.0,0.0,0.0,0.0,0.0,0.0,0.0,0.0,0.0,0.0,0.0,0.0,0.0,0.0,0.0,0.0,0.0,0.0,0.0,0.0,0.0,0.0,0.0,0.0,0.0,0.0,0.0,0.0,0.0,0.0,0.0,0.0,0.0,0.0,0.0,0.0,0.0,0.0,0.0,0.0,0.0,0.0,0.0,0.0,0.0,0.0,0.0,0.0,0.0,0.0,0.0,0.0,0.0,0.0,0.0,0.0,0.0,0.0,0.0,0.0,0.0,0.0,3.3418,3.3418,3.334,3.3203,3.3203,3.3125,0.0,0.0,0.0,0.0,0.0,0.0,0.0,0.0,0.0,0.0,0.0,0.0,0.0,0.0,0.0,0.0,0.0,0.0,0.0,0.0,0.0,0.0,0.0,0.0,0.0,0.0,0.0,0.0,0.0,0.0,0.0,0.0,0.0,0.0,0.0,0.0,0.0,0.0,0.0,0.0,0.0,0.0,0.0,0.0,0.0,0.0,0.0,0.0,0.0,0.0,0.0,0.0,0.0,0.0,0.0,0.0,0.0,0.0,0.0,0.0,0.0,0.0,0.0,0.0,0.0,0.0,0.0,0.0,0.0,0.0,0.0,0.0,0.0,0.0,0.0,0.0,0.0,0.0,0.0,0.0,0.0,0.0,0.0,0.0,0.0,0.0,0.0,0.0,0.0,0.0,0.0,0.0,0.0,0.0,0.0,0.0,0.0,0.0,0.0,0.0,0.0,0.0,0.0,0.0,0.0,0.0,0.0,0.0,0.0,3.3418,0.0,3.3418,3.3418,3.3418,3.3418,0.0,0.0,0.0,0.0,0.0,0.0,0.0,0.0,0.0,0.0,0.0,0.0,0.0,0.0,0.0,0.0,0.0,0.0,0.0,0.0,0.0,0.0,0.0,0.0,0.0,0.0,0.0,0.0,0.0,0.0,0.0,0.0,0.0,0.0,0.0,0.0,0.0,0.0,0.0,0.0,0.0,0.0,0.0,0.0,0.0,0.0,0.0,0.0,0.0,0.0,0.0,0.0,0.0,0.0,0.0,0.0,0.0,0.0,0.0,0.0,0.0,0.0,0.0,0.0,0.0,0.0,0.0,0.0,0.0,0.0,0.0,0.0,0.0,0.0,0.0,0.0,0.0,0.0,0.0,0.0,0.0,0.0,0.0,0.0,0.0,0.0,0.0,0.0,0.0,0.0,0.0,0.0,0.0,0.0,0.0,0.0,0.0,0.0,0.0,0.0,0.0,0.0,0.0,0.0,0.0,0.0,0.0,0.0,3.3418,3.3418,3.3418,3.3418,3.3418,3.3418,3.3418,0.0,0.0,0.0,0.0,0.0,0.0,0.0,0.0,0.0,0.0,0.0,0.0,0.0,0.0,0.0,0.0,0.0,0.0,0.0,0.0,0.0,0.0,0.0,0.0,0.0,0.0,0.0,0.0,0.0,0.0,0.0,0.0,0.0,0.0,0.0,0.0,0.0,0.0,0.0,0.0,0.0,0.0,0.0,0.0,0.0,0.0,0.0,0.0,0.0,0.0,0.0,0.0,0.0,0.0,0.0,0.0,0.0,0.0,0.0,0.0,0.0,0.0,0.0,0.0,0.0,0.0,0.0,0.0,0.0,0.0,0.0,0.0,0.0,0.0,0.0,0.0,0.0,0.0,0.0,0.0,0.0,0.0,0.0,0.0,0.0,0.0,0.0,0.0,0.0,0.0,0.0,0.0,0.0,0.0,0.0,0.0,0.0,0.0,0.0,0.0,0.0,0.0,0.0,0.0,0.0,0.0,0.0,0.0,0.0,3.3418,3.3418,3.3418,3.3418,3.3418,3.3418,0.0,0.0,0.0,0.0,0.0,0.0,0.0,0.0,0.0,0.0,0.0,0.0,0.0,0.0,0.0,0.0,0.0,0.0,0.0,0.0,0.0,0.0,0.0,0.0,0.0,0.0,0.0,0.0,0.0,0.0,0.0,0.0,0.0,0.0,0.0,0.0,0.0,0.0,0.0,0.0,0.0,0.0,0.0,0.0,0.0,0.0,0.0,0.0,0.0,0.0,0.0,0.0,0.0,0.0,0.0,0.0,0.0,0.0,0.0,0.0,0.0,0.0,0.0,0.0,0.0,0.0,0.0,0.0,0.0,0.0,0.0,0.0,0.0,0.0,0.0,0.0,0.0,0.0,0.0,0.0,0.0,0.0,0.0,0.0,0.0,0.0,0.0,0.0,0.0,0.0,0.0,0.0,0.0,0.0,0.0,0.0,0.0,0.0,0.0,0.0,0.0,0.0,0.0,0.0,0.0,0.0,0.0,0.0,0.0,3.3418,3.3418,3.3418,3.3418,3.3418,3.3481,3.3607,0.0,0.0,0.0,0.0,0.0,0.0,0.0,0.0,0.0,0.0,0.0,0.0,0.0,0.0,0.0,0.0,0.0,0.0,0.0,0.0,0.0,0.0,0.0,0.0,0.0,0.0,0.0,0.0,0.0,0.0,0.0,0.0,0.0,0.0,0.0,0.0,0.0,0.0,0.0,0.0,0.0,0.0,0.0,0.0,0.0,0.0,0.0,0.0,0.0,0.0,0.0,0.0,0.0,0.0,0.0,0.0,0.0,0.0,0.0,0.0,0.0,0.0,0.0,0.0,0.0,0.0,0.0,0.0,0.0,0.0,0.0,0.0,0.0,0.0,0.0,0.0,0.0,0.0,0.0,0.0,0.0,0.0,0.0,0.0,0.0,0.0,0.0,0.0,0.0,0.0,0.0,0.0,0.0,0.0,0.0,0.0,0.0,0.0,0.0,0.0,0.0,0.0,0.0,0.0,0.0,0.0,0.0,0.0,3.3418,3.3418,3.3418,3.3418,3.3418,3.3607,0.0,0.0,0.0,0.0,0.0,0.0,0.0,0.0,0.0,0.0,0.0,0.0,0.0,0.0,0.0,0.0,0.0,0.0,0.0,0.0,0.0,0.0,0.0,0.0,0.0,0.0,0.0,0.0,0.0,0.0,0.0,0.0,0.0,0.0,0.0,0.0,0.0,0.0,0.0,0.0,0.0,0.0,0.0,0.0,0.0,0.0,0.0,0.0,0.0,0.0,0.0,0.0,0.0,0.0,0.0,0.0,0.0,0.0,0.0,0.0,0.0,0.0,0.0,0.0,0.0,0.0,0.0,0.0,0.0,0.0,0.0,0.0,0.0,0.0,0.0,0.0,0.0,0.0,0.0,0.0,0.0,0.0,0.0,0.0,0.0,0.0,0.0,0.0,0.0,0.0,0.0,0.0,0.0,0.0,0.0,0.0,0.0,0.0,0.0,0.0,0.0,0.0,0.0,0.0,0.0,0.0,0.0,0.0,0.0,3.3418,3.3418,3.3418,3.3418,3.367,3.3796,0.0,0.0,0.0,0.0,0.0,0.0,0.0,0.0,0.0,0.0,0.0,0.0,0.0,0.0,0.0,0.0,0.0,0.0,0.0,0.0,0.0,0.0,0.0,0.0,0.0,0.0,0.0,0.0,0.0,0.0,0.0,0.0,0.0,0.0,0.0,0.0,0.0,0.0,0.0,0.0,0.0,0.0,0.0,0.0,0.0,0.0,0.0,0.0,0.0,0.0,0.0,0.0,0.0,0.0,0.0,0.0,0.0,0.0,0.0,0.0,0.0,0.0,0.0,0.0,0.0,0.0,0.0,0.0,0.0,0.0,0.0,0.0,0.0,0.0,0.0,0.0,0.0,0.0,0.0,0.0,0.0,0.0,0.0,0.0,0.0,0.0,0.0,0.0,0.0,0.0,0.0,0.0,0.0,0.0,0.0,0.0,0.0,0.0,0.0,0.0,0.0,0.0,0.0,0.0,0.0,0.0,0.0,0.0,3.3418,3.3418,3.3418,3.3481,3.3607,3.3796,3.411,0.0,0.0,0.0,0.0,0.0,0.0,0.0,0.0,0.0,0.0,0.0,0.0,0.0,0.0,0.0,0.0,0.0,0.0,0.0,0.0,0.0,0.0,0.0,0.0,0.0,0.0,0.0,0.0,0.0,0.0,0.0,0.0,0.0,0.0,0.0,0.0,0.0,0.0,0.0,0.0,0.0,0.0,0.0,0.0,0.0,0.0,0.0,0.0,0.0,0.0,0.0,0.0,0.0,0.0,0.0,0.0,0.0,0.0,0.0,0.0,0.0,0.0,0.0,0.0,0.0,0.0,0.0,0.0,0.0,0.0,0.0,0.0,0.0,0.0,0.0,0.0,0.0,0.0,0.0,0.0,0.0,0.0,0.0,0.0,0.0,0.0,0.0,0.0,0.0,0.0,0.0,0.0,0.0,0.0,0.0,0.0,0.0,0.0,0.0,0.0,0.0,0.0,0.0,0.0,0.0,0.0,0.0,0.0,3.3418,3.3418,3.3418,3.3607,3.3922,3.3985,3.4423,0.0,0.0,0.0,0.0,0.0,0.0,0.0,0.0,0.0,0.0,0.0,0.0,0.0,0.0,0.0,0.0,0.0,0.0,0.0,0.0,0.0,0.0,0.0,0.0,0.0,0.0,0.0,0.0,0.0,0.0,0.0,0.0,0.0,0.0,0.0,0.0,0.0,0.0,0.0,0.0,0.0,0.0,0.0,0.0,0.0,0.0,0.0,0.0,0.0,0.0,0.0,0.0,0.0,0.0,0.0,0.0,0.0,0.0,0.0,0.0,0.0,0.0,0.0,0.0,0.0,0.0,0.0,0.0,0.0,0.0,0.0,0.0,0.0,0.0,0.0,0.0,0.0,0.0,0.0,0.0,0.0,0.0,0.0,0.0,0.0,0.0,0.0,0.0,0.0,0.0,0.0,0.0,0.0,0.0,0.0,0.0,0.0,0.0,0.0,0.0,0.0,0.0,0.0,0.0,0.0,0.0,0.0,0.0,3.3418,3.3418,3.3418,3.367,3.4298,3.4298,3.4673,0.0,0.0,0.0,0.0,0.0,0.0,0.0,0.0,0.0,0.0,0.0,0.0,0.0,0.0,0.0,0.0,0.0,0.0,0.0,0.0,0.0,0.0,0.0,0.0,0.0,0.0,0.0,0.0,0.0,0.0,0.0,0.0,0.0,0.0,0.0,0.0,0.0,0.0,0.0,0.0,0.0,0.0,0.0,0.0,0.0,0.0,0.0,0.0,2.8301,0.0,0.0,0.0,0.0,0.0,0.0,0.0,0.0,0.0,0.0,0.0,0.0,0.0,0.0,0.0,0.0,0.0,0.0,0.0,0.0,0.0,0.0,0.0,0.0,0.0,0.0,0.0,0.0,0.0,0.0,0.0,0.0,0.0,0.0,0.0,0.0,0.0,0.0,0.0,0.0,0.0,0.0,0.0,0.0,0.0,0.0,0.0,0.0,0.0,0.0,0.0,0.0,0.0,0.0,0.0,0.0,0.0,0.0,0.0,3.3418,3.3418,3.3544,3.3859,3.436,3.4735,3.517,0.0,0.0,0.0,0.0,0.0,0.0,0.0,0.0,0.0,0.0,0.0,0.0,0.0,0.0,0.0,0.0,0.0,0.0,0.0,0.0,0.0,0.0,0.0,0.0,0.0,0.0,0.0,0.0,0.0,0.0,0.0,0.0,0.0,0.0,0.0,0.0,0.0,0.0,0.0,0.0,0.0,0.0,0.0,0.0,0.0,0.0,0.0,0.0,0.0,0.0,0.0,0.0,0.0,0.0,0.0,0.0,0.0,0.0,0.0,0.0,0.0,0.0,0.0,0.0,0.0,0.0,0.0,0.0,0.0,0.0,0.0,0.0,0.0,0.0,0.0,0.0,0.0,0.0,0.0,0.0,0.0,0.0,0.0,0.0,0.0,0.0,0.0,0.0,0.0,0.0,0.0,0.0,0.0,0.0,0.0,0.0,0.0,0.0,0.0,0.0,0.0,0.0,0.0,0.0,0.0,0.0,0.0,3.3418,3.3418,3.3418,3.3733,3.4047,3.4485,3.5108,3.5788,3.6545,0.0,0.0,0.0,0.0,0.0,0.0,0.0,0.0,0.0,0.0,0.0,0.0,0.0,0.0,0.0,0.0,0.0,0.0,0.0,0.0,0.0,0.0,0.0,0.0,0.0,0.0,0.0,0.0,0.0,0.0,0.0,0.0,0.0,0.0,0.0,0.0,0.0,0.0,2.9132,2.9237,0.0,0.0,0.0,0.0,0.0,0.0,0.0,0.0,2.9132,0.0,0.0,0.0,0.0,0.0,0.0,0.0,0.0,0.0,0.0,0.0,0.0,0.0,0.0,0.0,0.0,0.0,0.0,0.0,0.0,0.0,0.0,0.0,0.0,0.0,0.0,0.0,0.0,0.0,0.0,0.0,0.0,0.0,0.0,0.0,0.0,0.0,0.0,0.0,0.0,0.0,0.0,0.0,0.0,0.0,0.0,0.0,0.0,0.0,0.0,0.0,0.0,0.0,0.0,0.0,0.0,3.3418,3.3418,3.3418,3.3418,3.3733,3.4235,3.4797,3.5479,3.6279,3.7193,0.0,0.0,0.0,0.0,0.0,0.0,0.0,0.0,0.0,0.0,0.0,0.0,0.0,0.0,0.0,0.0,0.0,0.0,0.0,0.0,0.0,0.0,0.0,0.0,0.0,0.0,0.0,0.0,0.0,0.0,0.0,0.0,0.0,0.0,0.0,0.0,0.0,0.0,0.0,2.9711,3.0026,0.0,0.0,0.0,0.0,0.0,0.0,0.0,0.0,2.9079,0.0,0.0,0.0,0.0,0.0,0.0,0.0,0.0,0.0,0.0,0.0,0.0,0.0,0.0,0.0,0.0,0.0,0.0,0.0,0.0,0.0,0.0,0.0,0.0,0.0,0.0,0.0,0.0,0.0,0.0,0.0,0.0,0.0,0.0,0.0,0.0,0.0,0.0,0.0,0.0,0.0,0.0,0.0,0.0,0.0,0.0,0.0,0.0,0.0,0.0,0.0,0.0,0.0,0.0,0.0,3.367,3.367,3.3733,3.3922,3.4423,3.4859,3.517,3.6156,3.7011,0.0,0.0,0.0,0.0,0.0,0.0,0.0,0.0,0.0,0.0,0.0,0.0,0.0,0.0,0.0,0.0,0.0,0.0,0.0,0.0,0.0,0.0,0.0,0.0,0.0,0.0,0.0,0.0,0.0,0.0,0.0,0.0,0.0,0.0,0.0,0.0,0.0,0.0,0.0,0.0,3.0339,3.0516,3.0256,0.0,0.0,0.0,0.0,0.0,0.0,2.9973,2.9921,0.0,0.0,0.0,0.0,0.0,0.0,0.0,0.0,0.0,0.0,0.0,0.0,0.0,0.0,0.0,0.0,0.0,0.0,0.0,0.0,0.0,0.0,0.0,0.0,0.0,0.0,0.0,0.0,0.0,0.0,0.0,0.0,0.0,0.0,0.0,0.0,0.0,0.0,0.0,0.0,0.0,0.0,0.0,0.0,0.0,0.0,0.0,0.0,0.0,0.0,0.0,0.0,0.0,0.0,0.0,3.3922,3.3985,3.4173,3.4485,3.5108,3.5479,3.5726,3.6828,3.7616,0.0,0.0,0.0,0.0,0.0,0.0,0.0,0.0,0.0,0.0,0.0,0.0,0.0,0.0,0.0,0.0,0.0,0.0,0.0,0.0,0.0,0.0,0.0,0.0,0.0,0.0,0.0,0.0,0.0,0.0,0.0,0.0,0.0,0.0,0.0,0.0,0.0,0.0,0.0,0.0,0.0,3.1086,3.1034,3.1137,0.0,0.0,0.0,0.0,3.0983,3.0983,0.0,0.0,0.0,0.0,0.0,0.0,0.0,0.0,0.0,0.0,0.0,0.0,0.0,0.0,0.0,0.0,0.0,0.0,0.0,0.0,0.0,0.0,0.0,0.0,0.0,0.0,0.0,0.0,0.0,0.0,0.0,0.0,0.0,0.0,0.0,0.0,0.0,0.0,0.0,0.0,0.0,0.0,0.0,0.0,0.0,0.0,0.0,0.0,0.0,0.0,0.0,0.0,0.0,0.0,0.0,0.0,3.3922,3.4173,3.4548,3.4859,3.517,3.5849,3.6685,3.7193,3.7796,0.0,0.0,0.0,0.0,0.0,0.0,0.0,0.0,0.0,0.0,0.0,0.0,0.0,0.0,0.0,0.0,0.0,0.0,0.0,0.0,0.0,0.0,0.0,0.0,0.0,0.0,0.0,0.0,0.0,0.0,0.0,0.0,0.0,0.0,0.0,0.0,0.0,0.0,0.0,0.0,0.0,3.219,3.1913,3.2139,3.219,0.0,0.0,3.1761,3.1527,3.1527,0.0,0.0,0.0,0.0,0.0,0.0,0.0,0.0,0.0,0.0,0.0,0.0,0.0,0.0,0.0,0.0,0.0,0.0,0.0,0.0,0.0,0.0,0.0,0.0,0.0,0.0,0.0,0.0,0.0,0.0,0.0,0.0,0.0,0.0,0.0,0.0,0.0,0.0,0.0,0.0,0.0,0.0,0.0,0.0,0.0,0.0,0.0,0.0,0.0,0.0,0.0,0.0,0.0,0.0,0.0,3.436,3.4735,3.4922,3.5294,3.6013,3.634,3.6828,3.7435,3.7916,3.8455,0.0,0.0,0.0,0.0,0.0,0.0,0.0,0.0,0.0,0.0,0.0,0.0,0.0,0.0,0.0,0.0,0.0,0.0,0.0,0.0,0.0,0.0,0.0,0.0,0.0,0.0,0.0,0.0,0.0,0.0,0.0,0.0,0.0,0.0,0.0,0.0,0.0,0.0,0.0,0.0,0.0,0.0,3.2291,3.2392,0.0,0.0,0.0,3.224,3.2139,0.0,0.0,0.0,0.0,0.0,0.0,0.0,0.0,0.0,0.0,0.0,0.0,0.0,0.0,0.0,0.0,0.0,0.0,0.0,0.0,0.0,0.0,0.0,0.0,0.0,0.0,0.0,0.0,0.0,0.0,0.0,0.0,0.0,0.0,0.0,0.0,0.0,0.0,0.0,0.0,0.0,0.0,0.0,0.0,0.0,0.0,0.0,0.0,0.0,0.0,0.0,0.0,0.0,0.0,0.0,0.0,0.0,3.55,3.5665,3.6156,3.7011,3.7374,3.7736,3.8238,3.8693,0.0,0.0,0.0,0.0,0.0,0.0,0.0,0.0,0.0,0.0,0.0,0.0,0.0,0.0,0.0,0.0,0.0,0.0,0.0,0.0,0.0,0.0,0.0,0.0,0.0,0.0,0.0,3.5545,0.0,0.0,0.0,0.0,0.0,0.0,0.0,0.0,0.0,0.0,0.0,0.0,0.0,0.0,3.2853,3.2718,3.2718,3.2695,0.0,0.0,3.2718,3.2695,3.2745,3.2818,0.0,0.0,0.0,0.0,0.0,0.0,0.0,0.0,0.0,0.0,0.0,0.0,0.0,0.0,0.0,0.0,0.0,0.0,0.0,0.0,0.0,0.0,0.0,0.0,0.0,0.0,0.0,0.0,0.0,0.0,0.0,0.0,0.0,0.0,0.0,0.0,0.0,0.0,0.0,0.0,0.0,0.0,0.0,0.0,0.0,0.0,0.0,0.0,0.0,0.0,0.0,0.0,0.0,0.0,0.0,3.587,3.6524,3.7011,3.7374,3.7698,3.8298,3.919,3.9249,3.9521,0.0,0.0,0.0,0.0,0.0,0.0,0.0,0.0,0.0,0.0,0.0,0.0,0.0,0.0,0.0,0.0,0.0,0.0,0.0,0.0,0.0,0.0,0.0,0.0,0.0,0.0,0.0,0.0,0.0,0.0,0.0,0.0,0.0,0.0,0.0,0.0,0.0,0.0,0.0,0.0,0.0,3.3724,3.3288,3.322,3.3242,0.0,0.0,3.3242,3.3242,3.3492,3.3641,3.3618,0.0,0.0,0.0,0.0,0.0,0.0,0.0,0.0,0.0,0.0,0.0,0.0,0.0,0.0,0.0,0.0,0.0,0.0,0.0,0.0,0.0,0.0,0.0,0.0,0.0,0.0,0.0,0.0,0.0,0.0,0.0,0.0,0.0,0.0,0.0,0.0,0.0,0.0,0.0,0.0,0.0,0.0,0.0,0.0,0.0,0.0,0.0,0.0,0.0,0.0,0.0,0.0,0.0,3.6462,3.6828,3.7413,3.8014,3.8574,3.8871,3.9285,3.9814,3.9873,4.0071,0.0,0.0,0.0,0.0,0.0,0.0,0.0,0.0,0.0,0.0,0.0,0.0,0.0,0.0,0.0,0.0,0.0,0.0,0.0,0.0,0.0,0.0,0.0,0.0,0.0,0.0,0.0,0.0,3.4775,3.4775,3.4775,0.0,0.0,0.0,0.0,0.0,0.0,0.0,0.0,0.0,0.0,3.4755,3.4722,3.4597,0.0,0.0,3.383,3.3614,3.3338,3.3542,3.3668,3.3668,3.3817,0.0,0.0,0.0,0.0,0.0,0.0,0.0,0.0,0.0,0.0,0.0,0.0,0.0,0.0,0.0,0.0,0.0,0.0,0.0,0.0,0.0,0.0,0.0,0.0,0.0,0.0,0.0,0.0,0.0,0.0,0.0,0.0,0.0,0.0,0.0,0.0,0.0,0.0,0.0,0.0,0.0,0.0,0.0,0.0,0.0,0.0,0.0,0.0,0.0,0.0,0.0,0.0,3.7374,3.7698,3.8276,3.8789,3.9308,3.9697,4.0048,4.0363,4.0363,4.0479,0.0,0.0,0.0,0.0,0.0,0.0,0.0,0.0,0.0,0.0,0.0,0.0,0.0,0.0,0.0,0.0,0.0,0.0,0.0,0.0,0.0,0.0,0.0,0.0,0.0,0.0,0.0,0.0,3.4968,3.5064,3.5064,0.0,0.0,0.0,0.0,0.0,0.0,0.0,0.0,0.0,0.0,3.5549,3.5592,3.5413,3.5193,3.4843,3.4593,3.4305,3.3819,3.4,3.4103,3.3939,0.0,0.0,0.0,0.0,0.0,0.0,0.0,0.0,0.0,0.0,0.0,0.0,0.0,0.0,0.0,0.0,0.0,0.0,0.0,0.0,0.0,0.0,0.0,0.0,0.0,0.0,0.0,0.0,0.0,0.0,4.0165,0.0,0.0,0.0,0.0,0.0,0.0,0.0,0.0,0.0,0.0,0.0,0.0,0.0,0.0,0.0,0.0,0.0,0.0,0.0,0.0,0.0,0.0,3.8058,3.838,3.8953,3.9308,3.9367,3.9873,4.0339,4.0677,4.0677,4.085,4.1196,0.0,0.0,0.0,0.0,0.0,0.0,0.0,0.0,0.0,0.0,0.0,0.0,0.0,0.0,0.0,0.0,0.0,0.0,0.0,0.0,0.0,0.0,0.0,0.0,0.0,0.0,3.4895,3.528,3.5593,0.0,0.0,0.0,0.0,0.0,0.0,0.0,0.0,0.0,0.0,3.6391,3.6179,3.5737,3.5592,3.5615,3.5568,3.5568,3.538,3.4836,3.4993,3.4978,0.0,0.0,0.0,0.0,0.0,0.0,0.0,0.0,0.0,0.0,0.0,0.0,0.0,0.0,0.0,0.0,0.0,0.0,0.0,0.0,0.0,0.0,0.0,0.0,0.0,0.0,0.0,4.1152,4.0964,0.0,0.0,0.0,0.0,0.0,0.0,0.0,0.0,0.0,0.0,0.0,3.9755,3.9755,0.0,0.0,0.0,0.0,0.0,0.0,0.0,0.0,0.0,0.0,0.0,0.0,3.8894,3.9012,3.9837,4.0246,4.0246,4.0653,4.0942,4.1,4.1,4.1081,4.1172,0.0,0.0,0.0,0.0,0.0,0.0,0.0,0.0,0.0,0.0,0.0,0.0,0.0,0.0,0.0,0.0,0.0,0.0,0.0,0.0,0.0,0.0,0.0,0.0,0.0,3.5545,0.0,0.0,0.0,0.0,0.0,0.0,0.0,0.0,0.0,0.0,0.0,3.7126,3.7198,3.7175,3.721,3.7207,3.7049,3.6825,0.0,0.0,0.0,0.0,0.0,0.0,0.0,0.0,0.0,0.0,0.0,0.0,0.0,0.0,3.2348,3.209,3.0846,2.9716,2.9471,0.0,0.0,0.0,0.0,0.0,0.0,0.0,0.0,0.0,0.0,0.0,0.0,0.0,0.0,0.0,0.0,4.2136,0.0,0.0,0.0,0.0,0.0,0.0,0.0,0.0,4.0822,4.0763,4.0763,4.0763,4.0763,0.0,4.0881,4.0645,0.0,0.0,0.0,0.0,0.0,0.0,0.0,0.0,3.9672,3.9916,4.0646,4.1068,4.1258,4.155,4.1653,4.1461,4.1268,4.1196,4.1196,4.1196,4.1196,0.0,0.0,0.0,0.0,0.0,0.0,0.0,0.0,0.0,0.0,0.0,0.0,0.0,0.0,0.0,0.0,0.0,0.0,0.0,0.0,0.0,0.0,0.0,3.5617,0.0,0.0,0.0,0.0,0.0,0.0,0.0,0.0,0.0,3.7732,3.7572,3.7518,3.7679,3.7732,3.7785,3.7974,0.0,0.0,0.0,0.0,0.0,0.0,0.0,3.6371,3.618,3.597,3.5881,3.5905,3.5168,3.4607,3.4369,0.0,0.0,3.269,3.1519,3.0622,3.045,2.9547,2.8661,2.788,2.76,2.7251,0.0,0.0,0.0,0.0,0.0,0.0,0.0,0.0,4.2255,4.2436,0.0,4.2664,0.0,0.0,0.0,0.0,0.0,4.2436,0.0,0.0,4.1932,4.1835,4.1811,4.1811,4.1835,4.1811,4.2136,4.2136,4.1764,4.0822,0.0,0.0,0.0,0.0,0.0,0.0,4.0505,4.0999,4.1342,4.1757,4.2317,4.2616,4.2554,4.1966,4.1485,4.122,4.1196,4.1196,4.1172,4.1172,4.1148,0.0,0.0,0.0,0.0,0.0,0.0,0.0,0.0,0.0,0.0,0.0,0.0,0.0,0.0,0.0,0.0,0.0,0.0,0.0,0.0,3.5593,0.0,0.0,0.0,0.0,0.0,0.0,0.0,0.0,0.0,0.0,3.7974,3.7974,3.7974,3.7974,0.0,0.0,0.0,0.0,3.7974,3.7974,3.7974,3.7805,3.73,3.7204,3.706,3.6555,0.0,0.0,3.6411,3.5928,3.5404,3.4933,3.418,3.3481,3.3101,3.2234,3.1476,3.1112,3.05,2.9825,2.8974,2.8719,2.8499,4.5717,0.0,0.0,0.0,0.0,4.4626,4.4444,4.4132,4.4257,4.3887,4.3168,4.3228,0.0,0.0,0.0,0.0,0.0,0.0,4.264,4.264,4.258,4.252,4.2496,4.2496,4.252,4.252,4.264,4.246,4.2136,4.209,4.1579,4.0669,0.0,0.0,0.0,0.0,4.1401,4.1899,4.2245,4.2496,4.264,4.276,4.2578,4.199,4.1822,4.1581,4.1196,4.1196,4.1004,4.0643,4.0619,0.0,0.0,0.0,0.0,0.0,0.0,0.0,0.0,0.0,0.0,0.0,0.0,0.0,0.0,0.0,0.0,0.0,0.0,0.0,3.5087,3.54,3.5761,0.0,0.0,0.0,0.0,0.0,0.0,0.0,0.0,0.0,3.7974,3.7974,3.7974,0.0,0.0,3.7974,3.7974,3.7974,3.7974,3.7974,0.0,0.0,0.0,3.7757,3.7709,3.7541,3.7228,3.6843,3.6459,3.5951,3.5545,3.538,3.4866,3.4429,3.4217,3.2965,3.1913,3.1686,3.128,3.067,2.9939,2.9459,2.8971,4.7537,4.6494,4.5663,4.5395,4.5613,4.5613,4.555,4.5453,4.5453,4.5068,4.4467,4.4467,4.4178,4.3697,4.3481,0.0,0.0,0.0,4.3385,4.3385,4.3385,4.3385,4.3385,4.3385,4.3385,4.3385,4.3385,4.3264,4.3081,4.3108,4.2724,4.2006,0.0,0.0,4.1721,4.1923,4.2245,4.2723,4.2988,4.3168,4.3385,4.3168,4.2904,4.2591,4.2206,4.1822,4.1509,4.1293,4.1028,4.0715,4.0715,4.0715,0.0,0.0,0.0,0.0,0.0,0.0,0.0,0.0,0.0,0.0,0.0,4.0042,3.92,0.0,0.0,0.0,3.6723,3.6146,3.5521,3.593,0.0,0.0,0.0,0.0,0.0,0.0,0.0,3.8286,3.831,3.8407,3.8599,3.8623,3.8551,3.8334,3.831,3.8383,3.8599,0.0,3.8623,3.8623,3.8623,3.8623,3.8623,3.8623,3.8623,3.8623,3.819,3.7757,3.7445,3.6839,3.6365,3.61,3.5689,3.5405,3.5173,3.4079,3.309,3.2705,3.217,3.152,3.0882,3.0483,3.0041,4.9133,4.8964,4.7016,4.6199,4.6175,4.6175,4.6126,4.6054,4.6054,4.6006,4.5934,4.5934,4.5645,4.5101,4.4621,0.0,4.4405,4.4405,4.4405,4.4405,4.4429,4.4405,4.4405,4.4405,4.4405,4.4405,4.4405,4.4405,4.4381,4.3914,4.3649,4.3625,4.3144,4.2916,4.2891,4.2891,4.3072,4.3577,4.3577,4.378,4.4261,4.3842,4.3553,4.3481,4.2591,4.2062,4.1966,4.1509,4.122,4.1124,4.1124,4.1124,4.1124,0.0,0.0,0.0,0.0,0.0,0.0,0.0,0.0,0.0,0.0,0.0,0.0,0.0,0.0,0.0,3.6771,0.0,3.6411,3.6867,0.0,0.0,0.0,3.8046,3.8046,3.8094,3.831,3.8839,0.0,0.0,0.0,0.0,3.9441,3.9008,3.8912,3.9056,3.9537,3.9561,3.9609,3.9537,3.9585,3.9585,3.9489,3.9513,3.9513,3.9489,3.92,3.8864,3.8713,3.8138,3.7477,3.7025,3.6696,3.632,3.5803,3.5427,3.4982,3.4028,3.3147,3.2409,3.1929,3.1629,3.1359,4.9686,4.9589,4.87,4.8339,4.8339,4.8315,4.7858,4.7136,4.7112,4.668,4.5934,4.5934,4.5798,4.5654,4.5534,4.5486,4.5549,4.5549,4.5486,4.5549,4.5549,4.5549,4.5549,4.5549,4.5549,4.5549,4.5486,4.5486,4.5525,4.4933,4.4693,4.4732,4.4227,4.3746,4.3337,4.3337,4.3601,4.4093,4.4093,4.4165,4.4261,4.4141,4.3938,4.3505,4.3289,4.2784,4.2014,4.1904,4.1413,4.0643,4.0595,4.0571,4.0595,4.0595,0.0,0.0,0.0,0.0,0.0,0.0,0.0,0.0,0.0,4.0162,3.9657,0.0,3.8527,0.0,3.73,3.6843,3.6459,3.6892,0.0,0.0,3.8046,3.8623,3.8623,3.8984,3.9272,3.9417,3.9417,3.9465,3.9585,3.9609,3.9705,3.9946,3.9681,3.9465,3.9609,3.9609,3.9609,3.9633,3.9657,3.9609,3.9633,3.9609,3.9633,3.9609,3.9513,3.9417,3.9417,3.8766,3.8143,3.8,3.7429,3.6932,3.6767,3.6409,3.6098,3.5678,3.4463,3.3311,3.3157,3.2508,3.1885,5.0936,5.0888,5.0383,5.0143,5.0119,4.9373,4.8748,4.8219,4.8195,4.7882,4.7305,4.6824,4.6487,4.6271,4.603,4.5934,4.5934,4.5934,4.5934,4.5934,4.5934,4.5934,4.5934,4.5934,4.5934,4.5934,4.5934,4.5934,4.591,4.5621,4.5501,4.5414,4.5149,4.49,4.4587,4.413,4.3973,4.4285,4.4285,4.4285,4.4285,4.4285,4.4141,4.389,4.3625,4.3144,4.241,4.2145,4.1663,4.0812,4.0739,4.0739,4.0739,4.0739,4.0884,0.0,0.0,0.0,0.0,0.0,0.0,0.0,0.0,0.0,0.0,0.0,3.8936,3.8407,3.8286,3.8142,3.7853,3.8094,3.8262,3.8262,3.8815,3.9152,3.9176,3.9441,3.9705,3.9946,3.9946,4.0042,4.0282,4.0306,4.0403,4.0715,4.0499,4.0306,4.0306,4.0306,4.0306,4.0306,4.0306,4.0306,4.0306,4.0306,4.0306,4.0282,4.0114,3.997,3.9946,3.9402,3.8885,3.8592,3.8173,3.778,3.7542,3.7198,3.6956,3.6756,3.5824,3.4826,3.4395,3.368,3.3011,5.2283,5.2235,5.1778,5.1586,5.1489,5.0022,4.9301,4.9181,4.9181,4.9133,4.9012,4.8098,4.7449,4.6992,4.6463,4.6223,4.6223,4.615,4.6126,4.6126,4.6126,4.6126,4.6126,4.6126,4.6126,4.6126,4.6126,4.6126,4.6126,4.6054,4.603,4.603,4.5958,4.5934,4.5886,4.4957,4.4453,4.4381,4.4381,4.4357,4.4285,4.4285,4.4285,4.4261,4.3866,4.3361,4.288,4.241,4.1904,4.1317,4.122,4.1196,4.1196,4.1196,4.1196,0.0,4.1196,0.0,0.0,0.0,0.0,0.0,0.0,0.0,0.0,3.9898,3.9417,3.896,3.9345,3.9609,3.9609,3.9609,3.9609,3.9609,3.9657,3.9705,3.9705,3.9753,3.9994,4.0451,4.0499,4.0667,4.1076,4.1196,4.1172,4.1148,4.1124,4.1076,4.1148,4.1124,4.11,4.1196,4.1196,4.1052,4.1076,4.1124,4.1124,4.11,4.0787,4.0499,4.0499,4.0066,3.9585,3.9152,3.8857,3.8593,3.8166,3.7857,3.7625,3.7601,3.7009,3.6297,3.552,3.4904,3.4426,5.2283,5.2283,5.2187,5.2115,5.2067,5.1345,5.0527,4.971,4.971,4.9469,4.906,4.8868,4.8724,4.8579,4.8074,4.7858,4.781,4.7401,4.7209,4.7209,4.7209,4.7209,4.7209,4.7209,4.7209,4.7209,4.7209,4.7209,4.7185,4.6776,4.6559,4.6559,4.615,4.5934,4.591,0.0,0.0,0.0,4.4909,4.4717,4.4309,4.4285,4.4285,4.4285,4.4189,0.0,4.3385,4.288,4.2434,4.1846,4.1413,0.0,0.0,0.0,0.0,0.0,0.0,0.0,0.0,0.0,0.0,0.0,4.1196,4.0956,4.0451,3.9922,3.9561,3.9465,3.9561,3.9609,3.9609,3.9609,3.9609,3.9633,3.9994,4.0258,4.0258,4.0619,4.0932,4.1004,4.1028,4.1052,4.1148,4.1196,4.1196,4.1196,4.1196,4.1196,4.1196,4.1196,4.1196,4.1196,4.1196,4.1196,4.1196,4.1196,4.1196,4.1172,4.1124,4.1028,4.098,4.0595,4.0258,4.0042,3.9393,3.8815,3.8647,3.8257,3.7969,3.7921,3.7796,3.7369,3.6396,3.5751,3.5296,5.3029,0.0,5.2788,5.2668,0.0,5.2091,5.1562,5.1032,5.0503,4.9974,4.9469,4.9538,4.9325,4.906,4.8796,4.8676,4.8676,4.8387,4.8267,4.8291,4.8267,4.8267,4.8267,4.8002,4.7882,4.7882,4.7617,4.7497,4.7473,4.7233,4.7112,4.7088,4.6824,4.6704,4.6704,4.6704,4.6319,4.5462,4.5462,4.5197,4.4693,4.4669,4.4549,4.4309,0.0,0.0,0.0,0.0,0.0,0.0,0.0,0.0,0.0,0.0,0.0,4.1196,4.1196,4.1196,4.1196,4.1196,4.1196,4.1196,4.1196,4.0956,4.0427,4.0379,4.0282,4.0042,4.0234,4.0379,4.0379,4.0379,4.0379,4.0403,4.0619,4.0787,4.0812,4.1004,4.1172,4.1196,4.1196,4.1196,4.1196,4.1196,4.1196,4.1196,4.1196,4.1196,4.1196,4.1196,4.1196,4.1196,4.1196,4.1196,4.1196,4.1196,4.1196,4.1196,4.1196,4.1196,4.1196,4.0956,4.0715,4.0427,3.9922,3.9465,3.8912,3.8575,3.831,3.807,3.7974,3.7873,3.7268,3.6763,3.6279,5.3822,5.3774,5.3365,5.3197,5.3173,5.2644,5.2355,5.2211,0.0,0.0,0.0,4.9998,4.9782,4.9349,4.9277,4.9229,4.9205,4.9109,4.9084,4.9084,4.9084,4.9084,4.906,4.8628,4.8435,4.8411,4.7882,4.7642,4.7642,4.7545,4.7497,4.7497,4.7497,4.7497,4.7497,4.7497,4.7064,4.6247,4.6102,4.5814,4.5221,4.5188,4.4861,4.4429,4.4333,4.413,4.3673,4.3553,4.3313,4.2904,4.2375,4.211,4.2086,4.1605,4.1317,4.1317,4.122,4.1196,4.1196,4.1196,4.1196,4.1196,4.1196,4.1004,4.0571,4.0932,4.1004,4.0571,4.0932,4.1172,4.1196,4.1196,4.1196,4.1196,4.1196,4.1172,4.1172,4.1196,4.1196,4.1196,4.1196,4.1196,4.1196,4.1196,4.1196,4.1196,4.1196,4.1196,4.1196,4.1196,4.1196,4.1196,4.1196,4.1196,4.1196,4.1196,4.1196,4.1196,4.1196,4.1196,4.1196,4.1196,4.1004,4.0643,4.0475,4.0018,3.9296,3.896,3.8671,3.8214,3.8046,3.7974,3.795,3.7637,3.7192,5.3822,5.3822,5.375,5.3726,5.3678,5.3173,5.2692,5.2235,5.1634,5.1081,5.0576,5.0576,5.0551,5.0455,4.9974,4.9827,4.9734,4.9277,4.9084,0.0,4.9084,4.9084,4.9084,4.9012,4.8964,4.8916,4.8435,4.8171,4.8122,4.7738,4.7497,4.7497,4.7497,4.7497,4.7497,4.7497,4.7425,4.7281,4.6824,4.6343,4.575,4.5381,4.5029,4.4957,4.4525,4.4261,4.4227,4.377,4.3481,4.3409,4.2928,4.2699,4.2699,4.2158,4.187,4.1846,4.1437,4.1196,4.1196,4.1196,4.1196,4.1196,4.1196,4.1148,4.1076,4.1148,4.1148,4.1076,4.1148,4.1196,4.1196,4.1196,4.1196,4.1196,4.1196,4.1196,4.1196,4.1196,4.1196,4.1196,4.1196,4.1196,4.1196,4.1196,4.1196,4.1196,4.1196,4.1196,4.1196,4.1196,4.1196,4.1196,4.1196,4.1196,4.1196,4.1196,4.1196,4.1196,4.1196,4.1196,4.1196,4.1196,4.1124,4.1076,4.0715,4.0379,4.009,3.9393,3.8912,3.8647,3.831,3.7998,3.7974,3.7878,3.7748,5.3822,5.3822,5.3822,5.3822,5.3798,5.3558,5.3173,5.2692,5.2451,5.1874,5.1129,5.084,5.0696,5.0696,5.0431,5.0335,5.0311,5.007,4.995,4.995,4.995,4.9974,4.995,4.9731,4.9517,4.9469,4.8964,4.8724,4.8676,4.8195,4.793,4.7906,4.7642,4.7497,4.7497,4.7497,4.7497,4.7497,4.7257,4.6872,4.6367,4.6126,4.5718,4.5101,4.49,4.4573,4.4285,4.4045,4.3901,4.3901,4.3457,4.3168,4.3144,4.2687,4.2458,4.2458,4.2241,4.2038,4.2038,4.2097,4.2097,4.2097,4.2097,4.2097,4.2097,4.1509,4.1196,4.1196,4.1196,4.1196,4.1196,4.1196,4.1196,4.1196,4.1196,4.1196,4.1196,4.1196,4.1196,4.1196,4.1196,4.1196,4.1196,4.1196,4.1196,4.1196,4.1196,4.1196,4.1196,4.1196,4.1196,4.1196,4.1196,4.1196,4.1196,4.1196,4.1196,4.1196,4.1196,4.1196,4.1196,4.1196,4.1196,4.1172,4.0956,4.0715,4.0475,3.9777,3.9248,3.8791,3.8383,3.8022,3.7974,3.7974,3.7868,5.3822,5.3822,5.3822,5.3822,5.3822,5.3822,5.3606,5.3245,5.3125,5.262,5.1826,5.1177,5.0816,5.072,5.0696,5.0696,5.0696,5.0696,5.0696,5.0696,5.0696,5.0696,5.0672,5.0239,5.0046,4.9998,4.9517,4.9253,4.9205,4.8724,4.8411,4.8267,4.7882,4.7617,4.7497,4.7497,4.7497,4.7497,4.7497,4.7305,4.692,4.6776,4.6319,4.551,4.5173,4.4885,4.4501,4.4357,4.4285,4.4261,4.3877,4.3697,4.3673,4.3216,4.2928,4.2988,4.2867,4.2819,4.2819,4.2819,4.2819,4.2819,4.2819,4.2819,4.2747,4.2014,4.1591,4.1533,4.1461,4.1389,4.1365,4.1244,4.1196,4.1196,4.1196,4.1196,4.1196,4.1196,4.1196,4.1196,4.1196,4.1196,4.1196,4.1196,4.1196,4.1196,4.1196,4.1196,4.1196,4.1196,4.1196,4.1196,4.1196,4.1196,4.1196,4.1196,4.1196,4.1196,4.1196,4.1196,4.1196,4.1196,4.1196,4.1172,4.1172,4.1004,4.0619,4.0018,3.9513,3.908,3.8503,3.7998,3.7974,3.7974,3.7921,5.3822,5.3822,5.3822,5.3822,5.3822,5.3822,5.3774,5.3678,5.3269,5.3029,5.2764,5.185,5.1177,5.0744,5.072,5.0696,5.0696,5.0696,5.0696,5.0696,5.0696,5.0696,5.0696,5.0648,5.0624,5.0551,5.0046,4.9806,4.9782,4.9253,4.8772,4.8339,4.8243,4.7978,4.7569,4.7521,4.7497,4.7497,4.7497,4.7473,4.7401,4.6968,4.6655,4.6559,4.5645,4.5053,4.5005,4.4549,4.4285,4.4285,4.4237,4.4213,4.4141,4.3746,4.3433,4.3433,4.3024,4.2819,4.2819,4.2819,4.2867,4.2819,4.2867,4.2867,4.2867,4.2747,4.2675,4.2602,4.2241,4.1918,4.1928,4.1509,4.1293,4.1341,4.1293,4.1196,4.1268,4.1196,4.1196,4.1196,4.1268,4.1196,4.1244,4.122,4.1196,4.1196,4.1196,4.1196,4.1196,4.1196,4.1196,4.1196,4.1196,4.1196,4.1196,4.1196,4.1196,4.1196,4.1196,4.1196,4.1196,4.1196,4.1196,4.1196,4.1196,4.1124,4.0908,4.0355,3.9657,3.9369,3.8719,3.7974,3.7974,3.7974,3.7974,5.4111,5.3822,5.3822,5.3822,5.3822,5.3822,5.3822,5.3798,5.3606,5.3341,5.3029,5.2596,5.197,5.1153,5.084,5.0696,5.0696,5.0696,5.0696,5.0696,5.0696,5.0696,5.0696,5.0696,5.0696,5.0696,5.0455,5.0359,5.0263,4.9806,4.9277,4.8796,4.8748,4.8483,4.8002,4.7954,4.781,4.7497,4.7497,4.7497,4.7473,4.7281,4.704,4.6704,4.6295,4.591,4.5597,4.5029,4.4765,4.4741,4.4453,4.4285,4.4285,4.4069,4.3949,4.3986,4.3818,4.3697,4.3697,4.3697,4.3697,4.3697,4.3697,4.3697,4.3697,4.3697,4.3697,4.3601,4.2952,4.2482,4.2423,4.2289,4.2169,4.2169,4.2169,4.2169,4.211,4.211,4.211,4.2169,4.1846,4.1653,4.1605,4.1365,4.1196,4.1196,4.1196,4.1196,4.1196,4.1196,4.1196,4.1196,4.1196,4.1196,4.1196,4.1196,4.1196,4.1196,4.1196,4.1196,4.1196,4.1196,4.1196,4.1196,4.1196,4.1196,4.1172,4.0643,3.9994,3.9585,3.8791,3.7974,3.7974,3.7974,3.7974,5.4375,5.4039,5.3894,5.3822,5.3822,5.3822,5.3822,5.3822,5.3822,5.3606,5.3269,5.3125,5.2668,5.1898,5.1225,5.084,5.072,5.0696,5.0696,5.0696,5.0696,5.0696,5.0696,5.0696,5.0696,5.0696,5.0696,5.0696,5.0672,5.0311,4.983,4.9373,4.9301,4.9012,4.8555,4.8387,4.8098,4.7738,4.7569,4.7497,4.7497,4.7497,4.7305,4.6968,4.68,4.6535,4.615,4.5621,4.5221,4.5053,4.4693,4.4429,4.4309,4.4285,4.4285,4.4285,4.4285,4.4285,4.4285,4.4285,4.4285,4.4285,4.4285,4.4285,4.4285,4.4285,4.4285,4.4213,4.3649,4.3168,4.2976,4.2891,4.2819,4.2819,4.2819,4.2819,4.2795,4.2819,4.2771,4.2771,4.2434,4.2265,4.211,4.1808,4.1437,4.1437,4.1293,4.1196,4.1196,4.1196,4.1196,4.1196,4.1196,4.1196,4.1196,4.1196,4.1196,4.1196,4.1196,4.1196,4.1196,4.1196,4.1196,4.1196,4.1196,4.1172,4.1124,4.0739,4.0114,3.9441,3.8671,3.7998,3.7974,3.7974,3.7974,5.4592,5.4471,5.4039,5.3822,5.3822,5.3822,5.3822,5.3822,5.3822,5.3798,5.3702,5.3293,5.3053,5.286,5.1922,5.1201,5.0768,5.0744,5.072,5.072,5.0696,5.0696,5.0696,5.0696,5.0696,5.0696,5.0696,5.0696,5.0696,5.0672,5.0383,4.9878,4.983,4.9565,4.906,4.8603,4.8291,4.8171,4.7786,4.7521,4.7497,4.7497,4.7473,4.7377,4.6992,4.6728,4.6631,4.6175,4.5669,4.5101,4.5077,4.4837,4.4381,4.4309,4.4285,4.4285,4.4285,4.4285,4.4285,4.4285,4.4285,4.4285,4.4285,4.4285,4.4285,4.4285,4.4285,4.4285,4.4165,4.3962,4.3529,4.3168,4.2964,4.288,4.2891,4.2891,4.2891,4.2928,4.2843,4.2891,4.2843,4.2747,4.2747,4.2338,4.1966,4.1822,4.1509,4.1196,4.1196,4.1196,4.1196,4.1196,4.1196,4.1196,4.1196,4.1196,4.1196,4.1196,4.1196,4.1196,4.1196,4.1196,4.1196,4.1196,4.1196,4.1148,4.1076,4.0667,3.997,3.9272,3.8551,3.807,3.7974,3.7974,3.7974,5.4712,5.4087,5.3894,5.3822,5.3822,5.3822,5.3822,5.3822,5.3822,5.3822,5.3798,5.363,5.3365,5.3029,5.2668,5.2018,5.1249,5.1201,5.1032,5.0744,5.0696,5.0696,5.0696,5.0696,5.0696,5.0696,5.0696,5.0696,5.0696,5.0696,5.06,5.0455,5.0407,5.0143,4.9638,4.9397,4.8988,4.8339,4.8098,4.7858,4.7545,4.7497,4.7497,4.7497,4.7329,4.7233,4.7209,4.6704,4.6343,4.615,4.5838,4.5342,4.4837,4.4477,4.4285,4.4285,4.4285,4.4285,4.4285,4.4285,4.4285,4.4285,4.4285,4.4285,4.4285,4.4285,4.4285,4.4285,4.4285,4.4165,4.4045,4.3866,4.377,4.377,4.377,4.3746,4.3794,4.377,4.377,4.3721,4.3481,4.3144,4.2916,4.2651,4.241,4.2038,4.1798,4.1557,4.1268,4.1196,4.122,4.1196,4.1196,4.1196,4.1196,4.1196,4.1196,4.1196,4.1196,4.1196,4.1196,4.1196,4.1196,4.1196,4.1196,4.1172,4.11,4.0523,3.985,3.9441,3.8695,3.8142,3.7974,3.7974,3.7974,5.5049,5.4135,5.4063,5.3966,5.3822,5.3822,5.3822,5.3822,5.3822,5.3822,5.3822,5.3822,5.363,5.3341,5.3317,5.286,5.2018,5.1658,5.1297,5.096,5.0792,5.0696,5.0696,5.0696,5.0696,5.0696,5.0696,5.0696,5.0696,5.0696,5.0696,5.0696,5.0696,5.0527,5.0167,4.9974,4.9538,4.8868,4.8483,4.8098,4.7786,4.7593,4.7497,4.7497,4.7497,4.7497,4.7497,4.7161,4.6872,4.6704,4.6367,4.5934,4.5366,4.5044,4.4789,4.4789,4.4708,4.4525,4.4501,4.4381,4.4285,4.4285,4.4285,4.4285,4.4285,4.4285,4.4285,4.4285,4.4285,4.4285,4.4285,4.4285,4.4285,4.4285,4.4285,4.4285,4.4285,4.4261,4.4261,4.4189,4.401,4.3649,4.3337,4.312,4.288,4.2519,4.241,4.2073,4.1581,4.1437,4.1341,4.122,4.1196,4.1196,4.1196,4.1196,4.1196,4.1196,4.1196,4.1196,4.1196,4.1196,4.1196,4.1196,4.1196,4.1196,4.0908,4.0355,3.9946,3.9633,3.9008,3.8383,3.819,3.7974,3.7974,5.5578,5.4664,5.4616,5.4303,5.3918,5.3846,5.3822,5.3822,5.3822,5.3822,5.3822,5.3822,5.3798,5.3774,5.3726,5.3485,5.2908,5.2067,5.161,5.1465,5.1032,5.084,5.084,5.0816,5.0744,5.072,5.0696,5.0696,5.0696,5.0696,5.0696,5.0696,5.0696,5.0672,5.0672,5.0191,4.9948,4.9659,4.8868,4.8363,4.8219,4.781,4.7545,4.7497,4.7497,4.7497,4.7497,4.7473,4.7233,4.6824,4.6752,4.6463,4.6006,4.5814,4.5862,4.5718,4.5405,4.5101,4.5029,4.4669,4.4477,4.4453,4.4357,4.4381,4.4405,4.4333,4.4285,4.4285,4.4285,4.4285,4.4285,4.4285,4.4285,4.4285,4.4285,4.4285,4.4285,4.4285,4.4285,4.4285,4.4213,4.4261,4.4202,4.3842,4.3481,4.3289,4.3,4.2627,4.2086,4.1894,4.1701,4.1389,4.122,4.1196,4.1196,4.1196,4.1196,4.1196,4.1196,4.1196,4.1196,4.1196,4.1196,4.1196,4.1196,4.1172,4.11,4.0571,4.009,3.9681,3.908,3.8551,3.819,3.7974,3.7974,5.5794,5.5121,5.476,5.452,5.4327,5.3966,5.3822,5.3822,5.3822,5.3822,5.3822,5.3822,5.3822,5.3822,5.3822,5.3726,5.3534,5.2884,5.2379,5.2067,5.185,5.1754,5.1706,5.1417,5.1056,5.0768,5.0696,5.0696,5.0696,5.0696,5.0696,5.0696,5.0696,5.0696,5.0696,5.0527,5.0287,4.9924,4.9541,4.906,4.8387,4.8147,4.7882,4.7545,4.7497,4.7497,4.7497,4.7497,4.7425,4.7257,4.7257,4.7016,4.6535,4.6126,4.5934,4.5846,4.579,4.5694,4.5606,4.5462,4.5317,4.5357,4.5029,4.4861,4.4789,4.4501,4.4333,4.4309,4.4285,4.4285,4.4285,4.4285,4.4285,4.4285,4.4285,4.4285,4.4285,4.4285,4.4285,4.4285,4.4285,4.4285,4.4261,4.4045,4.3853,4.3601,4.3385,4.3096,4.2615,4.2265,4.2024,4.1725,4.1509,4.1196,4.1196,4.1196,4.1196,4.1196,4.1196,4.1196,4.1196,4.1196,4.1196,4.1196,4.1196,4.1148,4.1076,4.0812,4.0331,3.9801,3.9248,3.8719,3.8166,3.8022,3.8118,5.6203,5.5674,5.5337,5.4952,5.4592,5.4231,5.3991,5.3846,5.3822,5.3822,5.3822,5.3822,5.3822,5.3822,5.3822,5.3822,5.3798,5.3485,5.3173,5.2788,5.2379,5.2283,5.2235,5.1946,5.1513,5.1081,5.0984,5.0888,5.0696,5.0696,5.0696,5.0696,5.0696,5.0696,5.0696,5.0696,5.0503,5.0191,4.995,4.9541,4.8964,4.8676,4.8315,4.7882,4.7786,4.769,4.7521,4.7497,4.7497,4.7497,4.7497,4.7329,4.6992,4.6704,4.6511,4.6487,4.6343,4.6223,4.6199,4.6006,4.5934,4.5862,4.5597,4.5366,4.5269,4.4885,4.4597,4.4573,4.4405,4.4285,4.4285,4.4285,4.4285,4.4285,4.4285,4.4285,4.4285,4.4285,4.4285,4.4285,4.4285,4.4285,4.4285,4.4285,4.4165,4.389,4.3818,4.3625,4.312,4.2651,4.2386,4.1966,4.1509,4.1293,4.1196,4.1196,4.1196,4.1196,4.1196,4.1196,4.1196,4.1196,4.1196,4.1196,4.1196,4.1196,4.1124,4.1004,4.0643,4.0042,3.9513,3.9176,3.8791,3.8431,3.8383,5.6732,5.6299,5.6227,5.5626,5.4808,5.464,5.4303,5.3942,5.3822,5.3822,5.3822,5.3822,5.3822,5.3822,5.3822,5.3822,5.3822,5.3798,5.3726,5.3461,5.2932,5.2499,5.2403,5.2355,5.2043,5.1586,5.1465,5.1225,5.0864,5.0744,5.0696,5.0696,5.0696,5.0696,5.0696,5.0696,5.0696,5.0576,5.0167,4.9926,4.9758,4.9373,4.8868,4.8363,4.8339,4.8122,4.769,4.7545,4.7497,4.7497,4.7497,4.7473,4.7473,4.7497,4.7377,4.7353,4.6992,4.68,4.6655,4.6415,4.6175,4.6175,4.6054,4.5958,4.5886,4.5501,4.5116,4.5044,4.4645,4.4357,4.4333,4.4285,4.4285,4.4285,4.4285,4.4285,4.4285,4.4285,4.4285,4.4285,4.4285,4.4285,4.4285,4.4285,4.4261,4.4237,4.4189,4.3925,4.3649,4.312,4.2615,4.2158,4.1725,4.1365,4.1293,4.1196,4.1196,4.1196,4.1196,4.1196,4.1196,4.1196,4.1196,4.1196,4.1196,4.1196,4.1148,4.1052,4.0812,4.0331,3.9946,3.9753,3.9393,3.8936,3.8599,5.6949,5.678,5.6395,5.6059,5.5698,5.4977,5.4544,5.4351,5.3966,5.3846,5.3822,5.3822,5.3822,5.3822,5.3822,5.3822,5.3822,5.3822,5.3822,5.3774,5.3582,5.3197,5.2932,5.286,5.2596,5.2091,5.1754,5.1417,5.1249,5.0912,5.072,5.0696,5.0696,5.0696,5.0696,5.0696,5.0696,5.0696,5.0576,5.0239,4.9902,4.9758,4.9397,4.894,4.8868,4.8603,4.8098,4.769,4.7497,4.7497,4.7497,4.7497,4.7497,4.7497,4.7497,4.7449,4.7377,4.7281,4.7233,4.7136,4.7064,4.704,4.668,4.6511,4.6487,4.603,4.5573,4.5261,4.4909,4.4717,4.4405,4.4285,4.4285,4.4285,4.4285,4.4285,4.4285,4.4285,4.4285,4.4285,4.4285,4.4285,4.4285,4.4285,4.4285,4.4285,4.4261,4.4237,4.3901,4.3577,4.3024,4.2591,4.2158,4.1677,4.1365,4.1244,4.1196,4.1196,4.1196,4.1196,4.1196,4.1196,4.1196,4.1196,4.1196,4.1196,4.1196,4.1124,4.0812,4.0547,4.0403,4.0162,3.9633,3.9152,3.8888,5.7021,5.6997,5.6684,5.6444,5.6179,5.5554,5.5049,5.4616,5.4303,5.4015,5.387,5.3822,5.3822,5.3822,5.3822,5.3822,5.3822,5.3822,5.3822,5.3822,5.3798,5.363,5.3437,5.3389,5.3101,5.2644,5.2307,5.1922,5.1513,5.1177,5.0936,5.0744,5.0696,5.0696,5.0696,5.0696,5.0696,5.0696,5.0696,5.0527,5.0239,5.0215,4.9926,4.9517,4.9397,4.9157,4.8652,4.8122,4.7738,4.7569,4.7497,4.7497,4.7497,4.7497,4.7497,4.7497,4.7497,4.7497,4.7497,4.7497,4.7497,4.7449,4.7185,4.7088,4.6944,4.6559,4.6054,4.5886,4.5621,4.5149,4.4717,4.4429,4.4309,4.4285,4.4285,4.4285,4.4285,4.4285,4.4285,4.4285,4.4285,4.4285,4.4285,4.4285,4.4285,4.4285,4.4285,4.4285,4.4189,4.3842,4.3433,4.3,4.2495,4.1966,4.1581,4.1413,4.122,4.1196,4.1196,4.1196,4.1196,4.1196,4.1196,4.1196,4.1196,4.1196,4.1196,4.1172,4.1052,4.086,4.0763,4.0499,4.0018,3.9609,3.932,5.7021,5.7021,5.7021,5.6756,5.6371,5.6251,5.5602,5.4808,5.4592,5.4279,5.3918,5.3822,5.3822,5.3822,5.3822,5.3822,5.3822,5.3822,5.3822,5.3822,5.3822,5.3774,5.375,5.3726,5.351,5.3223,5.3199,5.2598,5.1947,5.1681,5.132,5.0958,5.0767,5.0696,5.0696,5.0696,5.0696,5.0696,5.0696,5.0696,5.06,5.06,5.0429,5.0162,5.0059,4.9866,4.9406,4.8855,4.8348,4.7684,4.7545,4.7497,4.7497,4.7497,4.7497,4.7497,4.7497,4.7497,4.7497,4.7497,4.7497,4.7473,4.7473,4.7497,4.7353,4.7016,4.6728,4.6535,4.6271,4.579,4.5197,4.4717,4.4477,4.4429,4.4381,4.4285,4.4285,4.4285,4.4285,4.4285,4.4285,4.4285,4.4285,4.4285,4.4285,4.4285,4.4285,4.4285,4.4237,4.4058,4.3721,4.3409,4.2832,4.2206,4.187,4.1663,4.1389,4.122,4.1196,4.1196,4.1196,4.1196,4.1196,4.1196,4.1196,4.1196,4.1196,4.1172,4.1148,4.1124,4.098,4.0812,4.0571,4.021,3.9898,5.7021,5.7021,5.7021,5.6949,5.678,5.6395,5.5866,5.5217,5.4784,5.4351,5.3918,5.3822,5.3822,5.3822,5.3822,5.3822,5.3822,5.3822,5.3822,5.3822,5.3822,5.3822,5.3822,5.3822,5.375,5.3632,5.3518,5.3132,5.2647,5.2304,5.1888,5.1192,5.1119,5.0954,5.0767,5.0767,5.0696,5.0696,5.0696,5.0696,5.0696,5.0696,5.0765,5.0828,5.0791,5.0729,5.0534,5.0068,4.942,4.8664,4.7962,4.7612,4.7563,4.7497,4.7497,4.7563,4.7497,4.7497,4.7497,4.7497,4.7497,4.7497,4.7497,4.7497,4.7497,4.7401,4.7112,4.6848,4.6583,4.6319,4.5878,4.5285,4.5059,4.4914,4.4674,4.4371,4.4285,4.4285,4.4285,4.4285,4.4285,4.4285,4.4285,4.4285,4.4285,4.4285,4.4285,4.4285,4.4213,4.4117,4.3986,4.3697,4.3289,4.2711,4.2303,4.1942,4.1509,4.1293,4.1196,4.1196,4.1196,4.1196,4.1196,4.1196,4.1196,4.1196,4.1196,4.1196,4.1172,4.1172,4.1196,4.1052,4.086,4.0619,4.0355,5.7021,5.7021,5.7021,5.7021,5.6973,5.6732,5.6299,5.5746,5.5217,5.4688,5.4207,5.3942,5.3822,5.3822,5.3822,5.3822,5.3822,5.3822,5.3897,5.4047,5.4122,5.4197,5.4347,5.4347,5.4272,5.4149,5.4228,5.3937,5.3545,5.3078,5.2588,5.1859,5.1639,5.1306,5.0954,5.0954,5.0813,5.0696,5.0696,5.0767,5.0884,5.0954,5.1095,5.1422,5.1456,5.1353,5.1329,5.0837,5.0376,4.9731,4.8962,4.8137,4.781,4.7762,4.7762,4.7762,4.7762,4.763,4.7563,4.7497,4.7497,4.7497,4.7497,4.7497,4.7497,4.7497,4.7467,4.7358,4.7303,4.7133,4.6794,4.6324,4.5983,4.5532,4.5313,4.4984,4.4605,4.4409,4.4285,4.4285,4.4285,4.4285,4.4285,4.4409,4.4347,4.4347,4.4347,4.4347,4.4285,4.4213,4.4165,4.3986,4.3673,4.3241,4.2808,4.2303,4.1701,4.1413,4.1196,4.1196,4.1196,4.1196,4.1196,4.1196,4.1196,4.1196,4.1196,4.1196,4.1196,4.1196,4.1196,4.1196,4.1124,4.0932,4.0643,5.7021,5.7021,5.7021,5.7021,5.7021,5.6997,5.6684,5.6179,5.5746,5.5145,5.4616,5.4111,5.3966,5.3846,5.3822,5.3822,5.3822,5.3897,5.4122,5.4347,5.4421,5.4645,5.4818,5.4942,5.4868,5.4645,5.4893,5.4746,5.4229,5.3883,5.3387,5.2749,5.2259,5.1803,5.1425,5.1306,5.1236,5.0978,5.0978,5.1049,5.1236,5.1306,5.1516,5.1796,5.198,5.2,5.1926,5.1605,5.1215,5.1073,5.0235,4.9271,4.8558,4.8116,4.8092,4.8092,4.8092,4.796,4.7696,4.763,4.7563,4.7497,4.7497,4.7497,4.7497,4.7563,4.7672,4.787,4.7929,4.8003,4.7887,4.7307,4.6879,4.6486,4.6265,4.5748,4.5121,4.4667,4.4532,4.4409,4.447,4.4532,4.4532,4.4656,4.4532,4.4409,4.4409,4.4409,4.4409,4.4347,4.4299,4.4251,4.4023,4.3625,4.3192,4.253,4.1928,4.1663,4.1374,4.1196,4.1196,4.1196,4.1196,4.1196,4.1196,4.1196,4.1196,4.1196,4.1196,4.1196,4.1196,4.1196,4.1196,4.1196,4.0932,5.7021,5.7021,5.7021,5.7021,5.7021,5.7021,5.6732,5.6275,5.6131,5.5506,5.4688,5.452,5.4183,5.3918,5.3822,5.3822,5.3897,5.4098,5.4322,5.4546,5.4719,5.5041,5.5115,5.5411,5.5485,5.5411,5.546,5.5187,5.4961,5.488,5.4284,5.3371,5.2978,5.2544,5.1943,5.1681,5.1681,5.1446,5.1471,5.1541,5.1681,5.1726,5.189,5.2308,5.2446,5.2585,5.2654,5.2554,5.2235,5.1582,5.129,5.0645,4.9768,4.8961,4.8584,4.851,4.851,4.8313,4.796,4.7894,4.7762,4.7563,4.7497,4.7497,4.7563,4.7762,4.796,4.8092,4.8379,4.8526,4.8453,4.8041,4.7681,4.7312,4.6833,4.6204,4.5883,4.549,4.5122,4.4962,4.4852,4.4779,4.484,4.4902,4.4902,4.484,4.4779,4.484,4.4902,4.4717,4.4508,4.4446,4.4422,4.3975,4.3529,4.2747,4.2073,4.1914,4.1615,4.1268,4.1244,4.1196,4.1196,4.1196,4.1196,4.1196,4.1196,4.1196,4.1196,4.1196,4.1196,4.1196,4.1196,4.1196,4.1196,5.7021,5.7021,5.7021,5.7021,5.7021,5.7021,5.6876,5.6636,5.6347,5.577,5.5121,5.4712,5.4303,5.3942,5.3822,5.3897,5.4122,5.4248,5.462,5.4942,5.5238,5.5485,5.5558,5.5852,5.5926,5.5926,5.5901,5.5801,5.5501,5.5346,5.5017,5.4398,5.3803,5.3163,5.2565,5.2247,5.2009,5.189,5.182,5.196,5.2099,5.2238,5.2515,5.2654,5.2792,5.2861,5.2861,5.2861,5.2666,5.2323,5.1979,5.1555,5.0888,5.0149,4.933,4.8976,4.8837,4.8706,4.8313,4.8182,4.7894,4.7762,4.763,4.763,4.7696,4.7894,4.8158,4.8551,4.8877,4.9097,4.9137,4.8799,4.864,4.8291,4.7731,4.727,4.6823,4.6291,4.5946,4.5613,4.538,4.5221,4.5147,4.5208,4.527,4.5208,4.5147,4.5208,4.5331,4.5086,4.4779,4.4779,4.4755,4.4512,4.4026,4.3421,4.2718,4.2452,4.1948,4.1625,4.135,4.1302,4.1196,4.1196,4.1196,4.1196,4.1196,4.1196,4.1196,4.1196,4.1196,4.1196,4.1196,4.1196,4.1196,5.7021,5.7021,5.7021,5.7021,5.7021,5.7021,5.7021,5.6925,5.6588,5.6035,5.5385,5.4952,5.4423,5.3942,5.3972,5.4122,5.4472,5.4546,5.5016,5.5386,5.5705,5.5926,5.6146,5.6219,5.6219,5.6146,5.6146,5.6219,5.602,5.5817,5.5541,5.5114,5.4361,5.3718,5.3263,5.2914,5.2481,5.2169,5.203,5.2238,5.2515,5.2723,5.2861,5.2861,5.2861,5.2861,5.2861,5.2861,5.2861,5.271,5.2459,5.2226,5.1975,5.1247,5.0337,4.9541,4.9277,4.9032,4.8706,4.851,4.8289,4.8182,4.7918,4.7918,4.805,4.8289,4.8551,4.9072,4.9396,4.9525,4.9461,4.9525,4.9364,4.9088,4.8773,4.8522,4.7858,4.7284,4.6799,4.6427,4.6006,4.5747,4.5649,4.5635,4.5757,4.5635,4.5574,4.5574,4.5635,4.5331,4.5147,4.5147,4.5159,4.5012,4.4682,4.4292,4.3706,4.3281,4.2593,4.1982,4.1658,4.1408,4.1302,4.1254,4.1196,4.1196,4.1196,4.1196,4.1196,4.1196,4.1196,4.1196,4.1196,4.1196,4.1196,5.7021,5.7021,5.7021,5.7021,5.7021,5.7021,5.7021,5.6997,5.6925,5.6323,5.5385,5.5265,5.4712,5.4141,5.4173,5.457,5.4892,5.5189,5.5485,5.5705,5.5926,5.6072,5.6219,5.6219,5.6219,5.6219,5.6219,5.6219,5.6194,5.6093,5.5842,5.544,5.5164,5.4737,5.3843,5.3493,5.3287,5.2892,5.2723,5.2792,5.2792,5.2861,5.2861,5.2861,5.2861,5.2861,5.2861,5.2861,5.2861,5.2836,5.281,5.2578,5.2201,5.2026,5.1297,5.0453,4.9786,4.9396,4.9097,4.8877,4.8747,4.8576,4.8379,4.8469,4.8576,4.8772,4.9072,4.9461,4.959,4.959,4.959,4.959,4.954,4.9364,4.9088,4.8912,4.8522,4.8021,4.757,4.722,4.6736,4.6423,4.6234,4.622,4.6205,4.6059,4.5999,4.5999,4.5939,4.5696,4.5514,4.5574,4.5574,4.5451,4.5291,4.4875,4.4495,4.4101,4.3399,4.2555,4.2156,4.1798,4.1384,4.1278,4.1254,4.123,4.1287,4.1287,4.123,4.1196,4.1196,4.1196,4.1196,4.1196,4.1196,5.7021,5.7021,5.7021,5.7021,5.7021,5.7021,5.7021,5.7021,5.7021,5.6419,5.5631,5.5641,5.529,5.4642,5.4645,5.4942,5.5337,5.5558,5.5779,5.5926,5.6146,5.6219,5.6219,5.6219,5.6219,5.6219,5.6219,5.6219,5.6219,5.6194,5.6043,5.5867,5.5541,5.5189,5.4486,5.3984,5.3632,5.3262,5.3036,5.2861,5.2861,5.2861,5.2861,5.2861,5.2861,5.2861,5.2861,5.2861,5.2861,5.2861,5.2861,5.2854,5.2553,5.2277,5.18,5.1498,5.087,5.0228,4.9546,4.9252,4.9097,4.8902,4.8772,4.8641,4.8902,4.9137,4.9396,4.959,4.959,4.959,4.959,4.959,4.959,4.949,4.9314,4.9289,4.9063,4.8686,4.8284,4.7908,4.7556,4.7179,4.6803,4.6491,4.6366,4.618,4.612,4.612,4.612,4.6059,4.5999,4.5939,4.5939,4.5914,4.5803,4.5594,4.5116,4.4734,4.4298,4.3507,4.2788,4.233,4.1856,4.1556,4.1459,4.1459,4.1459,4.1344,4.123,4.123,4.1196,4.1196,4.1196,4.1196,4.1196,5.7021,5.7021,5.7021,5.7021,5.7021,5.7021,5.7021,5.7021,5.7021,5.6498,5.5786,5.5658,5.5453,5.5213,5.5189,5.5386,5.5779,5.5779,5.5926,5.6146,5.6219,5.6219,5.6219,5.6219,5.6219,5.6219,5.6219,5.6219,5.6219,5.6219,5.6194,5.6194,5.5842,5.5516,5.5189,5.4637,5.411,5.3632,5.3331,5.3105,5.2955,5.2861,5.2861,5.2861,5.2861,5.2861,5.2861,5.2861,5.2861,5.2861,5.2861,5.2836,5.2804,5.2553,5.2251,5.1975,5.1548,5.1046,5.0328,4.9821,4.9441,4.9187,4.9097,4.9032,4.9202,4.9461,4.959,4.959,4.959,4.959,4.959,4.959,4.959,4.959,4.9565,4.959,4.954,4.9138,4.8761,4.841,4.8033,4.7707,4.728,4.6828,4.6552,4.6376,4.6301,4.6326,4.6301,4.624,4.624,4.6145,4.612,4.612,4.612,4.596,4.559,4.532,4.4942,4.4502,4.3718,4.2953,4.2412,4.211,4.1867,4.1745,4.1745,4.1516,4.1287,4.1344,4.1344,4.123,4.1196,4.1196,4.1196,5.7021,5.7021,5.7021,5.7021,5.7021,5.7021,5.7021,5.7021,5.7021,5.6655,5.6002,5.5479,5.5386,5.5509,5.5558,5.5779,5.612,5.6146,5.6146,5.6219,5.6219,5.6219,5.6219,5.6219,5.6219,5.6219,5.6219,5.6219,5.6219,5.6219,5.6219,5.6168,5.6068,5.5792,5.5516,5.5164,5.4536,5.4009,5.3632,5.3356,5.3105,5.2886,5.2861,5.2861,5.2861,5.2861,5.2861,5.2861,5.2861,5.2861,5.2861,5.2861,5.2836,5.2804,5.2553,5.2277,5.2151,5.1699,5.108,5.0528,5.0052,4.9726,4.9461,4.9421,4.9461,4.9525,4.959,4.959,4.959,4.959,4.959,4.959,4.959,4.959,4.959,4.959,4.959,4.9565,4.9188,4.8862,4.8535,4.8159,4.7832,4.738,4.6878,4.6652,4.6326,4.6326,4.6326,4.6301,4.6301,4.6266,4.6266,4.624,4.624,4.608,4.5945,4.5785,4.549,4.5171,4.4739,4.3993,4.3217,4.2725,4.2479,4.2225,4.2029,4.1859,4.1663,4.1549,4.1459,4.1459,4.1287,4.123,4.123,5.7021,5.7021,5.7021,5.7021,5.7021,5.7021,5.7021,5.7021,5.7235,5.7126,5.6666,5.5856,5.5558,5.5852,5.5974,5.6072,5.6219,5.6219,5.6219,5.6219,5.6219,5.6219,5.6219,5.6219,5.6219,5.6219,5.6219,5.6219,5.6219,5.6219,5.6219,5.6219,5.6219,5.6118,5.5867,5.5566,5.4963,5.4386,5.3909,5.3582,5.3432,5.3055,5.2861,5.2861,5.2861,5.2861,5.2861,5.2861,5.2861,5.2861,5.2861,5.2861,5.2861,5.2861,5.2804,5.2603,5.2553,5.2302,5.18,5.1247,5.072,5.0167,4.9841,4.9615,4.9665,4.9615,4.959,4.959,4.959,4.959,4.959,4.959,4.959,4.959,4.959,4.959,4.959,4.959,4.954,4.9188,4.8912,4.8586,4.8284,4.7933,4.7405,4.6928,4.6602,4.6326,4.6326,4.6326,4.6326,4.6326,4.6326,4.6326,4.6326,4.6326,4.6326,4.614,4.598,4.572,4.5375,4.4948,4.4225,4.3631,4.3037,4.2789,4.2535,4.2305,4.2061,4.1915,4.1802,4.1745,4.1573,4.1344,4.123,5.7021,5.7021,5.7021,5.7021,5.7021,5.7021,5.7021,5.7259,5.7497,5.7438,5.7121,5.6203,5.5901,5.6146,5.6219,5.6219,5.6219,5.6219,5.6219,5.6219,5.6219,5.6219,5.6219,5.6219,5.6219,5.6219,5.6219,5.6219,5.6219,5.6219,5.6219,5.6219,5.6219,5.6194,5.6093,5.5842,5.5365,5.4813,5.4486,5.3909,5.3758,5.3381,5.303,5.2911,5.2861,5.2861,5.2861,5.2861,5.2861,5.2861,5.2861,5.2861,5.2861,5.2861,5.2861,5.2861,5.281,5.2729,5.2327,5.1649,5.1147,5.0695,5.0167,4.9941,4.9816,4.9715,4.959,4.959,4.959,4.9615,4.9615,4.959,4.959,4.959,4.959,4.959,4.959,4.959,4.959,4.949,4.9238,4.9063,4.8837,4.8485,4.7782,4.7205,4.6602,4.6351,4.6326,4.6326,4.6326,4.6326,4.6326,4.6326,4.6326,4.6326,4.6326,4.6301,4.614,4.604,4.5805,4.54,4.5092,4.4552,4.3978,4.3455,4.3074,4.2793,4.2499,4.2256,4.2086,4.1915,4.1663,4.1435,4.1287,5.7021,5.7021,5.7021,5.7021,5.71,5.7021,5.7259,5.7528,5.7588,5.7418,5.7172,5.6474,5.6146,5.6219,5.6219,5.6219,5.6219,5.6219,5.6219,5.6219,5.6219,5.6219,5.6219,5.6219,5.6219,5.6219,5.6219,5.6219,5.6219,5.6219,5.6219,5.6219,5.6219,5.6219,5.6194,5.6194,5.5892,5.544,5.5315,5.4662,5.411,5.3783,5.3482,5.3155,5.3055,5.308,5.2861,5.2861,5.2861,5.2861,5.2861,5.2861,5.2861,5.2861,5.2861,5.2861,5.2861,5.2836,5.2735,5.1875,5.1448,5.1222,5.0745,5.0444,5.0293,5.0042,4.9741,4.9841,4.9715,4.9665,4.9615,4.959,4.959,4.959,4.959,4.959,4.959,4.959,4.959,4.959,4.959,4.954,4.9339,4.8987,4.8209,4.7506,4.6728,4.6426,4.6426,4.6326,4.6326,4.6326,4.6326,4.6326,4.6326,4.6326,4.6326,4.6326,4.6276,4.62,4.61,4.5779,4.5504,4.5237,4.4636,4.3819,4.3526,4.3281,4.2937,4.2538,4.228,4.2086,4.1802,4.1606,4.1573,5.718,5.7418,5.7418,5.7576,5.7813,5.7497,5.7655,5.7927,5.7626,5.7442,5.7424,5.6647,5.6219,5.6219,5.6219,5.6219,5.6219,5.6219,5.6219,5.6219,5.6219,5.6219,5.6219,5.6219,5.6219,5.6219,5.6219,5.6219,5.6219,5.6219,5.6219,5.6219,5.6219,5.6219,5.6219,5.6219,5.6068,5.5892,5.5591,5.5164,5.4813,5.4436,5.4009,5.3457,5.3406,5.3256,5.2886,5.2861,5.2861,5.2861,5.2861,5.2861,5.2861,5.2861,5.2861,5.2861,5.2861,5.2861,5.2836,5.2477,5.2226,5.1825,5.1348,5.0996,5.0946,5.087,5.0544,5.0243,5.0142,5.0017,4.969,4.9615,4.9615,4.959,4.959,4.959,4.959,4.959,4.959,4.959,4.959,4.959,4.949,4.9289,4.8661,4.8159,4.7506,4.6979,4.6853,4.6476,4.6326,4.6326,4.6326,4.6326,4.6326,4.6326,4.6326,4.6326,4.6326,4.6276,4.6175,4.605,4.5849,4.5547,4.4895,4.4217,4.3815,4.3413,4.3137,4.2818,4.2538,4.2369,4.2199,4.2029,4.194,5.7497,5.7813,5.7813,5.8129,5.8364,5.805,5.8129,5.8324,5.7769,5.765,5.7575,5.6721,5.6219,5.6219,5.6219,5.6219,5.6219,5.6219,5.6219,5.6219,5.6219,5.6219,5.6219,5.6219,5.6219,5.6219,5.6219,5.6219,5.6219,5.6219,5.6219,5.6219,5.6219,5.6219,5.6219,5.6219,5.6194,5.6068,5.5842,5.5591,5.529,5.4938,5.4461,5.3909,5.3607,5.3457,5.308,5.2861,5.2861,5.2861,5.2861,5.2861,5.2861,5.2861,5.2861,5.2861,5.2861,5.2861,5.2836,5.2836,5.2603,5.2402,5.1875,5.1599,5.1498,5.1297,5.1071,5.082,5.0745,5.0393,5.0017,4.9916,4.9816,4.9816,4.964,4.964,4.959,4.959,4.959,4.959,4.959,4.959,4.959,4.9389,4.9063,4.8686,4.8309,4.7782,4.7255,4.6828,4.6451,4.6401,4.6351,4.6326,4.6326,4.6326,4.6326,4.6326,4.6326,4.6326,4.6301,4.62,4.5999,4.5824,4.5271,4.4669,4.394,4.3463,4.3162,4.2955,4.2818,4.265,4.2538,4.2425,4.228,5.7892,5.831,5.831,5.8521,5.8809,5.8521,5.8599,5.884,5.8201,5.7901,5.7826,5.6696,5.6219,5.6219,5.6219,5.6219,5.6219,5.6219,5.6219,5.6219,5.6219,5.6219,5.6219,5.6219,5.6219,5.6219,5.6219,5.6219,5.6219,5.6219,5.6219,5.6219,5.6219,5.6219,5.6219,5.6219,5.6219,5.6168,5.6118,5.5867,5.5616,5.544,5.4888,5.4336,5.3934,5.3582,5.3231,5.3005,5.2886,5.2861,5.2861,5.2861,5.2861,5.2861,5.2861,5.2861,5.2861,5.2861,5.2861,5.2861,5.2861,5.2729,5.2402,5.2201,5.2051,5.1825,5.1599,5.1398,5.1272,5.0896,5.0569,5.0393,5.0218,5.0042,4.9766,4.969,4.9615,4.959,4.959,4.959,4.959,4.959,4.959,4.9464,4.9339,4.9213,4.8837,4.836,4.7807,4.7205,4.6828,4.6527,4.6451,4.6326,4.6326,4.6326,4.6326,4.6326,4.6326,4.6326,4.6326,4.6326,4.6175,4.5999,4.5698,4.5095,4.4091,4.3489,4.3162,4.3037,4.293,4.2874,4.2706,4.265,4.2481,5.8364,5.8731,5.8731,5.8965,5.9251,5.9198,5.9276,5.9203,5.8378,5.7901,5.7826,5.6696,5.6219,5.6219,5.6219,5.6219,5.6219,5.6219,5.6219,5.6219,5.6219,5.6219,5.6219,5.6219,5.6219,5.6219,5.6219,5.6219,5.6219,5.6219,5.6219,5.6219,5.6219,5.6219,5.6219,5.6219,5.6219,5.6219,5.6219,5.6093,5.5968,5.5892,5.5365,5.4913,5.4436,5.4034,5.3532,5.313,5.3005,5.2929,5.2861,5.2861,5.2861,5.2861,5.2861,5.2861,5.2861,5.2861,5.2861,5.2861,5.2861,5.2861,5.2729,5.2729,5.2628,5.2452,5.2176,5.2,5.185,5.1548,5.1197,5.0971,5.072,5.0393,5.0167,5.0042,4.9941,4.9741,4.9741,4.959,4.959,4.959,4.959,4.959,4.949,4.9515,4.9339,4.8862,4.8385,4.7782,4.728,4.6954,4.6627,4.6527,4.6376,4.6351,4.6326,4.6326,4.6326,4.6326,4.6326,4.6326,4.6326,4.6125,4.5799,4.4995,4.4016,4.3589,4.3338,4.3062,4.2986,4.293,4.2874,4.2818,4.2762,5.8731,5.912,5.9095,5.9276,5.9508,5.9508,5.9508,5.9282,5.8353,5.7901,5.775,5.6696,5.6219,5.6219,5.6219,5.6219,5.6219,5.6219,5.6219,5.6219,5.6219,5.6219,5.6219,5.6219,5.6219,5.6219,5.6219,5.6219,5.6219,5.6219,5.6219,5.6219,5.6219,5.6219,5.6219,5.6219,5.6219,5.6219,5.6219,5.6219,5.6219,5.6194,5.5867,5.5465,5.5013,5.4511,5.3833,5.3356,5.3181,5.298,5.2861,5.2861,5.2861,5.2861,5.2861,5.2861,5.2861,5.2861,5.2861,5.2861,5.2861,5.2861,5.2861,5.2904,5.2904,5.2779,5.2628,5.2503,5.2402,5.2251,5.19,5.1548,5.1197,5.0845,5.067,5.0494,5.0268,4.9992,4.9816,4.964,4.959,4.959,4.959,4.959,4.959,4.959,4.954,4.9364,4.8937,4.846,4.7933,4.7506,4.7054,4.6728,4.6602,4.6451,4.6376,4.6351,4.6326,4.6326,4.6326,4.6326,4.6326,4.6125,4.5824,4.5045,4.4317,4.389,4.3589,4.3313,4.3011,4.2986,4.2986,4.293,4.293,5.9198,5.9508,5.9508,5.9483,5.9508,5.9508,5.9508,5.9382,5.8453,5.7951,5.77,5.6771,5.6294,5.6244,5.6219,5.6219,5.6219,5.6219,5.6219,5.6219,5.6219,5.6219,5.6219,5.6219,5.6219,5.6219,5.6219,5.6219,5.6219,5.6219,5.6219,5.6219,5.6219,5.6219,5.6219,5.6219,5.6219,5.6219,5.6219,5.6219,5.6219,5.6143,5.5968,5.5591,5.529,5.4938,5.416,5.3708,5.3482,5.3155,5.2861,5.2861,5.2861,5.2861,5.2861,5.2861,5.2861,5.2861,5.2861,5.2861,5.2861,5.2861,5.2861,5.2861,5.2861,5.2861,5.2804,5.2779,5.2678,5.2578,5.2277,5.2151,5.1875,5.1523,5.1272,5.1021,5.067,5.0393,5.0092,4.9891,4.9665,4.9665,4.959,4.959,4.959,4.959,4.959,4.954,4.9389,4.8987,4.856,4.8033,4.7556,4.7129,4.6903,4.6728,4.6451,4.6376,4.6351,4.6326,4.6326,4.6326,4.6326,4.615,4.5974,4.5472,4.4869,4.4392,4.389,4.3388,4.3162,4.3011,4.2986,4.2986,4.2986,5.9405,5.9508,5.9508,5.9508,5.9508,5.9508,5.9508,5.9433,5.883,5.8303,5.7826,5.7173,5.657,5.6244,5.6219,5.6219,5.6219,5.6219,5.6219,5.6219,5.6219,5.6219,5.6219,5.6219,5.6219,5.6219,5.6219,5.6219,5.6219,5.6219,5.6219,5.6219,5.6219,5.6219,5.6219,5.6219,5.6219,5.6219,5.6219,5.6219,5.6219,5.6194,5.6093,5.5867,5.5641,5.5365,5.4687,5.411,5.3833,5.3507,5.3105,5.2955,5.2861,5.2861,5.2861,5.2861,5.2861,5.2861,5.2861,5.2861,5.2861,5.2861,5.2861,5.2861,5.2861,5.2861,5.2861,5.2861,5.2836,5.2804,5.2729,5.2628,5.2528,5.2201,5.1875,5.1498,5.1122,5.077,5.0444,5.0117,4.9841,4.9715,4.964,4.959,4.959,4.959,4.959,4.959,4.959,4.9339,4.9088,4.8586,4.8058,4.7657,4.738,4.6943,4.6667,4.6476,4.6376,4.6351,4.6326,4.6326,4.6301,4.6301,4.61,4.5673,4.5246,4.4844,4.4317,4.3664,4.3288,4.3162,4.3011,4.2986,4.2986,5.9508,5.9508,5.9508,5.9508,5.9508,5.9508,5.9508,5.9433,5.9182,5.8629,5.7876,5.7298,5.6721,5.6269,5.6219,5.6219,5.6219,5.6219,5.6219,5.6219,5.6219,5.6219,5.6219,5.6219,5.6219,5.6219,5.6219,5.6219,5.6219,5.6219,5.6219,5.6219,5.6219,5.6219,5.6219,5.6219,5.6219,5.6219,5.6219,5.6219,5.6219,5.6219,5.6194,5.6068,5.5942,5.5666,5.5265,5.4662,5.426,5.3733,5.3206,5.298,5.2861,5.2861,5.2861,5.2861,5.2861,5.2861,5.2861,5.2861,5.2861,5.2861,5.2861,5.2861,5.2861,5.2861,5.2861,5.2861,5.2861,5.2785,5.2785,5.271,5.2754,5.2553,5.2402,5.2201,5.1699,5.1222,5.077,5.0293,5.0067,4.9916,4.9791,4.959,4.959,4.959,4.959,4.959,4.959,4.959,4.9389,4.9138,4.8586,4.8309,4.8134,4.7581,4.6943,4.6728,4.6476,4.6351,4.6326,4.6326,4.6301,4.6301,4.6225,4.5974,4.5547,4.5171,4.4543,4.3865,4.3539,4.3313,4.3162,4.2986,4.2986,5.9508,5.9508,5.9508,5.9508,5.9508,5.9508,5.9508,5.9483,5.9483,5.888,5.7926,5.7399,5.6821,5.6369,5.6219,5.6219,5.6219,5.6219,5.6219,5.6219,5.6219,5.6219,5.6219,5.6219,5.6219,5.6219,5.6219,5.6219,5.6219,5.6219,5.6219,5.6219,5.6219,5.6219,5.6219,5.6219,5.6219,5.6219,5.6219,5.6219,5.6219,5.6219,5.6219,5.6219,5.6168,5.5942,5.5641,5.5239,5.4762,5.4034,5.3306,5.2961,5.2861,5.2861,5.2861,5.2861,5.2861,5.2861,5.2861,5.2861,5.2861,5.2861,5.2861,5.2861,5.2861,5.2861,5.2861,5.2861,5.2861,5.2861,5.2861,5.2861,5.2904,5.2879,5.2804,5.2754,5.2226,5.1699,5.1172,5.0619,5.0343,5.0167,4.9866,4.9665,4.959,4.959,4.959,4.959,4.959,4.959,4.949,4.9364,4.9088,4.8887,4.8711,4.8234,4.7506,4.7004,4.6753,4.6502,4.6326,4.6326,4.6326,4.6301,4.62,4.6075,4.5849,4.5497,4.4819,4.4141,4.3765,4.3489,4.3112,4.2986,4.2986,5.9508,5.9508,5.9508,5.9508,5.9508,5.9508,5.9508,5.9508,5.9483,5.8905,5.8077,5.775,5.7223,5.6219,5.6219,5.6219,5.6219,5.6219,5.6219,5.6219,5.6219,5.6219,5.6219,5.6219,5.6219,5.6219,5.6219,5.6219,5.6219,5.6219,5.6219,5.6219,5.6219,5.6219,5.6219,5.6219,5.6219,5.6219,5.6219,5.6219,5.6219,5.6219,5.6219,5.6219,5.6194,5.6143,5.5968,5.5591,5.5064,5.4336,5.3532,5.3105,5.2861,5.2861,5.2861,5.2861,5.2861,5.2861,5.2861,5.2861,5.2861,5.2861,5.2861,5.2861,5.2861,5.2861,5.2861,5.2861,5.2861,5.2861,5.2861,5.2861,5.2836,5.2836,5.2879,5.2854,5.2603,5.2176,5.1724,5.1172,5.072,5.0318,4.9816,4.9665,4.959,4.959,4.959,4.959,4.959,4.959,4.959,4.9515,4.9439,4.9163,4.8837,4.8711,4.8159,4.7556,4.6979,4.6702,4.6476,4.6326,4.6326,4.6326,4.6326,4.6225,4.5999,4.5799,4.5271,4.4644,4.4066,4.3639,4.3263,4.2986,4.2986]}]]